<?xml version="1.0" encoding="UTF-8"?>
<gpx version="1.1" creator="2bulu-scraper" xmlns="http://www.topografix.com/GPX/1/1">
  <metadata><name>峨眉山北线</name><desc>source: 2bulu.com trackId=71893512; exported 2026-09-01T16:17:25.209Z</desc>
    <bounds minlat="29.523784" minlon="103.326791" maxlat="29.583098" maxlon="103.441409"/>
    <link href="https://www.2bulu.com/track/t-A3I6XKsudPzp%252FR2KBg5Tzw%253D%253D.htm"><text>2bulu 源页面</text></link>
  </metadata>
  <wpt lat="29.564887" lon="103.4268"><ele>668</ele><name></name></wpt>
  <wpt lat="29.565146" lon="103.425811"><ele>698</ele><name></name></wpt>
  <wpt lat="29.565308" lon="103.421207"><ele>841</ele><name></name></wpt>
  <wpt lat="29.567426" lon="103.420408"><ele>886</ele><name></name></wpt>
  <wpt lat="29.569387" lon="103.419708"><ele>934</ele><name></name></wpt>
  <wpt lat="29.569198" lon="103.414857"><ele>932</ele><name></name></wpt>
  <wpt lat="29.566651" lon="103.407974"><ele>818</ele><name></name></wpt>
  <wpt lat="29.571976" lon="103.401374"><ele>776</ele><name></name></wpt>
  <wpt lat="29.574171" lon="103.392315"><ele>705</ele><name></name></wpt>
  <wpt lat="29.574086" lon="103.392072"><ele>704</ele><name></name></wpt>
  <wpt lat="29.566008" lon="103.389765"><ele>759</ele><name></name></wpt>
  <wpt lat="29.575117" lon="103.391946"><ele>727</ele><name></name></wpt>
  <wpt lat="29.57854" lon="103.389676"><ele>824</ele><name></name></wpt>
  <wpt lat="29.578439" lon="103.388966"><ele>825</ele><name></name></wpt>
  <wpt lat="29.579061" lon="103.38709"><ele>835</ele><name></name></wpt>
  <wpt lat="29.579443" lon="103.386297"><ele>881</ele><name></name></wpt>
  <wpt lat="29.581897" lon="103.382905"><ele>1003</ele><name></name></wpt>
  <wpt lat="29.582027" lon="103.376759"><ele>1134</ele><name></name></wpt>
  <wpt lat="29.581789" lon="103.376267"><ele>1167</ele><name></name></wpt>
  <wpt lat="29.580995" lon="103.376428"><ele>1226</ele><name></name></wpt>
  <wpt lat="29.580776" lon="103.376316"><ele>1257</ele><name></name></wpt>
  <wpt lat="29.58073" lon="103.375359"><ele>1293</ele><name></name></wpt>
  <wpt lat="29.577605" lon="103.370966"><ele>1477</ele><name></name></wpt>
  <wpt lat="29.574758" lon="103.36368"><ele>1575</ele><name></name></wpt>
  <wpt lat="29.574758" lon="103.36368"><ele>1575</ele><name></name></wpt>
  <wpt lat="29.568412" lon="103.359743"><ele>1746</ele><name></name></wpt>
  <wpt lat="29.565539" lon="103.356937"><ele>1861</ele><name></name></wpt>
  <wpt lat="29.564218" lon="103.356474"><ele>1909</ele><name></name></wpt>
  <wpt lat="29.564218" lon="103.356474"><ele>1909</ele><name></name></wpt>
  <wpt lat="29.564007" lon="103.355787"><ele>1894</ele><name></name></wpt>
  <wpt lat="29.562812" lon="103.350614"><ele>1829</ele><name></name></wpt>
  <wpt lat="29.562884" lon="103.350729"><ele>1834</ele><name></name></wpt>
  <wpt lat="29.561414" lon="103.345342"><ele>1822</ele><name></name></wpt>
  <wpt lat="29.560735" lon="103.344747"><ele>1883</ele><name></name></wpt>
  <wpt lat="29.559289" lon="103.343466"><ele>2006</ele><name>18元红牛</name></wpt>
  <wpt lat="29.559276" lon="103.343575"><ele>2009</ele><name></name></wpt>
  <wpt lat="29.558729" lon="103.344239"><ele>2062</ele><name></name></wpt>
  <wpt lat="29.553609" lon="103.345316"><ele>2266</ele><name></name></wpt>
  <wpt lat="29.547816" lon="103.341193"><ele>2333</ele><name></name></wpt>
  <wpt lat="29.537597" lon="103.333786"><ele>2469</ele><name></name></wpt>
  <wpt lat="29.534788" lon="103.332984"><ele>2534</ele><name></name></wpt>
  <wpt lat="29.531878" lon="103.330207"><ele>2719</ele><name>冲顶之战</name></wpt>
  <wpt lat="29.523905" lon="103.334923"><ele>3034</ele><name></name></wpt>
  <trk><name>峨眉山北线</name>
      <trkseg>
        <trkpt lat="29.571146" lon="103.440872"><ele>538.4215</ele><time>2025-09-11T20:05:17.000Z</time></trkpt>
        <trkpt lat="29.57117" lon="103.440982"><ele>535.8981</ele><time>2025-09-11T20:05:24.000Z</time></trkpt>
        <trkpt lat="29.57119" lon="103.441088"><ele>536.4039</ele><time>2025-09-11T20:05:31.000Z</time></trkpt>
        <trkpt lat="29.57118" lon="103.441191"><ele>537.1376</ele><time>2025-09-11T20:05:37.000Z</time></trkpt>
        <trkpt lat="29.571174" lon="103.441304"><ele>538.5073</ele><time>2025-09-11T20:05:47.000Z</time></trkpt>
        <trkpt lat="29.571084" lon="103.441346"><ele>539.5503</ele><time>2025-09-11T20:05:56.000Z</time></trkpt>
        <trkpt lat="29.570996" lon="103.441373"><ele>541.13806</ele><time>2025-09-11T20:06:02.000Z</time></trkpt>
        <trkpt lat="29.570904" lon="103.44138"><ele>541.1182</ele><time>2025-09-11T20:06:08.000Z</time></trkpt>
        <trkpt lat="29.57081" lon="103.441381"><ele>539.896</ele><time>2025-09-11T20:06:15.000Z</time></trkpt>
        <trkpt lat="29.570719" lon="103.441337"><ele>539.9878</ele><time>2025-09-11T20:06:25.000Z</time></trkpt>
        <trkpt lat="29.570629" lon="103.441361"><ele>539.2025</ele><time>2025-09-11T20:06:35.000Z</time></trkpt>
        <trkpt lat="29.57054" lon="103.441409"><ele>540.1372</ele><time>2025-09-11T20:07:02.000Z</time></trkpt>
        <trkpt lat="29.57045" lon="103.441398"><ele>539.1772</ele><time>2025-09-11T20:07:08.000Z</time></trkpt>
        <trkpt lat="29.570365" lon="103.441354"><ele>538.21857</ele><time>2025-09-11T20:07:14.000Z</time></trkpt>
        <trkpt lat="29.570279" lon="103.441282"><ele>537.81165</ele><time>2025-09-11T20:07:24.000Z</time></trkpt>
        <trkpt lat="29.57018" lon="103.441273"><ele>539.5636</ele><time>2025-09-11T20:07:32.000Z</time></trkpt>
        <trkpt lat="29.570099" lon="103.441203"><ele>540.1729</ele><time>2025-09-11T20:07:39.000Z</time></trkpt>
        <trkpt lat="29.570015" lon="103.441153"><ele>541.584</ele><time>2025-09-11T20:07:46.000Z</time></trkpt>
        <trkpt lat="29.569924" lon="103.441102"><ele>542.00793</ele><time>2025-09-11T20:07:55.000Z</time></trkpt>
        <trkpt lat="29.569842" lon="103.441033"><ele>541.2782</ele><time>2025-09-11T20:08:02.000Z</time></trkpt>
        <trkpt lat="29.569754" lon="103.441009"><ele>541.7563</ele><time>2025-09-11T20:08:09.000Z</time></trkpt>
        <trkpt lat="29.569655" lon="103.440974"><ele>539.42834</ele><time>2025-09-11T20:08:18.000Z</time></trkpt>
        <trkpt lat="29.569558" lon="103.440975"><ele>540.86194</ele><time>2025-09-11T20:08:24.000Z</time></trkpt>
        <trkpt lat="29.569464" lon="103.440975"><ele>539.80176</ele><time>2025-09-11T20:08:32.000Z</time></trkpt>
        <trkpt lat="29.569369" lon="103.44099"><ele>539.229</ele><time>2025-09-11T20:08:39.000Z</time></trkpt>
        <trkpt lat="29.569279" lon="103.440982"><ele>537.9674</ele><time>2025-09-11T20:08:46.000Z</time></trkpt>
        <trkpt lat="29.569181" lon="103.44098"><ele>535.7575</ele><time>2025-09-11T20:09:13.000Z</time></trkpt>
        <trkpt lat="29.56909" lon="103.440999"><ele>533.45886</ele><time>2025-09-11T20:09:23.000Z</time></trkpt>
        <trkpt lat="29.569188" lon="103.441055"><ele>522.54877</ele><time>2025-09-11T20:09:42.000Z</time></trkpt>
        <trkpt lat="29.569132" lon="103.440973"><ele>527.06024</ele><time>2025-09-11T20:09:44.000Z</time></trkpt>
        <trkpt lat="29.56901" lon="103.440698"><ele>533.09204</ele><time>2025-09-11T20:13:11.000Z</time></trkpt>
        <trkpt lat="29.568993" lon="103.440581"><ele>534.01654</ele><time>2025-09-11T20:13:20.000Z</time></trkpt>
        <trkpt lat="29.568984" lon="103.440467"><ele>536.17084</ele><time>2025-09-11T20:13:29.000Z</time></trkpt>
        <trkpt lat="29.568973" lon="103.44036"><ele>537.5934</ele><time>2025-09-11T20:13:37.000Z</time></trkpt>
        <trkpt lat="29.568944" lon="103.440255"><ele>538.17694</ele><time>2025-09-11T20:13:45.000Z</time></trkpt>
        <trkpt lat="29.568885" lon="103.440161"><ele>538.70026</ele><time>2025-09-11T20:13:53.000Z</time></trkpt>
        <trkpt lat="29.568818" lon="103.440083"><ele>541.61383</ele><time>2025-09-11T20:14:01.000Z</time></trkpt>
        <trkpt lat="29.568754" lon="103.440003"><ele>543.16437</ele><time>2025-09-11T20:14:09.000Z</time></trkpt>
        <trkpt lat="29.568691" lon="103.439915"><ele>543.6904</ele><time>2025-09-11T20:14:17.000Z</time></trkpt>
        <trkpt lat="29.568625" lon="103.439832"><ele>545.0384</ele><time>2025-09-11T20:14:24.000Z</time></trkpt>
        <trkpt lat="29.568564" lon="103.439745"><ele>548.0969</ele><time>2025-09-11T20:14:32.000Z</time></trkpt>
        <trkpt lat="29.568521" lon="103.439651"><ele>548.5534</ele><time>2025-09-11T20:14:40.000Z</time></trkpt>
        <trkpt lat="29.56846" lon="103.439575"><ele>548.64166</ele><time>2025-09-11T20:14:47.000Z</time></trkpt>
        <trkpt lat="29.568394" lon="103.439489"><ele>547.87933</ele><time>2025-09-11T20:14:54.000Z</time></trkpt>
        <trkpt lat="29.568318" lon="103.439414"><ele>549.1626</ele><time>2025-09-11T20:15:02.000Z</time></trkpt>
        <trkpt lat="29.568242" lon="103.439344"><ele>548.66547</ele><time>2025-09-11T20:15:10.000Z</time></trkpt>
        <trkpt lat="29.568165" lon="103.439281"><ele>549.86865</ele><time>2025-09-11T20:15:17.000Z</time></trkpt>
        <trkpt lat="29.568103" lon="103.439197"><ele>550.2522</ele><time>2025-09-11T20:15:24.000Z</time></trkpt>
        <trkpt lat="29.568031" lon="103.43911"><ele>550.665</ele><time>2025-09-11T20:15:32.000Z</time></trkpt>
        <trkpt lat="29.567979" lon="103.439022"><ele>550.58594</ele><time>2025-09-11T20:15:39.000Z</time></trkpt>
        <trkpt lat="29.567896" lon="103.438947"><ele>551.9651</ele><time>2025-09-11T20:15:48.000Z</time></trkpt>
        <trkpt lat="29.567827" lon="103.438873"><ele>553.44586</ele><time>2025-09-11T20:15:56.000Z</time></trkpt>
        <trkpt lat="29.567755" lon="103.438798"><ele>553.83575</ele><time>2025-09-11T20:16:04.000Z</time></trkpt>
        <trkpt lat="29.567702" lon="103.438697"><ele>553.5861</ele><time>2025-09-11T20:16:11.000Z</time></trkpt>
        <trkpt lat="29.567664" lon="103.438594"><ele>553.39136</ele><time>2025-09-11T20:16:17.000Z</time></trkpt>
        <trkpt lat="29.567604" lon="103.438516"><ele>551.5184</ele><time>2025-09-11T20:16:24.000Z</time></trkpt>
        <trkpt lat="29.567542" lon="103.438431"><ele>552.0087</ele><time>2025-09-11T20:16:33.000Z</time></trkpt>
        <trkpt lat="29.567464" lon="103.438373"><ele>551.8385</ele><time>2025-09-11T20:16:42.000Z</time></trkpt>
        <trkpt lat="29.567408" lon="103.438276"><ele>553.0378</ele><time>2025-09-11T20:16:51.000Z</time></trkpt>
        <trkpt lat="29.567358" lon="103.438188"><ele>553.1938</ele><time>2025-09-11T20:16:59.000Z</time></trkpt>
        <trkpt lat="29.567304" lon="103.43809"><ele>554.51355</ele><time>2025-09-11T20:17:07.000Z</time></trkpt>
        <trkpt lat="29.567244" lon="103.438011"><ele>556.8295</ele><time>2025-09-11T20:17:14.000Z</time></trkpt>
        <trkpt lat="29.567179" lon="103.437934"><ele>558.3746</ele><time>2025-09-11T20:17:22.000Z</time></trkpt>
        <trkpt lat="29.567123" lon="103.437844"><ele>559.1316</ele><time>2025-09-11T20:17:31.000Z</time></trkpt>
        <trkpt lat="29.567064" lon="103.437759"><ele>561.4934</ele><time>2025-09-11T20:17:39.000Z</time></trkpt>
        <trkpt lat="29.567017" lon="103.437659"><ele>562.9964</ele><time>2025-09-11T20:17:47.000Z</time></trkpt>
        <trkpt lat="29.56697" lon="103.437566"><ele>565.1384</ele><time>2025-09-11T20:17:55.000Z</time></trkpt>
        <trkpt lat="29.566899" lon="103.437473"><ele>565.4407</ele><time>2025-09-11T20:18:04.000Z</time></trkpt>
        <trkpt lat="29.566849" lon="103.437384"><ele>564.31165</ele><time>2025-09-11T20:18:12.000Z</time></trkpt>
        <trkpt lat="29.5668" lon="103.437287"><ele>564.0367</ele><time>2025-09-11T20:18:21.000Z</time></trkpt>
        <trkpt lat="29.56674" lon="103.437188"><ele>566.68024</ele><time>2025-09-11T20:18:29.000Z</time></trkpt>
        <trkpt lat="29.566679" lon="103.437076"><ele>568.9054</ele><time>2025-09-11T20:18:38.000Z</time></trkpt>
        <trkpt lat="29.566615" lon="103.437001"><ele>570.49585</ele><time>2025-09-11T20:18:48.000Z</time></trkpt>
        <trkpt lat="29.566565" lon="103.436914"><ele>569.2022</ele><time>2025-09-11T20:18:56.000Z</time></trkpt>
        <trkpt lat="29.566519" lon="103.43682"><ele>569.0282</ele><time>2025-09-11T20:19:04.000Z</time></trkpt>
        <trkpt lat="29.566466" lon="103.436726"><ele>571.04065</ele><time>2025-09-11T20:19:12.000Z</time></trkpt>
        <trkpt lat="29.566418" lon="103.436633"><ele>571.93054</ele><time>2025-09-11T20:19:20.000Z</time></trkpt>
        <trkpt lat="29.566387" lon="103.436534"><ele>570.70844</ele><time>2025-09-11T20:19:27.000Z</time></trkpt>
        <trkpt lat="29.566336" lon="103.436448"><ele>570.56305</ele><time>2025-09-11T20:19:34.000Z</time></trkpt>
        <trkpt lat="29.566294" lon="103.436338"><ele>569.67896</ele><time>2025-09-11T20:19:42.000Z</time></trkpt>
        <trkpt lat="29.566268" lon="103.436227"><ele>569.986</ele><time>2025-09-11T20:19:50.000Z</time></trkpt>
        <trkpt lat="29.566205" lon="103.436144"><ele>569.0014</ele><time>2025-09-11T20:19:57.000Z</time></trkpt>
        <trkpt lat="29.566175" lon="103.436038"><ele>569.89404</ele><time>2025-09-11T20:20:06.000Z</time></trkpt>
        <trkpt lat="29.566157" lon="103.435927"><ele>571.7231</ele><time>2025-09-11T20:20:15.000Z</time></trkpt>
        <trkpt lat="29.566121" lon="103.435824"><ele>569.8957</ele><time>2025-09-11T20:20:23.000Z</time></trkpt>
        <trkpt lat="29.56608" lon="103.435732"><ele>572.67316</ele><time>2025-09-11T20:20:30.000Z</time></trkpt>
        <trkpt lat="29.566037" lon="103.435621"><ele>574.5421</ele><time>2025-09-11T20:20:40.000Z</time></trkpt>
        <trkpt lat="29.566017" lon="103.435504"><ele>573.273</ele><time>2025-09-11T20:20:48.000Z</time></trkpt>
        <trkpt lat="29.565994" lon="103.435402"><ele>574.72705</ele><time>2025-09-11T20:20:58.000Z</time></trkpt>
        <trkpt lat="29.56595" lon="103.435299"><ele>574.6929</ele><time>2025-09-11T20:21:07.000Z</time></trkpt>
        <trkpt lat="29.565911" lon="103.435194"><ele>575.8792</ele><time>2025-09-11T20:21:16.000Z</time></trkpt>
        <trkpt lat="29.565855" lon="103.435102"><ele>578.15027</ele><time>2025-09-11T20:21:29.000Z</time></trkpt>
        <trkpt lat="29.565789" lon="103.435032"><ele>579.7663</ele><time>2025-09-11T20:21:38.000Z</time></trkpt>
        <trkpt lat="29.565713" lon="103.43497"><ele>581.9095</ele><time>2025-09-11T20:21:49.000Z</time></trkpt>
        <trkpt lat="29.565639" lon="103.434892"><ele>583.56433</ele><time>2025-09-11T20:21:58.000Z</time></trkpt>
        <trkpt lat="29.565579" lon="103.434814"><ele>583.8476</ele><time>2025-09-11T20:22:07.000Z</time></trkpt>
        <trkpt lat="29.565511" lon="103.434741"><ele>583.4836</ele><time>2025-09-11T20:22:17.000Z</time></trkpt>
        <trkpt lat="29.5655" lon="103.434636"><ele>583.1268</ele><time>2025-09-11T20:22:26.000Z</time></trkpt>
        <trkpt lat="29.565509" lon="103.434521"><ele>584.9722</ele><time>2025-09-11T20:22:34.000Z</time></trkpt>
        <trkpt lat="29.565549" lon="103.434422"><ele>584.1752</ele><time>2025-09-11T20:22:44.000Z</time></trkpt>
        <trkpt lat="29.565676" lon="103.434272"><ele>587.4253</ele><time>2025-09-11T20:24:16.000Z</time></trkpt>
        <trkpt lat="29.56571" lon="103.434174"><ele>588.2417</ele><time>2025-09-11T20:24:25.000Z</time></trkpt>
        <trkpt lat="29.565713" lon="103.434069"><ele>589.29333</ele><time>2025-09-11T20:24:34.000Z</time></trkpt>
        <trkpt lat="29.565697" lon="103.433962"><ele>591.08417</ele><time>2025-09-11T20:24:44.000Z</time></trkpt>
        <trkpt lat="29.565675" lon="103.433846"><ele>593.03674</ele><time>2025-09-11T20:24:54.000Z</time></trkpt>
        <trkpt lat="29.565695" lon="103.433741"><ele>592.98413</ele><time>2025-09-11T20:25:04.000Z</time></trkpt>
        <trkpt lat="29.565717" lon="103.433637"><ele>592.6731</ele><time>2025-09-11T20:25:13.000Z</time></trkpt>
        <trkpt lat="29.565716" lon="103.433528"><ele>592.00543</ele><time>2025-09-11T20:25:21.000Z</time></trkpt>
        <trkpt lat="29.565706" lon="103.433411"><ele>592.14996</ele><time>2025-09-11T20:25:29.000Z</time></trkpt>
        <trkpt lat="29.565715" lon="103.433301"><ele>594.6022</ele><time>2025-09-11T20:25:39.000Z</time></trkpt>
        <trkpt lat="29.565692" lon="103.433194"><ele>595.1363</ele><time>2025-09-11T20:25:46.000Z</time></trkpt>
        <trkpt lat="29.565709" lon="103.433083"><ele>596.33496</ele><time>2025-09-11T20:25:54.000Z</time></trkpt>
        <trkpt lat="29.565659" lon="103.432997"><ele>596.98834</ele><time>2025-09-11T20:26:10.000Z</time></trkpt>
        <trkpt lat="29.565584" lon="103.432932"><ele>596.8616</ele><time>2025-09-11T20:26:23.000Z</time></trkpt>
        <trkpt lat="29.565563" lon="103.432819"><ele>597.9325</ele><time>2025-09-11T20:26:33.000Z</time></trkpt>
        <trkpt lat="29.565565" lon="103.432715"><ele>598.4688</ele><time>2025-09-11T20:26:41.000Z</time></trkpt>
        <trkpt lat="29.565568" lon="103.432599"><ele>600.5075</ele><time>2025-09-11T20:26:49.000Z</time></trkpt>
        <trkpt lat="29.565536" lon="103.432493"><ele>600.91266</ele><time>2025-09-11T20:26:56.000Z</time></trkpt>
        <trkpt lat="29.565446" lon="103.432427"><ele>600.5497</ele><time>2025-09-11T20:27:03.000Z</time></trkpt>
        <trkpt lat="29.565403" lon="103.43233"><ele>600.93634</ele><time>2025-09-11T20:27:14.000Z</time></trkpt>
        <trkpt lat="29.565346" lon="103.43225"><ele>603.3343</ele><time>2025-09-11T20:27:22.000Z</time></trkpt>
        <trkpt lat="29.565306" lon="103.432156"><ele>607.11206</ele><time>2025-09-11T20:27:32.000Z</time></trkpt>
        <trkpt lat="29.565299" lon="103.432052"><ele>605.70276</ele><time>2025-09-11T20:27:41.000Z</time></trkpt>
        <trkpt lat="29.56527" lon="103.43195"><ele>605.2135</ele><time>2025-09-11T20:27:50.000Z</time></trkpt>
        <trkpt lat="29.565295" lon="103.431838"><ele>605.22473</ele><time>2025-09-11T20:27:58.000Z</time></trkpt>
        <trkpt lat="29.565336" lon="103.431739"><ele>607.44543</ele><time>2025-09-11T20:28:06.000Z</time></trkpt>
        <trkpt lat="29.565371" lon="103.431643"><ele>609.1312</ele><time>2025-09-11T20:28:16.000Z</time></trkpt>
        <trkpt lat="29.565393" lon="103.431535"><ele>610.74164</ele><time>2025-09-11T20:28:25.000Z</time></trkpt>
        <trkpt lat="29.5654" lon="103.43143"><ele>613.1052</ele><time>2025-09-11T20:28:35.000Z</time></trkpt>
        <trkpt lat="29.565443" lon="103.431327"><ele>618.96014</ele><time>2025-09-11T20:28:48.000Z</time></trkpt>
        <trkpt lat="29.565468" lon="103.431207"><ele>620.7715</ele><time>2025-09-11T20:28:57.000Z</time></trkpt>
        <trkpt lat="29.565483" lon="103.431102"><ele>620.411</ele><time>2025-09-11T20:29:08.000Z</time></trkpt>
        <trkpt lat="29.565455" lon="103.430998"><ele>622.02094</ele><time>2025-09-11T20:29:20.000Z</time></trkpt>
        <trkpt lat="29.565376" lon="103.430942"><ele>625.3847</ele><time>2025-09-11T20:29:33.000Z</time></trkpt>
        <trkpt lat="29.565318" lon="103.430843"><ele>623.7511</ele><time>2025-09-11T20:29:41.000Z</time></trkpt>
        <trkpt lat="29.565292" lon="103.430729"><ele>622.735</ele><time>2025-09-11T20:29:48.000Z</time></trkpt>
        <trkpt lat="29.565312" lon="103.430628"><ele>623.4998</ele><time>2025-09-11T20:30:00.000Z</time></trkpt>
        <trkpt lat="29.565276" lon="103.430525"><ele>624.05505</ele><time>2025-09-11T20:30:10.000Z</time></trkpt>
        <trkpt lat="29.565263" lon="103.430419"><ele>624.64197</ele><time>2025-09-11T20:30:19.000Z</time></trkpt>
        <trkpt lat="29.565259" lon="103.430309"><ele>625.36566</ele><time>2025-09-11T20:30:28.000Z</time></trkpt>
        <trkpt lat="29.565254" lon="103.430201"><ele>626.5291</ele><time>2025-09-11T20:30:37.000Z</time></trkpt>
        <trkpt lat="29.565241" lon="103.430095"><ele>626.6923</ele><time>2025-09-11T20:30:46.000Z</time></trkpt>
        <trkpt lat="29.565224" lon="103.429985"><ele>627.6902</ele><time>2025-09-11T20:30:55.000Z</time></trkpt>
        <trkpt lat="29.565176" lon="103.429882"><ele>629.39655</ele><time>2025-09-11T20:31:04.000Z</time></trkpt>
        <trkpt lat="29.565147" lon="103.429779"><ele>630.6654</ele><time>2025-09-11T20:31:14.000Z</time></trkpt>
        <trkpt lat="29.565081" lon="103.429695"><ele>633.4148</ele><time>2025-09-11T20:31:24.000Z</time></trkpt>
        <trkpt lat="29.565025" lon="103.429606"><ele>633.61</ele><time>2025-09-11T20:31:34.000Z</time></trkpt>
        <trkpt lat="29.564977" lon="103.429508"><ele>633.8893</ele><time>2025-09-11T20:31:43.000Z</time></trkpt>
        <trkpt lat="29.564936" lon="103.429414"><ele>633.8801</ele><time>2025-09-11T20:31:50.000Z</time></trkpt>
        <trkpt lat="29.564919" lon="103.429309"><ele>632.10895</ele><time>2025-09-11T20:31:57.000Z</time></trkpt>
        <trkpt lat="29.564912" lon="103.429202"><ele>631.66</ele><time>2025-09-11T20:32:06.000Z</time></trkpt>
        <trkpt lat="29.564867" lon="103.429102"><ele>634.7934</ele><time>2025-09-11T20:32:14.000Z</time></trkpt>
        <trkpt lat="29.56486" lon="103.428984"><ele>638.69806</ele><time>2025-09-11T20:32:22.000Z</time></trkpt>
        <trkpt lat="29.564839" lon="103.428882"><ele>640.7817</ele><time>2025-09-11T20:32:30.000Z</time></trkpt>
        <trkpt lat="29.564829" lon="103.428767"><ele>646.3526</ele><time>2025-09-11T20:32:38.000Z</time></trkpt>
        <trkpt lat="29.564839" lon="103.428648"><ele>650.5795</ele><time>2025-09-11T20:32:46.000Z</time></trkpt>
        <trkpt lat="29.564825" lon="103.428537"><ele>652.35486</ele><time>2025-09-11T20:32:54.000Z</time></trkpt>
        <trkpt lat="29.56485" lon="103.428423"><ele>657.0771</ele><time>2025-09-11T20:33:04.000Z</time></trkpt>
        <trkpt lat="29.56491" lon="103.428344"><ele>659.3803</ele><time>2025-09-11T20:33:12.000Z</time></trkpt>
        <trkpt lat="29.564995" lon="103.428302"><ele>662.8326</ele><time>2025-09-11T20:33:20.000Z</time></trkpt>
        <trkpt lat="29.565063" lon="103.428231"><ele>663.78735</ele><time>2025-09-11T20:33:27.000Z</time></trkpt>
        <trkpt lat="29.565133" lon="103.428151"><ele>665.64935</ele><time>2025-09-11T20:33:34.000Z</time></trkpt>
        <trkpt lat="29.565225" lon="103.428122"><ele>667.4208</ele><time>2025-09-11T20:33:40.000Z</time></trkpt>
        <trkpt lat="29.565298" lon="103.428056"><ele>672.0555</ele><time>2025-09-11T20:33:52.000Z</time></trkpt>
        <trkpt lat="29.565368" lon="103.427984"><ele>674.90045</ele><time>2025-09-11T20:34:01.000Z</time></trkpt>
        <trkpt lat="29.56541" lon="103.427855"><ele>672.61847</ele><time>2025-09-11T20:34:06.000Z</time></trkpt>
        <trkpt lat="29.565412" lon="103.427746"><ele>672.7788</ele><time>2025-09-11T20:34:19.000Z</time></trkpt>
        <trkpt lat="29.565394" lon="103.427629"><ele>673.65985</ele><time>2025-09-11T20:34:26.000Z</time></trkpt>
        <trkpt lat="29.565368" lon="103.427525"><ele>672.9982</ele><time>2025-09-11T20:34:35.000Z</time></trkpt>
        <trkpt lat="29.565354" lon="103.427417"><ele>672.4653</ele><time>2025-09-11T20:34:45.000Z</time></trkpt>
        <trkpt lat="29.565343" lon="103.427304"><ele>673.6127</ele><time>2025-09-11T20:34:54.000Z</time></trkpt>
        <trkpt lat="29.565364" lon="103.427192"><ele>674.172</ele><time>2025-09-11T20:35:04.000Z</time></trkpt>
        <trkpt lat="29.565276" lon="103.427157"><ele>674.51483</ele><time>2025-09-11T20:35:10.000Z</time></trkpt>
        <trkpt lat="29.565203" lon="103.427089"><ele>674.2476</ele><time>2025-09-11T20:35:18.000Z</time></trkpt>
        <trkpt lat="29.565113" lon="103.427059"><ele>672.8077</ele><time>2025-09-11T20:35:27.000Z</time></trkpt>
        <trkpt lat="29.565026" lon="103.427022"><ele>668.6406</ele><time>2025-09-11T20:35:38.000Z</time></trkpt>
        <trkpt lat="29.564937" lon="103.426996"><ele>668.84576</ele><time>2025-09-11T20:35:47.000Z</time></trkpt>
        <trkpt lat="29.564881" lon="103.426906"><ele>669.87256</ele><time>2025-09-11T20:35:56.000Z</time></trkpt>
        <trkpt lat="29.564887" lon="103.4268"><ele>667.949</ele><time>2025-09-11T20:36:03.000Z</time></trkpt>
        <trkpt lat="29.564926" lon="103.426701"><ele>662.0287</ele><time>2025-09-11T20:36:44.000Z</time></trkpt>
        <trkpt lat="29.564951" lon="103.426601"><ele>664.4871</ele><time>2025-09-11T20:37:06.000Z</time></trkpt>
        <trkpt lat="29.564993" lon="103.426499"><ele>672.4631</ele><time>2025-09-11T20:37:26.000Z</time></trkpt>
        <trkpt lat="29.564949" lon="103.426407"><ele>681.0101</ele><time>2025-09-11T20:37:52.000Z</time></trkpt>
        <trkpt lat="29.564998" lon="103.426306"><ele>686.5704</ele><time>2025-09-11T20:38:13.000Z</time></trkpt>
        <trkpt lat="29.565034" lon="103.426204"><ele>686.2062</ele><time>2025-09-11T20:38:36.000Z</time></trkpt>
        <trkpt lat="29.565103" lon="103.426123"><ele>690.561</ele><time>2025-09-11T20:39:03.000Z</time></trkpt>
        <trkpt lat="29.565098" lon="103.426013"><ele>695.3772</ele><time>2025-09-11T20:39:45.000Z</time></trkpt>
        <trkpt lat="29.565103" lon="103.425909"><ele>697.7008</ele><time>2025-09-11T20:40:12.000Z</time></trkpt>
        <trkpt lat="29.565146" lon="103.425811"><ele>698.44366</ele><time>2025-09-11T20:40:36.000Z</time></trkpt>
        <trkpt lat="29.565217" lon="103.425743"><ele>697.9198</ele><time>2025-09-11T20:42:17.000Z</time></trkpt>
        <trkpt lat="29.56515" lon="103.425658"><ele>699.3642</ele><time>2025-09-11T20:42:54.000Z</time></trkpt>
        <trkpt lat="29.565012" lon="103.425505"><ele>703.55347</ele><time>2025-09-11T20:43:07.000Z</time></trkpt>
        <trkpt lat="29.564951" lon="103.425425"><ele>703.13477</ele><time>2025-09-11T20:43:15.000Z</time></trkpt>
        <trkpt lat="29.5649" lon="103.425315"><ele>704.0678</ele><time>2025-09-11T20:43:24.000Z</time></trkpt>
        <trkpt lat="29.564828" lon="103.42525"><ele>704.36127</ele><time>2025-09-11T20:43:35.000Z</time></trkpt>
        <trkpt lat="29.564714" lon="103.425205"><ele>706.70685</ele><time>2025-09-11T20:43:43.000Z</time></trkpt>
        <trkpt lat="29.5647" lon="103.425085"><ele>710.0232</ele><time>2025-09-11T20:44:05.000Z</time></trkpt>
        <trkpt lat="29.564728" lon="103.42497"><ele>712.9894</ele><time>2025-09-11T20:44:24.000Z</time></trkpt>
        <trkpt lat="29.564666" lon="103.424879"><ele>716.5171</ele><time>2025-09-11T20:44:38.000Z</time></trkpt>
        <trkpt lat="29.564562" lon="103.42488"><ele>716.36163</ele><time>2025-09-11T20:44:41.000Z</time></trkpt>
        <trkpt lat="29.564627" lon="103.424789"><ele>718.18304</ele><time>2025-09-11T20:44:45.000Z</time></trkpt>
        <trkpt lat="29.564567" lon="103.4247"><ele>720.514</ele><time>2025-09-11T20:44:57.000Z</time></trkpt>
        <trkpt lat="29.564651" lon="103.42462"><ele>723.7581</ele><time>2025-09-11T20:45:07.000Z</time></trkpt>
        <trkpt lat="29.564714" lon="103.424497"><ele>724.11505</ele><time>2025-09-11T20:45:11.000Z</time></trkpt>
        <trkpt lat="29.564607" lon="103.424477"><ele>725.36597</ele><time>2025-09-11T20:45:24.000Z</time></trkpt>
        <trkpt lat="29.564504" lon="103.424543"><ele>724.4871</ele><time>2025-09-11T20:45:30.000Z</time></trkpt>
        <trkpt lat="29.564519" lon="103.424431"><ele>726.07275</ele><time>2025-09-11T20:45:37.000Z</time></trkpt>
        <trkpt lat="29.564592" lon="103.424362"><ele>730.51556</ele><time>2025-09-11T20:45:50.000Z</time></trkpt>
        <trkpt lat="29.564547" lon="103.424264"><ele>735.66675</ele><time>2025-09-11T20:46:17.000Z</time></trkpt>
        <trkpt lat="29.56452" lon="103.424162"><ele>739.5843</ele><time>2025-09-11T20:46:35.000Z</time></trkpt>
        <trkpt lat="29.564474" lon="103.424068"><ele>739.41547</ele><time>2025-09-11T20:46:50.000Z</time></trkpt>
        <trkpt lat="29.564443" lon="103.423962"><ele>738.36444</ele><time>2025-09-11T20:47:10.000Z</time></trkpt>
        <trkpt lat="29.564423" lon="103.423858"><ele>738.85187</ele><time>2025-09-11T20:47:23.000Z</time></trkpt>
        <trkpt lat="29.56437" lon="103.423738"><ele>740.7903</ele><time>2025-09-11T20:48:00.000Z</time></trkpt>
        <trkpt lat="29.56437" lon="103.423624"><ele>745.06836</ele><time>2025-09-11T20:48:16.000Z</time></trkpt>
        <trkpt lat="29.564389" lon="103.42352"><ele>747.57324</ele><time>2025-09-11T20:48:23.000Z</time></trkpt>
        <trkpt lat="29.564414" lon="103.423417"><ele>749.7461</ele><time>2025-09-11T20:48:37.000Z</time></trkpt>
        <trkpt lat="29.564457" lon="103.423326"><ele>753.5074</ele><time>2025-09-11T20:48:55.000Z</time></trkpt>
        <trkpt lat="29.564485" lon="103.423212"><ele>757.84924</ele><time>2025-09-11T20:49:19.000Z</time></trkpt>
        <trkpt lat="29.564468" lon="103.423091"><ele>761.72986</ele><time>2025-09-11T20:49:37.000Z</time></trkpt>
        <trkpt lat="29.564532" lon="103.423018"><ele>768.81116</ele><time>2025-09-11T20:50:16.000Z</time></trkpt>
        <trkpt lat="29.564525" lon="103.422869"><ele>773.07513</ele><time>2025-09-11T20:50:41.000Z</time></trkpt>
        <trkpt lat="29.564438" lon="103.422896"><ele>770.8347</ele><time>2025-09-11T20:50:48.000Z</time></trkpt>
        <trkpt lat="29.564456" lon="103.422793"><ele>769.7269</ele><time>2025-09-11T20:51:12.000Z</time></trkpt>
        <trkpt lat="29.56443" lon="103.422684"><ele>773.10394</ele><time>2025-09-11T20:51:30.000Z</time></trkpt>
        <trkpt lat="29.564399" lon="103.422579"><ele>773.5851</ele><time>2025-09-11T20:52:04.000Z</time></trkpt>
        <trkpt lat="29.564405" lon="103.422473"><ele>772.6889</ele><time>2025-09-11T20:52:30.000Z</time></trkpt>
        <trkpt lat="29.564376" lon="103.422373"><ele>772.8533</ele><time>2025-09-11T20:53:04.000Z</time></trkpt>
        <trkpt lat="29.56439" lon="103.422261"><ele>777.98883</ele><time>2025-09-11T20:53:34.000Z</time></trkpt>
        <trkpt lat="29.564365" lon="103.422148"><ele>781.1859</ele><time>2025-09-11T20:53:51.000Z</time></trkpt>
        <trkpt lat="29.564364" lon="103.422043"><ele>785.81354</ele><time>2025-09-11T20:54:29.000Z</time></trkpt>
        <trkpt lat="29.564453" lon="103.421973"><ele>791.17816</ele><time>2025-09-11T20:54:56.000Z</time></trkpt>
        <trkpt lat="29.56435" lon="103.421926"><ele>790.50037</ele><time>2025-09-11T20:55:16.000Z</time></trkpt>
        <trkpt lat="29.564306" lon="103.421824"><ele>793.1582</ele><time>2025-09-11T20:55:25.000Z</time></trkpt>
        <trkpt lat="29.564372" lon="103.421753"><ele>798.1311</ele><time>2025-09-11T20:55:44.000Z</time></trkpt>
        <trkpt lat="29.564326" lon="103.421648"><ele>804.46606</ele><time>2025-09-11T20:56:41.000Z</time></trkpt>
        <trkpt lat="29.564306" lon="103.421546"><ele>806.57855</ele><time>2025-09-11T20:57:06.000Z</time></trkpt>
        <trkpt lat="29.564279" lon="103.421439"><ele>813.76715</ele><time>2025-09-11T20:57:33.000Z</time></trkpt>
        <trkpt lat="29.564289" lon="103.421332"><ele>815.81946</ele><time>2025-09-11T20:57:46.000Z</time></trkpt>
        <trkpt lat="29.564382" lon="103.421342"><ele>815.9327</ele><time>2025-09-11T20:57:54.000Z</time></trkpt>
        <trkpt lat="29.564465" lon="103.421283"><ele>814.10895</ele><time>2025-09-11T20:58:07.000Z</time></trkpt>
        <trkpt lat="29.564531" lon="103.421206"><ele>814.11975</ele><time>2025-09-11T20:58:24.000Z</time></trkpt>
        <trkpt lat="29.564576" lon="103.421113"><ele>818.1285</ele><time>2025-09-11T20:58:47.000Z</time></trkpt>
        <trkpt lat="29.56463" lon="103.421029"><ele>821.7157</ele><time>2025-09-11T20:59:07.000Z</time></trkpt>
        <trkpt lat="29.564732" lon="103.421064"><ele>820.7477</ele><time>2025-09-11T20:59:14.000Z</time></trkpt>
        <trkpt lat="29.564756" lon="103.421183"><ele>817.3522</ele><time>2025-09-11T20:59:22.000Z</time></trkpt>
        <trkpt lat="29.564826" lon="103.42125"><ele>818.0915</ele><time>2025-09-11T20:59:40.000Z</time></trkpt>
        <trkpt lat="29.564884" lon="103.421331"><ele>821.56213</ele><time>2025-09-11T20:59:55.000Z</time></trkpt>
        <trkpt lat="29.564976" lon="103.421329"><ele>824.9672</ele><time>2025-09-11T21:00:22.000Z</time></trkpt>
        <trkpt lat="29.565066" lon="103.421313"><ele>828.866</ele><time>2025-09-11T21:00:57.000Z</time></trkpt>
        <trkpt lat="29.565157" lon="103.421319"><ele>831.2326</ele><time>2025-09-11T21:01:20.000Z</time></trkpt>
        <trkpt lat="29.56522" lon="103.421242"><ele>832.7324</ele><time>2025-09-11T21:01:40.000Z</time></trkpt>
        <trkpt lat="29.565308" lon="103.421207"><ele>840.9526</ele><time>2025-09-11T21:02:04.000Z</time></trkpt>
        <trkpt lat="29.565337" lon="103.421311"><ele>835.06573</ele><time>2025-09-11T21:02:53.000Z</time></trkpt>
        <trkpt lat="29.565368" lon="103.421208"><ele>835.86163</ele><time>2025-09-11T21:03:17.000Z</time></trkpt>
        <trkpt lat="29.565408" lon="103.421301"><ele>833.42365</ele><time>2025-09-11T21:05:08.000Z</time></trkpt>
        <trkpt lat="29.565348" lon="103.421221"><ele>838.1978</ele><time>2025-09-11T21:06:13.000Z</time></trkpt>
        <trkpt lat="29.565426" lon="103.421144"><ele>837.57306</ele><time>2025-09-11T21:06:27.000Z</time></trkpt>
        <trkpt lat="29.565521" lon="103.421106"><ele>838.104</ele><time>2025-09-11T21:06:36.000Z</time></trkpt>
        <trkpt lat="29.56561" lon="103.42108"><ele>839.0914</ele><time>2025-09-11T21:06:42.000Z</time></trkpt>
        <trkpt lat="29.565712" lon="103.421074"><ele>841.12604</ele><time>2025-09-11T21:06:51.000Z</time></trkpt>
        <trkpt lat="29.565804" lon="103.421092"><ele>843.13763</ele><time>2025-09-11T21:06:59.000Z</time></trkpt>
        <trkpt lat="29.565898" lon="103.421095"><ele>848.9361</ele><time>2025-09-11T21:07:19.000Z</time></trkpt>
        <trkpt lat="29.565994" lon="103.421103"><ele>850.5723</ele><time>2025-09-11T21:07:37.000Z</time></trkpt>
        <trkpt lat="29.566084" lon="103.421051"><ele>852.86163</ele><time>2025-09-11T21:07:51.000Z</time></trkpt>
        <trkpt lat="29.566175" lon="103.421019"><ele>852.14923</ele><time>2025-09-11T21:08:10.000Z</time></trkpt>
        <trkpt lat="29.566183" lon="103.420904"><ele>852.13837</ele><time>2025-09-11T21:08:24.000Z</time></trkpt>
        <trkpt lat="29.566257" lon="103.420838"><ele>851.2015</ele><time>2025-09-11T21:08:31.000Z</time></trkpt>
        <trkpt lat="29.566325" lon="103.420646"><ele>849.20294</ele><time>2025-09-11T21:09:42.000Z</time></trkpt>
        <trkpt lat="29.56636" lon="103.420416"><ele>848.5464</ele><time>2025-09-11T21:09:58.000Z</time></trkpt>
        <trkpt lat="29.56643" lon="103.420341"><ele>847.3826</ele><time>2025-09-11T21:10:07.000Z</time></trkpt>
        <trkpt lat="29.566501" lon="103.420265"><ele>847.94366</ele><time>2025-09-11T21:10:13.000Z</time></trkpt>
        <trkpt lat="29.566566" lon="103.42017"><ele>848.8331</ele><time>2025-09-11T21:10:23.000Z</time></trkpt>
        <trkpt lat="29.566603" lon="103.420062"><ele>849.83</ele><time>2025-09-11T21:10:35.000Z</time></trkpt>
        <trkpt lat="29.566639" lon="103.41995"><ele>851.1241</ele><time>2025-09-11T21:10:44.000Z</time></trkpt>
        <trkpt lat="29.566632" lon="103.419836"><ele>854.3664</ele><time>2025-09-11T21:10:56.000Z</time></trkpt>
        <trkpt lat="29.566732" lon="103.419815"><ele>854.67206</ele><time>2025-09-11T21:11:04.000Z</time></trkpt>
        <trkpt lat="29.566848" lon="103.419831"><ele>857.1542</ele><time>2025-09-11T21:11:15.000Z</time></trkpt>
        <trkpt lat="29.56684" lon="103.419936"><ele>857.99744</ele><time>2025-09-11T21:11:38.000Z</time></trkpt>
        <trkpt lat="29.566938" lon="103.419926"><ele>858.7929</ele><time>2025-09-11T21:11:47.000Z</time></trkpt>
        <trkpt lat="29.566989" lon="103.420022"><ele>865.6443</ele><time>2025-09-11T21:12:13.000Z</time></trkpt>
        <trkpt lat="29.566997" lon="103.420139"><ele>865.56714</ele><time>2025-09-11T21:12:36.000Z</time></trkpt>
        <trkpt lat="29.567009" lon="103.420244"><ele>865.5859</ele><time>2025-09-11T21:12:46.000Z</time></trkpt>
        <trkpt lat="29.56706" lon="103.42036"><ele>866.07733</ele><time>2025-09-11T21:13:03.000Z</time></trkpt>
        <trkpt lat="29.567147" lon="103.420418"><ele>868.30945</ele><time>2025-09-11T21:13:24.000Z</time></trkpt>
        <trkpt lat="29.567238" lon="103.420422"><ele>876.2655</ele><time>2025-09-11T21:13:48.000Z</time></trkpt>
        <trkpt lat="29.56733" lon="103.420421"><ele>879.89856</ele><time>2025-09-11T21:14:11.000Z</time></trkpt>
        <trkpt lat="29.567426" lon="103.420408"><ele>885.9413</ele><time>2025-09-11T21:14:53.000Z</time></trkpt>
        <trkpt lat="29.567501" lon="103.420342"><ele>888.30194</ele><time>2025-09-11T21:16:17.000Z</time></trkpt>
        <trkpt lat="29.567594" lon="103.420318"><ele>892.554</ele><time>2025-09-11T21:16:37.000Z</time></trkpt>
        <trkpt lat="29.567682" lon="103.420253"><ele>896.5348</ele><time>2025-09-11T21:17:02.000Z</time></trkpt>
        <trkpt lat="29.567768" lon="103.420205"><ele>898.40686</ele><time>2025-09-11T21:17:21.000Z</time></trkpt>
        <trkpt lat="29.567851" lon="103.420152"><ele>900.4562</ele><time>2025-09-11T21:17:46.000Z</time></trkpt>
        <trkpt lat="29.567947" lon="103.420129"><ele>905.3833</ele><time>2025-09-11T21:18:05.000Z</time></trkpt>
        <trkpt lat="29.568026" lon="103.420062"><ele>910.4071</ele><time>2025-09-11T21:18:33.000Z</time></trkpt>
        <trkpt lat="29.568116" lon="103.420044"><ele>917.3214</ele><time>2025-09-11T21:19:16.000Z</time></trkpt>
        <trkpt lat="29.568207" lon="103.420047"><ele>918.3975</ele><time>2025-09-11T21:19:34.000Z</time></trkpt>
        <trkpt lat="29.568297" lon="103.420039"><ele>921.16534</ele><time>2025-09-11T21:19:55.000Z</time></trkpt>
        <trkpt lat="29.568397" lon="103.420007"><ele>926.2618</ele><time>2025-09-11T21:20:30.000Z</time></trkpt>
        <trkpt lat="29.568488" lon="103.420026"><ele>928.1231</ele><time>2025-09-11T21:21:05.000Z</time></trkpt>
        <trkpt lat="29.568578" lon="103.42"><ele>929.47375</ele><time>2025-09-11T21:21:18.000Z</time></trkpt>
        <trkpt lat="29.568669" lon="103.420014"><ele>934.0988</ele><time>2025-09-11T21:21:45.000Z</time></trkpt>
        <trkpt lat="29.568754" lon="103.419966"><ele>937.85126</ele><time>2025-09-11T21:22:04.000Z</time></trkpt>
        <trkpt lat="29.568829" lon="103.42004"><ele>931.0695</ele><time>2025-09-11T21:24:32.000Z</time></trkpt>
        <trkpt lat="29.568839" lon="103.419934"><ele>931.7677</ele><time>2025-09-11T21:24:45.000Z</time></trkpt>
        <trkpt lat="29.568916" lon="103.419879"><ele>935.1974</ele><time>2025-09-11T21:25:28.000Z</time></trkpt>
        <trkpt lat="29.569092" lon="103.4198"><ele>935.3633</ele><time>2025-09-11T21:25:43.000Z</time></trkpt>
        <trkpt lat="29.56919" lon="103.419764"><ele>933.6383</ele><time>2025-09-11T21:25:52.000Z</time></trkpt>
        <trkpt lat="29.56929" lon="103.419721"><ele>933.8238</ele><time>2025-09-11T21:26:05.000Z</time></trkpt>
        <trkpt lat="29.569387" lon="103.419708"><ele>933.9967</ele><time>2025-09-11T21:26:25.000Z</time></trkpt>
        <trkpt lat="29.569466" lon="103.419635"><ele>934.69305</ele><time>2025-09-11T21:27:44.000Z</time></trkpt>
        <trkpt lat="29.569525" lon="103.419529"><ele>937.7605</ele><time>2025-09-11T21:28:07.000Z</time></trkpt>
        <trkpt lat="29.569564" lon="103.419425"><ele>938.48065</ele><time>2025-09-11T21:28:44.000Z</time></trkpt>
        <trkpt lat="29.569682" lon="103.419255"><ele>936.6435</ele><time>2025-09-11T21:29:17.000Z</time></trkpt>
        <trkpt lat="29.569741" lon="103.41917"><ele>936.4216</ele><time>2025-09-11T21:29:26.000Z</time></trkpt>
        <trkpt lat="29.569701" lon="103.419066"><ele>935.58594</ele><time>2025-09-11T21:29:36.000Z</time></trkpt>
        <trkpt lat="29.569699" lon="103.418959"><ele>937.00757</ele><time>2025-09-11T21:29:45.000Z</time></trkpt>
        <trkpt lat="29.569718" lon="103.418851"><ele>937.7646</ele><time>2025-09-11T21:29:53.000Z</time></trkpt>
        <trkpt lat="29.569723" lon="103.418747"><ele>938.25134</ele><time>2025-09-11T21:30:03.000Z</time></trkpt>
        <trkpt lat="29.569763" lon="103.418842"><ele>937.4617</ele><time>2025-09-11T21:30:22.000Z</time></trkpt>
        <trkpt lat="29.569771" lon="103.418731"><ele>935.8758</ele><time>2025-09-11T21:30:54.000Z</time></trkpt>
        <trkpt lat="29.569788" lon="103.418404"><ele>937.793</ele><time>2025-09-11T21:31:28.000Z</time></trkpt>
        <trkpt lat="29.56984" lon="103.41831"><ele>935.7713</ele><time>2025-09-11T21:31:36.000Z</time></trkpt>
        <trkpt lat="29.569833" lon="103.418198"><ele>935.3019</ele><time>2025-09-11T21:31:44.000Z</time></trkpt>
        <trkpt lat="29.569842" lon="103.418073"><ele>934.5393</ele><time>2025-09-11T21:31:50.000Z</time></trkpt>
        <trkpt lat="29.569883" lon="103.417966"><ele>935.53815</ele><time>2025-09-11T21:32:00.000Z</time></trkpt>
        <trkpt lat="29.569943" lon="103.417882"><ele>937.1745</ele><time>2025-09-11T21:32:05.000Z</time></trkpt>
        <trkpt lat="29.570003" lon="103.417799"><ele>934.1312</ele><time>2025-09-11T21:32:12.000Z</time></trkpt>
        <trkpt lat="29.570014" lon="103.417696"><ele>931.9782</ele><time>2025-09-11T21:32:22.000Z</time></trkpt>
        <trkpt lat="29.570007" lon="103.417574"><ele>932.0366</ele><time>2025-09-11T21:32:29.000Z</time></trkpt>
        <trkpt lat="29.569996" lon="103.417472"><ele>932.3727</ele><time>2025-09-11T21:32:35.000Z</time></trkpt>
        <trkpt lat="29.57003" lon="103.41737"><ele>933.67285</ele><time>2025-09-11T21:32:41.000Z</time></trkpt>
        <trkpt lat="29.570085" lon="103.417269"><ele>934.19934</ele><time>2025-09-11T21:32:47.000Z</time></trkpt>
        <trkpt lat="29.570101" lon="103.417166"><ele>932.98596</ele><time>2025-09-11T21:32:57.000Z</time></trkpt>
        <trkpt lat="29.570133" lon="103.417052"><ele>934.16486</ele><time>2025-09-11T21:33:05.000Z</time></trkpt>
        <trkpt lat="29.570257" lon="103.417038"><ele>932.42773</ele><time>2025-09-11T21:33:09.000Z</time></trkpt>
        <trkpt lat="29.57035" lon="103.417044"><ele>928.1003</ele><time>2025-09-11T21:33:20.000Z</time></trkpt>
        <trkpt lat="29.570352" lon="103.416933"><ele>924.2102</ele><time>2025-09-11T21:33:28.000Z</time></trkpt>
        <trkpt lat="29.570333" lon="103.416826"><ele>923.1554</ele><time>2025-09-11T21:33:34.000Z</time></trkpt>
        <trkpt lat="29.570325" lon="103.416717"><ele>922.7995</ele><time>2025-09-11T21:33:40.000Z</time></trkpt>
        <trkpt lat="29.570325" lon="103.416611"><ele>923.65027</ele><time>2025-09-11T21:33:47.000Z</time></trkpt>
        <trkpt lat="29.57033" lon="103.416503"><ele>925.3837</ele><time>2025-09-11T21:33:54.000Z</time></trkpt>
        <trkpt lat="29.570352" lon="103.41639"><ele>926.29315</ele><time>2025-09-11T21:33:59.000Z</time></trkpt>
        <trkpt lat="29.570367" lon="103.416288"><ele>927.2568</ele><time>2025-09-11T21:34:10.000Z</time></trkpt>
        <trkpt lat="29.570479" lon="103.416189"><ele>928.7573</ele><time>2025-09-11T21:34:19.000Z</time></trkpt>
        <trkpt lat="29.570562" lon="103.416129"><ele>928.5763</ele><time>2025-09-11T21:34:26.000Z</time></trkpt>
        <trkpt lat="29.570642" lon="103.416072"><ele>927.84265</ele><time>2025-09-11T21:34:37.000Z</time></trkpt>
        <trkpt lat="29.570702" lon="103.415992"><ele>926.49756</ele><time>2025-09-11T21:34:57.000Z</time></trkpt>
        <trkpt lat="29.570653" lon="103.415892"><ele>924.0439</ele><time>2025-09-11T21:35:26.000Z</time></trkpt>
        <trkpt lat="29.570563" lon="103.41584"><ele>925.6985</ele><time>2025-09-11T21:35:32.000Z</time></trkpt>
        <trkpt lat="29.570471" lon="103.415816"><ele>925.7538</ele><time>2025-09-11T21:35:43.000Z</time></trkpt>
        <trkpt lat="29.570282" lon="103.415561"><ele>926.811</ele><time>2025-09-11T21:36:50.000Z</time></trkpt>
        <trkpt lat="29.570184" lon="103.415541"><ele>927.9737</ele><time>2025-09-11T21:36:57.000Z</time></trkpt>
        <trkpt lat="29.570088" lon="103.415555"><ele>930.215</ele><time>2025-09-11T21:37:10.000Z</time></trkpt>
        <trkpt lat="29.570003" lon="103.415511"><ele>933.4531</ele><time>2025-09-11T21:37:21.000Z</time></trkpt>
        <trkpt lat="29.569926" lon="103.415425"><ele>933.11426</ele><time>2025-09-11T21:37:30.000Z</time></trkpt>
        <trkpt lat="29.569868" lon="103.41533"><ele>933.06287</ele><time>2025-09-11T21:37:38.000Z</time></trkpt>
        <trkpt lat="29.569847" lon="103.415225"><ele>934.31445</ele><time>2025-09-11T21:37:50.000Z</time></trkpt>
        <trkpt lat="29.569841" lon="103.415111"><ele>933.30994</ele><time>2025-09-11T21:37:58.000Z</time></trkpt>
        <trkpt lat="29.569829" lon="103.415005"><ele>932.765</ele><time>2025-09-11T21:38:06.000Z</time></trkpt>
        <trkpt lat="29.569795" lon="103.414895"><ele>932.1699</ele><time>2025-09-11T21:38:14.000Z</time></trkpt>
        <trkpt lat="29.569722" lon="103.414827"><ele>931.2484</ele><time>2025-09-11T21:38:22.000Z</time></trkpt>
        <trkpt lat="29.569655" lon="103.414737"><ele>930.5911</ele><time>2025-09-11T21:38:30.000Z</time></trkpt>
        <trkpt lat="29.569562" lon="103.414759"><ele>934.4476</ele><time>2025-09-11T21:38:38.000Z</time></trkpt>
        <trkpt lat="29.569467" lon="103.414788"><ele>933.305</ele><time>2025-09-11T21:38:46.000Z</time></trkpt>
        <trkpt lat="29.569381" lon="103.414835"><ele>933.3325</ele><time>2025-09-11T21:38:53.000Z</time></trkpt>
        <trkpt lat="29.569294" lon="103.414868"><ele>932.7672</ele><time>2025-09-11T21:38:58.000Z</time></trkpt>
        <trkpt lat="29.569198" lon="103.414857"><ele>931.5757</ele><time>2025-09-11T21:39:03.000Z</time></trkpt>
        <trkpt lat="29.569146" lon="103.414769"><ele>929.7495</ele><time>2025-09-11T21:39:36.000Z</time></trkpt>
        <trkpt lat="29.569083" lon="103.414857"><ele>930.46564</ele><time>2025-09-11T21:40:52.000Z</time></trkpt>
        <trkpt lat="29.569077" lon="103.414974"><ele>930.979</ele><time>2025-09-11T21:41:19.000Z</time></trkpt>
        <trkpt lat="29.569066" lon="103.415082"><ele>930.9718</ele><time>2025-09-11T21:41:33.000Z</time></trkpt>
        <trkpt lat="29.569005" lon="103.415161"><ele>933.2348</ele><time>2025-09-11T21:41:41.000Z</time></trkpt>
        <trkpt lat="29.569023" lon="103.415056"><ele>931.4801</ele><time>2025-09-11T21:42:05.000Z</time></trkpt>
        <trkpt lat="29.569037" lon="103.414954"><ele>931.36664</ele><time>2025-09-11T21:42:12.000Z</time></trkpt>
        <trkpt lat="29.569062" lon="103.414851"><ele>929.3155</ele><time>2025-09-11T21:42:21.000Z</time></trkpt>
        <trkpt lat="29.569089" lon="103.414753"><ele>929.9644</ele><time>2025-09-11T21:42:37.000Z</time></trkpt>
        <trkpt lat="29.5691" lon="103.414649"><ele>929.45386</ele><time>2025-09-11T21:42:46.000Z</time></trkpt>
        <trkpt lat="29.569062" lon="103.414542"><ele>929.1693</ele><time>2025-09-11T21:42:54.000Z</time></trkpt>
        <trkpt lat="29.569026" lon="103.41444"><ele>931.00836</ele><time>2025-09-11T21:43:03.000Z</time></trkpt>
        <trkpt lat="29.569036" lon="103.414335"><ele>932.2713</ele><time>2025-09-11T21:43:11.000Z</time></trkpt>
        <trkpt lat="29.569084" lon="103.414244"><ele>931.4966</ele><time>2025-09-11T21:43:19.000Z</time></trkpt>
        <trkpt lat="29.569067" lon="103.414138"><ele>933.56006</ele><time>2025-09-11T21:43:27.000Z</time></trkpt>
        <trkpt lat="29.569065" lon="103.414025"><ele>929.16156</ele><time>2025-09-11T21:43:40.000Z</time></trkpt>
        <trkpt lat="29.569116" lon="103.413932"><ele>928.9481</ele><time>2025-09-11T21:43:46.000Z</time></trkpt>
        <trkpt lat="29.569133" lon="103.413827"><ele>928.5117</ele><time>2025-09-11T21:43:55.000Z</time></trkpt>
        <trkpt lat="29.569072" lon="103.413745"><ele>928.0946</ele><time>2025-09-11T21:44:04.000Z</time></trkpt>
        <trkpt lat="29.569025" lon="103.413646"><ele>927.93756</ele><time>2025-09-11T21:44:12.000Z</time></trkpt>
        <trkpt lat="29.568981" lon="103.413553"><ele>926.977</ele><time>2025-09-11T21:44:23.000Z</time></trkpt>
        <trkpt lat="29.568954" lon="103.413436"><ele>926.3491</ele><time>2025-09-11T21:44:34.000Z</time></trkpt>
        <trkpt lat="29.56895" lon="103.413331"><ele>923.82263</ele><time>2025-09-11T21:44:41.000Z</time></trkpt>
        <trkpt lat="29.568973" lon="103.413224"><ele>925.28235</ele><time>2025-09-11T21:44:53.000Z</time></trkpt>
        <trkpt lat="29.569032" lon="103.413139"><ele>926.15686</ele><time>2025-09-11T21:45:00.000Z</time></trkpt>
        <trkpt lat="29.569085" lon="103.413038"><ele>923.76666</ele><time>2025-09-11T21:45:09.000Z</time></trkpt>
        <trkpt lat="29.569146" lon="103.412942"><ele>923.1991</ele><time>2025-09-11T21:45:17.000Z</time></trkpt>
        <trkpt lat="29.569197" lon="103.41284"><ele>921.3419</ele><time>2025-09-11T21:45:25.000Z</time></trkpt>
        <trkpt lat="29.569264" lon="103.412757"><ele>921.3754</ele><time>2025-09-11T21:45:34.000Z</time></trkpt>
        <trkpt lat="29.569344" lon="103.412698"><ele>921.2969</ele><time>2025-09-11T21:45:40.000Z</time></trkpt>
        <trkpt lat="29.569343" lon="103.412587"><ele>919.5143</ele><time>2025-09-11T21:45:50.000Z</time></trkpt>
        <trkpt lat="29.569299" lon="103.412494"><ele>917.36334</ele><time>2025-09-11T21:45:59.000Z</time></trkpt>
        <trkpt lat="29.56933" lon="103.412391"><ele>915.1822</ele><time>2025-09-11T21:46:14.000Z</time></trkpt>
        <trkpt lat="29.569325" lon="103.412276"><ele>914.2282</ele><time>2025-09-11T21:46:26.000Z</time></trkpt>
        <trkpt lat="29.569251" lon="103.412211"><ele>913.91785</ele><time>2025-09-11T21:46:51.000Z</time></trkpt>
        <trkpt lat="29.569165" lon="103.41217"><ele>912.0943</ele><time>2025-09-11T21:47:06.000Z</time></trkpt>
        <trkpt lat="29.569065" lon="103.412152"><ele>907.70905</ele><time>2025-09-11T21:47:22.000Z</time></trkpt>
        <trkpt lat="29.568985" lon="103.412082"><ele>908.02844</ele><time>2025-09-11T21:47:34.000Z</time></trkpt>
        <trkpt lat="29.568928" lon="103.411991"><ele>906.0555</ele><time>2025-09-11T21:47:44.000Z</time></trkpt>
        <trkpt lat="29.568869" lon="103.411907"><ele>904.26953</ele><time>2025-09-11T21:47:51.000Z</time></trkpt>
        <trkpt lat="29.568787" lon="103.411858"><ele>901.92145</ele><time>2025-09-11T21:47:58.000Z</time></trkpt>
        <trkpt lat="29.568696" lon="103.411864"><ele>899.8058</ele><time>2025-09-11T21:48:04.000Z</time></trkpt>
        <trkpt lat="29.568605" lon="103.411862"><ele>895.8383</ele><time>2025-09-11T21:48:15.000Z</time></trkpt>
        <trkpt lat="29.568529" lon="103.411789"><ele>893.49854</ele><time>2025-09-11T21:48:26.000Z</time></trkpt>
        <trkpt lat="29.568445" lon="103.411747"><ele>891.62274</ele><time>2025-09-11T21:48:39.000Z</time></trkpt>
        <trkpt lat="29.568412" lon="103.41165"><ele>892.5246</ele><time>2025-09-11T21:48:47.000Z</time></trkpt>
        <trkpt lat="29.568348" lon="103.41157"><ele>892.4066</ele><time>2025-09-11T21:48:54.000Z</time></trkpt>
        <trkpt lat="29.568324" lon="103.411438"><ele>892.85126</ele><time>2025-09-11T21:49:01.000Z</time></trkpt>
        <trkpt lat="29.56836" lon="103.411336"><ele>892.2504</ele><time>2025-09-11T21:49:09.000Z</time></trkpt>
        <trkpt lat="29.568414" lon="103.411227"><ele>890.4965</ele><time>2025-09-11T21:49:17.000Z</time></trkpt>
        <trkpt lat="29.568447" lon="103.411118"><ele>888.28613</ele><time>2025-09-11T21:49:25.000Z</time></trkpt>
        <trkpt lat="29.568455" lon="103.411011"><ele>885.24603</ele><time>2025-09-11T21:49:33.000Z</time></trkpt>
        <trkpt lat="29.568467" lon="103.410904"><ele>882.72235</ele><time>2025-09-11T21:49:40.000Z</time></trkpt>
        <trkpt lat="29.568487" lon="103.410792"><ele>880.4113</ele><time>2025-09-11T21:49:49.000Z</time></trkpt>
        <trkpt lat="29.568538" lon="103.410703"><ele>879.0707</ele><time>2025-09-11T21:49:57.000Z</time></trkpt>
        <trkpt lat="29.568575" lon="103.410599"><ele>879.7161</ele><time>2025-09-11T21:50:05.000Z</time></trkpt>
        <trkpt lat="29.568591" lon="103.410481"><ele>879.0712</ele><time>2025-09-11T21:50:15.000Z</time></trkpt>
        <trkpt lat="29.568596" lon="103.410361"><ele>880.7726</ele><time>2025-09-11T21:50:23.000Z</time></trkpt>
        <trkpt lat="29.5686" lon="103.410248"><ele>882.45935</ele><time>2025-09-11T21:50:29.000Z</time></trkpt>
        <trkpt lat="29.568616" lon="103.410144"><ele>884.9103</ele><time>2025-09-11T21:50:39.000Z</time></trkpt>
        <trkpt lat="29.568606" lon="103.410039"><ele>884.3052</ele><time>2025-09-11T21:50:47.000Z</time></trkpt>
        <trkpt lat="29.568541" lon="103.409956"><ele>883.5025</ele><time>2025-09-11T21:50:55.000Z</time></trkpt>
        <trkpt lat="29.568451" lon="103.409984"><ele>877.1252</ele><time>2025-09-11T21:51:31.000Z</time></trkpt>
        <trkpt lat="29.568361" lon="103.409946"><ele>880.79175</ele><time>2025-09-11T21:51:37.000Z</time></trkpt>
        <trkpt lat="29.568307" lon="103.40985"><ele>880.8461</ele><time>2025-09-11T21:51:47.000Z</time></trkpt>
        <trkpt lat="29.568291" lon="103.409739"><ele>878.6635</ele><time>2025-09-11T21:51:56.000Z</time></trkpt>
        <trkpt lat="29.568231" lon="103.409654"><ele>876.0791</ele><time>2025-09-11T21:52:08.000Z</time></trkpt>
        <trkpt lat="29.568223" lon="103.409548"><ele>872.2007</ele><time>2025-09-11T21:52:22.000Z</time></trkpt>
        <trkpt lat="29.568161" lon="103.409462"><ele>869.30334</ele><time>2025-09-11T21:52:33.000Z</time></trkpt>
        <trkpt lat="29.568103" lon="103.409377"><ele>866.393</ele><time>2025-09-11T21:52:45.000Z</time></trkpt>
        <trkpt lat="29.568037" lon="103.409303"><ele>860.36084</ele><time>2025-09-11T21:52:59.000Z</time></trkpt>
        <trkpt lat="29.567973" lon="103.409215"><ele>856.7772</ele><time>2025-09-11T21:53:08.000Z</time></trkpt>
        <trkpt lat="29.56796" lon="103.409111"><ele>851.86163</ele><time>2025-09-11T21:53:18.000Z</time></trkpt>
        <trkpt lat="29.567911" lon="103.40902"><ele>844.6</ele><time>2025-09-11T21:53:34.000Z</time></trkpt>
        <trkpt lat="29.567864" lon="103.408918"><ele>842.1397</ele><time>2025-09-11T21:53:41.000Z</time></trkpt>
        <trkpt lat="29.56786" lon="103.40881"><ele>838.0829</ele><time>2025-09-11T21:53:58.000Z</time></trkpt>
        <trkpt lat="29.567852" lon="103.408703"><ele>835.1661</ele><time>2025-09-11T21:54:17.000Z</time></trkpt>
        <trkpt lat="29.567793" lon="103.408618"><ele>833.9206</ele><time>2025-09-11T21:54:24.000Z</time></trkpt>
        <trkpt lat="29.56773" lon="103.408523"><ele>830.8906</ele><time>2025-09-11T21:54:36.000Z</time></trkpt>
        <trkpt lat="29.567632" lon="103.408503"><ele>827.40894</ele><time>2025-09-11T21:54:49.000Z</time></trkpt>
        <trkpt lat="29.567597" lon="103.408614"><ele>819.9068</ele><time>2025-09-11T21:55:09.000Z</time></trkpt>
        <trkpt lat="29.567541" lon="103.408698"><ele>819.2113</ele><time>2025-09-11T21:55:16.000Z</time></trkpt>
        <trkpt lat="29.567444" lon="103.408709"><ele>821.59973</ele><time>2025-09-11T21:55:23.000Z</time></trkpt>
        <trkpt lat="29.567348" lon="103.40867"><ele>823.991</ele><time>2025-09-11T21:55:29.000Z</time></trkpt>
        <trkpt lat="29.567269" lon="103.408614"><ele>822.535</ele><time>2025-09-11T21:55:35.000Z</time></trkpt>
        <trkpt lat="29.567191" lon="103.408556"><ele>821.74677</ele><time>2025-09-11T21:55:42.000Z</time></trkpt>
        <trkpt lat="29.567101" lon="103.408512"><ele>820.82886</ele><time>2025-09-11T21:55:50.000Z</time></trkpt>
        <trkpt lat="29.566999" lon="103.408508"><ele>820.0845</ele><time>2025-09-11T21:55:57.000Z</time></trkpt>
        <trkpt lat="29.566896" lon="103.40852"><ele>821.12317</ele><time>2025-09-11T21:56:05.000Z</time></trkpt>
        <trkpt lat="29.566805" lon="103.408529"><ele>821.97394</ele><time>2025-09-11T21:56:13.000Z</time></trkpt>
        <trkpt lat="29.566706" lon="103.408512"><ele>821.4792</ele><time>2025-09-11T21:56:20.000Z</time></trkpt>
        <trkpt lat="29.566667" lon="103.408404"><ele>821.4423</ele><time>2025-09-11T21:56:25.000Z</time></trkpt>
        <trkpt lat="29.566646" lon="103.408293"><ele>819.8045</ele><time>2025-09-11T21:56:33.000Z</time></trkpt>
        <trkpt lat="29.566657" lon="103.408175"><ele>820.0075</ele><time>2025-09-11T21:56:42.000Z</time></trkpt>
        <trkpt lat="29.566686" lon="103.408075"><ele>819.23535</ele><time>2025-09-11T21:56:49.000Z</time></trkpt>
        <trkpt lat="29.566651" lon="103.407974"><ele>818.41174</ele><time>2025-09-11T21:56:59.000Z</time></trkpt>
        <trkpt lat="29.566581" lon="103.407881"><ele>816.7303</ele><time>2025-09-11T21:57:44.000Z</time></trkpt>
        <trkpt lat="29.566587" lon="103.407766"><ele>819.39545</ele><time>2025-09-11T21:57:53.000Z</time></trkpt>
        <trkpt lat="29.566601" lon="103.407657"><ele>820.2465</ele><time>2025-09-11T21:58:01.000Z</time></trkpt>
        <trkpt lat="29.566574" lon="103.407552"><ele>818.48834</ele><time>2025-09-11T21:58:10.000Z</time></trkpt>
        <trkpt lat="29.566509" lon="103.407477"><ele>816.6025</ele><time>2025-09-11T21:58:18.000Z</time></trkpt>
        <trkpt lat="29.566457" lon="103.407379"><ele>816.8277</ele><time>2025-09-11T21:58:24.000Z</time></trkpt>
        <trkpt lat="29.566426" lon="103.407282"><ele>816.3207</ele><time>2025-09-11T21:58:33.000Z</time></trkpt>
        <trkpt lat="29.566411" lon="103.407177"><ele>817.31165</ele><time>2025-09-11T21:58:40.000Z</time></trkpt>
        <trkpt lat="29.566386" lon="103.407077"><ele>813.862</ele><time>2025-09-11T21:58:47.000Z</time></trkpt>
        <trkpt lat="29.566411" lon="103.406964"><ele>814.98694</ele><time>2025-09-11T21:58:54.000Z</time></trkpt>
        <trkpt lat="29.566427" lon="103.406849"><ele>816.48975</ele><time>2025-09-11T21:59:01.000Z</time></trkpt>
        <trkpt lat="29.566514" lon="103.406777"><ele>818.5225</ele><time>2025-09-11T21:59:08.000Z</time></trkpt>
        <trkpt lat="29.566583" lon="103.406696"><ele>818.3706</ele><time>2025-09-11T21:59:19.000Z</time></trkpt>
        <trkpt lat="29.566632" lon="103.406586"><ele>818.6462</ele><time>2025-09-11T21:59:28.000Z</time></trkpt>
        <trkpt lat="29.566709" lon="103.4065"><ele>819.33344</ele><time>2025-09-11T21:59:35.000Z</time></trkpt>
        <trkpt lat="29.566806" lon="103.406453"><ele>819.1294</ele><time>2025-09-11T21:59:42.000Z</time></trkpt>
        <trkpt lat="29.566869" lon="103.406366"><ele>817.5994</ele><time>2025-09-11T21:59:52.000Z</time></trkpt>
        <trkpt lat="29.566918" lon="103.406268"><ele>815.8228</ele><time>2025-09-11T22:00:00.000Z</time></trkpt>
        <trkpt lat="29.566946" lon="103.406169"><ele>814.08594</ele><time>2025-09-11T22:00:07.000Z</time></trkpt>
        <trkpt lat="29.567001" lon="103.406072"><ele>812.0801</ele><time>2025-09-11T22:00:14.000Z</time></trkpt>
        <trkpt lat="29.567059" lon="103.405989"><ele>810.80084</ele><time>2025-09-11T22:00:19.000Z</time></trkpt>
        <trkpt lat="29.567106" lon="103.40589"><ele>807.772</ele><time>2025-09-11T22:00:27.000Z</time></trkpt>
        <trkpt lat="29.567089" lon="103.405787"><ele>808.8243</ele><time>2025-09-11T22:00:34.000Z</time></trkpt>
        <trkpt lat="29.567015" lon="103.405728"><ele>808.20703</ele><time>2025-09-11T22:00:42.000Z</time></trkpt>
        <trkpt lat="29.566942" lon="103.405663"><ele>808.24384</ele><time>2025-09-11T22:00:49.000Z</time></trkpt>
        <trkpt lat="29.566875" lon="103.405584"><ele>808.57007</ele><time>2025-09-11T22:00:57.000Z</time></trkpt>
        <trkpt lat="29.566808" lon="103.405513"><ele>808.1472</ele><time>2025-09-11T22:01:04.000Z</time></trkpt>
        <trkpt lat="29.566763" lon="103.405411"><ele>809.0096</ele><time>2025-09-11T22:01:11.000Z</time></trkpt>
        <trkpt lat="29.566717" lon="103.405318"><ele>810.1901</ele><time>2025-09-11T22:01:18.000Z</time></trkpt>
        <trkpt lat="29.566678" lon="103.405223"><ele>809.5669</ele><time>2025-09-11T22:01:26.000Z</time></trkpt>
        <trkpt lat="29.566693" lon="103.405118"><ele>808.998</ele><time>2025-09-11T22:01:31.000Z</time></trkpt>
        <trkpt lat="29.566777" lon="103.405069"><ele>810.273</ele><time>2025-09-11T22:01:39.000Z</time></trkpt>
        <trkpt lat="29.566869" lon="103.40508"><ele>809.2164</ele><time>2025-09-11T22:01:44.000Z</time></trkpt>
        <trkpt lat="29.566964" lon="103.405118"><ele>807.8875</ele><time>2025-09-11T22:01:51.000Z</time></trkpt>
        <trkpt lat="29.567062" lon="103.405096"><ele>807.1953</ele><time>2025-09-11T22:02:00.000Z</time></trkpt>
        <trkpt lat="29.567173" lon="103.405066"><ele>806.9422</ele><time>2025-09-11T22:02:08.000Z</time></trkpt>
        <trkpt lat="29.567267" lon="103.405037"><ele>805.6914</ele><time>2025-09-11T22:02:14.000Z</time></trkpt>
        <trkpt lat="29.56737" lon="103.405018"><ele>805.775</ele><time>2025-09-11T22:02:23.000Z</time></trkpt>
        <trkpt lat="29.56746" lon="103.405036"><ele>805.78687</ele><time>2025-09-11T22:02:32.000Z</time></trkpt>
        <trkpt lat="29.567554" lon="103.405065"><ele>805.03064</ele><time>2025-09-11T22:02:38.000Z</time></trkpt>
        <trkpt lat="29.567653" lon="103.405073"><ele>805.4018</ele><time>2025-09-11T22:02:46.000Z</time></trkpt>
        <trkpt lat="29.567761" lon="103.405077"><ele>804.1503</ele><time>2025-09-11T22:02:54.000Z</time></trkpt>
        <trkpt lat="29.567845" lon="103.405036"><ele>804.4536</ele><time>2025-09-11T22:03:02.000Z</time></trkpt>
        <trkpt lat="29.56793" lon="103.40498"><ele>804.77264</ele><time>2025-09-11T22:03:10.000Z</time></trkpt>
        <trkpt lat="29.568013" lon="103.404916"><ele>804.90967</ele><time>2025-09-11T22:03:21.000Z</time></trkpt>
        <trkpt lat="29.5681" lon="103.404864"><ele>805.6613</ele><time>2025-09-11T22:03:28.000Z</time></trkpt>
        <trkpt lat="29.568196" lon="103.40483"><ele>805.56024</ele><time>2025-09-11T22:03:36.000Z</time></trkpt>
        <trkpt lat="29.568284" lon="103.40477"><ele>804.4829</ele><time>2025-09-11T22:03:47.000Z</time></trkpt>
        <trkpt lat="29.568314" lon="103.404663"><ele>803.29724</ele><time>2025-09-11T22:03:56.000Z</time></trkpt>
        <trkpt lat="29.568376" lon="103.404574"><ele>801.95056</ele><time>2025-09-11T22:04:03.000Z</time></trkpt>
        <trkpt lat="29.568432" lon="103.404484"><ele>802.85864</ele><time>2025-09-11T22:04:10.000Z</time></trkpt>
        <trkpt lat="29.568479" lon="103.404396"><ele>801.4587</ele><time>2025-09-11T22:04:19.000Z</time></trkpt>
        <trkpt lat="29.568521" lon="103.404301"><ele>801.113</ele><time>2025-09-11T22:04:27.000Z</time></trkpt>
        <trkpt lat="29.568569" lon="103.40421"><ele>799.13336</ele><time>2025-09-11T22:04:34.000Z</time></trkpt>
        <trkpt lat="29.568633" lon="103.404121"><ele>797.61035</ele><time>2025-09-11T22:04:41.000Z</time></trkpt>
        <trkpt lat="29.568691" lon="103.404025"><ele>796.94104</ele><time>2025-09-11T22:04:51.000Z</time></trkpt>
        <trkpt lat="29.568756" lon="103.40393"><ele>797.71027</ele><time>2025-09-11T22:05:00.000Z</time></trkpt>
        <trkpt lat="29.568865" lon="103.403906"><ele>797.9855</ele><time>2025-09-11T22:05:08.000Z</time></trkpt>
        <trkpt lat="29.568965" lon="103.403942"><ele>797.426</ele><time>2025-09-11T22:05:14.000Z</time></trkpt>
        <trkpt lat="29.569049" lon="103.403985"><ele>795.00494</ele><time>2025-09-11T22:05:21.000Z</time></trkpt>
        <trkpt lat="29.56915" lon="103.403976"><ele>792.3132</ele><time>2025-09-11T22:05:29.000Z</time></trkpt>
        <trkpt lat="29.569228" lon="103.403908"><ele>792.3268</ele><time>2025-09-11T22:05:37.000Z</time></trkpt>
        <trkpt lat="29.569311" lon="103.403858"><ele>790.79</ele><time>2025-09-11T22:05:45.000Z</time></trkpt>
        <trkpt lat="29.569395" lon="103.403792"><ele>791.01733</ele><time>2025-09-11T22:05:53.000Z</time></trkpt>
        <trkpt lat="29.569471" lon="103.403729"><ele>791.4356</ele><time>2025-09-11T22:06:00.000Z</time></trkpt>
        <trkpt lat="29.569557" lon="103.403658"><ele>791.3638</ele><time>2025-09-11T22:06:09.000Z</time></trkpt>
        <trkpt lat="29.569632" lon="103.403575"><ele>789.6216</ele><time>2025-09-11T22:06:17.000Z</time></trkpt>
        <trkpt lat="29.569675" lon="103.403474"><ele>788.7226</ele><time>2025-09-11T22:06:25.000Z</time></trkpt>
        <trkpt lat="29.569764" lon="103.403399"><ele>790.1728</ele><time>2025-09-11T22:06:34.000Z</time></trkpt>
        <trkpt lat="29.569824" lon="103.403322"><ele>790.1336</ele><time>2025-09-11T22:06:42.000Z</time></trkpt>
        <trkpt lat="29.569876" lon="103.403234"><ele>790.3202</ele><time>2025-09-11T22:06:50.000Z</time></trkpt>
        <trkpt lat="29.569926" lon="103.403146"><ele>790.69214</ele><time>2025-09-11T22:06:56.000Z</time></trkpt>
        <trkpt lat="29.569973" lon="103.403057"><ele>788.3388</ele><time>2025-09-11T22:07:04.000Z</time></trkpt>
        <trkpt lat="29.569992" lon="103.402948"><ele>785.89136</ele><time>2025-09-11T22:07:14.000Z</time></trkpt>
        <trkpt lat="29.570048" lon="103.402857"><ele>784.17004</ele><time>2025-09-11T22:07:21.000Z</time></trkpt>
        <trkpt lat="29.570127" lon="103.402791"><ele>784.29</ele><time>2025-09-11T22:07:26.000Z</time></trkpt>
        <trkpt lat="29.57023" lon="103.402779"><ele>784.8012</ele><time>2025-09-11T22:07:34.000Z</time></trkpt>
        <trkpt lat="29.570329" lon="103.40277"><ele>782.91064</ele><time>2025-09-11T22:07:41.000Z</time></trkpt>
        <trkpt lat="29.570434" lon="103.402771"><ele>783.31805</ele><time>2025-09-11T22:07:49.000Z</time></trkpt>
        <trkpt lat="29.570537" lon="103.40275"><ele>783.7841</ele><time>2025-09-11T22:07:55.000Z</time></trkpt>
        <trkpt lat="29.570638" lon="103.402749"><ele>780.7104</ele><time>2025-09-11T22:08:06.000Z</time></trkpt>
        <trkpt lat="29.570737" lon="103.402716"><ele>778.28455</ele><time>2025-09-11T22:08:14.000Z</time></trkpt>
        <trkpt lat="29.570823" lon="103.402644"><ele>776.17993</ele><time>2025-09-11T22:08:24.000Z</time></trkpt>
        <trkpt lat="29.570917" lon="103.402614"><ele>776.3439</ele><time>2025-09-11T22:08:32.000Z</time></trkpt>
        <trkpt lat="29.571001" lon="103.402551"><ele>775.6007</ele><time>2025-09-11T22:08:42.000Z</time></trkpt>
        <trkpt lat="29.571085" lon="103.402508"><ele>775.6595</ele><time>2025-09-11T22:09:17.000Z</time></trkpt>
        <trkpt lat="29.571164" lon="103.40244"><ele>774.36676</ele><time>2025-09-11T22:09:36.000Z</time></trkpt>
        <trkpt lat="29.571212" lon="103.40234"><ele>772.7328</ele><time>2025-09-11T22:09:47.000Z</time></trkpt>
        <trkpt lat="29.571237" lon="103.402233"><ele>772.55634</ele><time>2025-09-11T22:09:54.000Z</time></trkpt>
        <trkpt lat="29.571297" lon="103.402155"><ele>774.1251</ele><time>2025-09-11T22:10:01.000Z</time></trkpt>
        <trkpt lat="29.571361" lon="103.402082"><ele>775.63544</ele><time>2025-09-11T22:10:11.000Z</time></trkpt>
        <trkpt lat="29.571438" lon="103.402004"><ele>773.6501</ele><time>2025-09-11T22:10:18.000Z</time></trkpt>
        <trkpt lat="29.571491" lon="103.40191"><ele>774.8372</ele><time>2025-09-11T22:10:26.000Z</time></trkpt>
        <trkpt lat="29.57159" lon="103.401884"><ele>772.34796</ele><time>2025-09-11T22:10:38.000Z</time></trkpt>
        <trkpt lat="29.571675" lon="103.401847"><ele>771.5083</ele><time>2025-09-11T22:10:44.000Z</time></trkpt>
        <trkpt lat="29.571723" lon="103.401755"><ele>774.22424</ele><time>2025-09-11T22:11:04.000Z</time></trkpt>
        <trkpt lat="29.571787" lon="103.401682"><ele>772.6707</ele><time>2025-09-11T22:11:16.000Z</time></trkpt>
        <trkpt lat="29.571839" lon="103.401584"><ele>771.98444</ele><time>2025-09-11T22:11:25.000Z</time></trkpt>
        <trkpt lat="29.571926" lon="103.401551"><ele>772.56805</ele><time>2025-09-11T22:11:32.000Z</time></trkpt>
        <trkpt lat="29.572002" lon="103.401481"><ele>775.1676</ele><time>2025-09-11T22:11:39.000Z</time></trkpt>
        <trkpt lat="29.571976" lon="103.401374"><ele>775.7402</ele><time>2025-09-11T22:11:53.000Z</time></trkpt>
        <trkpt lat="29.57195" lon="103.401271"><ele>776.75287</ele><time>2025-09-11T22:12:13.000Z</time></trkpt>
        <trkpt lat="29.571762" lon="103.401384"><ele>770.4564</ele><time>2025-09-11T22:12:42.000Z</time></trkpt>
        <trkpt lat="29.57199" lon="103.401096"><ele>779.03815</ele><time>2025-09-11T22:13:12.000Z</time></trkpt>
        <trkpt lat="29.571875" lon="103.400839"><ele>791.9245</ele><time>2025-09-11T22:14:12.000Z</time></trkpt>
        <trkpt lat="29.571879" lon="103.400734"><ele>795.53894</ele><time>2025-09-11T22:14:27.000Z</time></trkpt>
        <trkpt lat="29.571834" lon="103.400641"><ele>801.8507</ele><time>2025-09-11T22:14:52.000Z</time></trkpt>
        <trkpt lat="29.571823" lon="103.400538"><ele>802.58417</ele><time>2025-09-11T22:15:08.000Z</time></trkpt>
        <trkpt lat="29.571838" lon="103.400412"><ele>806.60706</ele><time>2025-09-11T22:15:32.000Z</time></trkpt>
        <trkpt lat="29.571785" lon="103.400314"><ele>808.2606</ele><time>2025-09-11T22:15:49.000Z</time></trkpt>
        <trkpt lat="29.57179" lon="103.400208"><ele>818.0064</ele><time>2025-09-11T22:16:21.000Z</time></trkpt>
        <trkpt lat="29.571741" lon="103.400122"><ele>820.0784</ele><time>2025-09-11T22:16:40.000Z</time></trkpt>
        <trkpt lat="29.571773" lon="103.400024"><ele>824.7332</ele><time>2025-09-11T22:17:08.000Z</time></trkpt>
        <trkpt lat="29.571728" lon="103.399927"><ele>826.984</ele><time>2025-09-11T22:17:28.000Z</time></trkpt>
        <trkpt lat="29.571792" lon="103.399851"><ele>828.3793</ele><time>2025-09-11T22:17:38.000Z</time></trkpt>
        <trkpt lat="29.5718" lon="103.399744"><ele>831.3656</ele><time>2025-09-11T22:17:59.000Z</time></trkpt>
        <trkpt lat="29.571783" lon="103.399633"><ele>835.65295</ele><time>2025-09-11T22:19:13.000Z</time></trkpt>
        <trkpt lat="29.571785" lon="103.399512"><ele>837.96326</ele><time>2025-09-11T22:19:28.000Z</time></trkpt>
        <trkpt lat="29.571793" lon="103.399405"><ele>838.6058</ele><time>2025-09-11T22:19:38.000Z</time></trkpt>
        <trkpt lat="29.571786" lon="103.399301"><ele>842.0269</ele><time>2025-09-11T22:19:51.000Z</time></trkpt>
        <trkpt lat="29.571716" lon="103.399226"><ele>845.4053</ele><time>2025-09-11T22:20:10.000Z</time></trkpt>
        <trkpt lat="29.571674" lon="103.399132"><ele>847.7179</ele><time>2025-09-11T22:20:28.000Z</time></trkpt>
        <trkpt lat="29.57162" lon="103.399043"><ele>849.2937</ele><time>2025-09-11T22:20:46.000Z</time></trkpt>
        <trkpt lat="29.571587" lon="103.398903"><ele>851.3522</ele><time>2025-09-11T22:21:01.000Z</time></trkpt>
        <trkpt lat="29.571566" lon="103.398802"><ele>850.91565</ele><time>2025-09-11T22:21:11.000Z</time></trkpt>
        <trkpt lat="29.571555" lon="103.39869"><ele>850.8175</ele><time>2025-09-11T22:21:18.000Z</time></trkpt>
        <trkpt lat="29.571566" lon="103.398584"><ele>850.79926</ele><time>2025-09-11T22:21:24.000Z</time></trkpt>
        <trkpt lat="29.57153" lon="103.398477"><ele>851.2401</ele><time>2025-09-11T22:21:39.000Z</time></trkpt>
        <trkpt lat="29.571569" lon="103.398373"><ele>850.97076</ele><time>2025-09-11T22:21:53.000Z</time></trkpt>
        <trkpt lat="29.571548" lon="103.398268"><ele>847.69495</ele><time>2025-09-11T22:22:03.000Z</time></trkpt>
        <trkpt lat="29.571528" lon="103.398153"><ele>843.72894</ele><time>2025-09-11T22:22:15.000Z</time></trkpt>
        <trkpt lat="29.571547" lon="103.398027"><ele>840.22406</ele><time>2025-09-11T22:22:25.000Z</time></trkpt>
        <trkpt lat="29.57151" lon="103.397931"><ele>837.1742</ele><time>2025-09-11T22:22:32.000Z</time></trkpt>
        <trkpt lat="29.571456" lon="103.397835"><ele>828.99036</ele><time>2025-09-11T22:22:54.000Z</time></trkpt>
        <trkpt lat="29.571423" lon="103.397729"><ele>823.75616</ele><time>2025-09-11T22:23:10.000Z</time></trkpt>
        <trkpt lat="29.571367" lon="103.397647"><ele>822.5705</ele><time>2025-09-11T22:23:24.000Z</time></trkpt>
        <trkpt lat="29.57139" lon="103.397534"><ele>818.88104</ele><time>2025-09-11T22:23:37.000Z</time></trkpt>
        <trkpt lat="29.571419" lon="103.397426"><ele>819.6546</ele><time>2025-09-11T22:23:45.000Z</time></trkpt>
        <trkpt lat="29.571426" lon="103.397308"><ele>818.2081</ele><time>2025-09-11T22:23:54.000Z</time></trkpt>
        <trkpt lat="29.571469" lon="103.397202"><ele>816.06946</ele><time>2025-09-11T22:24:04.000Z</time></trkpt>
        <trkpt lat="29.571521" lon="103.397115"><ele>812.82086</ele><time>2025-09-11T22:24:17.000Z</time></trkpt>
        <trkpt lat="29.571576" lon="103.397016"><ele>810.55066</ele><time>2025-09-11T22:24:29.000Z</time></trkpt>
        <trkpt lat="29.571629" lon="103.396932"><ele>808.9983</ele><time>2025-09-11T22:24:40.000Z</time></trkpt>
        <trkpt lat="29.571684" lon="103.396849"><ele>805.99207</ele><time>2025-09-11T22:24:54.000Z</time></trkpt>
        <trkpt lat="29.571737" lon="103.396755"><ele>802.78217</ele><time>2025-09-11T22:25:06.000Z</time></trkpt>
        <trkpt lat="29.571833" lon="103.396734"><ele>802.0619</ele><time>2025-09-11T22:25:17.000Z</time></trkpt>
        <trkpt lat="29.571927" lon="103.396731"><ele>799.48694</ele><time>2025-09-11T22:25:27.000Z</time></trkpt>
        <trkpt lat="29.572016" lon="103.396703"><ele>796.2532</ele><time>2025-09-11T22:25:43.000Z</time></trkpt>
        <trkpt lat="29.572115" lon="103.396709"><ele>791.61914</ele><time>2025-09-11T22:26:04.000Z</time></trkpt>
        <trkpt lat="29.572208" lon="103.396684"><ele>788.0504</ele><time>2025-09-11T22:26:27.000Z</time></trkpt>
        <trkpt lat="29.572302" lon="103.396655"><ele>784.16174</ele><time>2025-09-11T22:26:42.000Z</time></trkpt>
        <trkpt lat="29.5723" lon="103.396549"><ele>782.04346</ele><time>2025-09-11T22:26:55.000Z</time></trkpt>
        <trkpt lat="29.5723" lon="103.396441"><ele>780.92365</ele><time>2025-09-11T22:27:12.000Z</time></trkpt>
        <trkpt lat="29.572287" lon="103.396332"><ele>781.3925</ele><time>2025-09-11T22:27:19.000Z</time></trkpt>
        <trkpt lat="29.572344" lon="103.39625"><ele>776.3899</ele><time>2025-09-11T22:27:33.000Z</time></trkpt>
        <trkpt lat="29.572337" lon="103.396145"><ele>774.19366</ele><time>2025-09-11T22:27:46.000Z</time></trkpt>
        <trkpt lat="29.57239" lon="103.39604"><ele>774.72546</ele><time>2025-09-11T22:27:55.000Z</time></trkpt>
        <trkpt lat="29.572465" lon="103.395976"><ele>774.1043</ele><time>2025-09-11T22:28:07.000Z</time></trkpt>
        <trkpt lat="29.572531" lon="103.395903"><ele>773.717</ele><time>2025-09-11T22:28:19.000Z</time></trkpt>
        <trkpt lat="29.572609" lon="103.395846"><ele>770.3564</ele><time>2025-09-11T22:28:34.000Z</time></trkpt>
        <trkpt lat="29.572682" lon="103.395781"><ele>767.91583</ele><time>2025-09-11T22:28:45.000Z</time></trkpt>
        <trkpt lat="29.572745" lon="103.3957"><ele>765.6739</ele><time>2025-09-11T22:29:00.000Z</time></trkpt>
        <trkpt lat="29.572806" lon="103.395613"><ele>766.2154</ele><time>2025-09-11T22:29:10.000Z</time></trkpt>
        <trkpt lat="29.57284" lon="103.395517"><ele>765.55927</ele><time>2025-09-11T22:29:21.000Z</time></trkpt>
        <trkpt lat="29.572862" lon="103.395416"><ele>764.9064</ele><time>2025-09-11T22:29:30.000Z</time></trkpt>
        <trkpt lat="29.572902" lon="103.395319"><ele>761.99207</ele><time>2025-09-11T22:29:40.000Z</time></trkpt>
        <trkpt lat="29.57295" lon="103.39523"><ele>758.7133</ele><time>2025-09-11T22:29:56.000Z</time></trkpt>
        <trkpt lat="29.572888" lon="103.395146"><ele>757.2471</ele><time>2025-09-11T22:30:08.000Z</time></trkpt>
        <trkpt lat="29.57287" lon="103.395044"><ele>756.99274</ele><time>2025-09-11T22:30:18.000Z</time></trkpt>
        <trkpt lat="29.572867" lon="103.394936"><ele>757.3736</ele><time>2025-09-11T22:30:27.000Z</time></trkpt>
        <trkpt lat="29.572912" lon="103.394846"><ele>756.2371</ele><time>2025-09-11T22:30:36.000Z</time></trkpt>
        <trkpt lat="29.572843" lon="103.394757"><ele>752.2275</ele><time>2025-09-11T22:30:52.000Z</time></trkpt>
        <trkpt lat="29.572757" lon="103.394724"><ele>751.02423</ele><time>2025-09-11T22:31:05.000Z</time></trkpt>
        <trkpt lat="29.57272" lon="103.394623"><ele>748.9255</ele><time>2025-09-11T22:31:18.000Z</time></trkpt>
        <trkpt lat="29.572657" lon="103.394538"><ele>749.28815</ele><time>2025-09-11T22:31:29.000Z</time></trkpt>
        <trkpt lat="29.572716" lon="103.394454"><ele>742.07574</ele><time>2025-09-11T22:31:45.000Z</time></trkpt>
        <trkpt lat="29.572757" lon="103.394358"><ele>738.6246</ele><time>2025-09-11T22:31:58.000Z</time></trkpt>
        <trkpt lat="29.572807" lon="103.394261"><ele>737.3603</ele><time>2025-09-11T22:32:09.000Z</time></trkpt>
        <trkpt lat="29.572851" lon="103.394171"><ele>735.1</ele><time>2025-09-11T22:32:20.000Z</time></trkpt>
        <trkpt lat="29.572872" lon="103.394051"><ele>732.63025</ele><time>2025-09-11T22:32:31.000Z</time></trkpt>
        <trkpt lat="29.572923" lon="103.393958"><ele>733.91064</ele><time>2025-09-11T22:32:39.000Z</time></trkpt>
        <trkpt lat="29.572974" lon="103.393864"><ele>732.31335</ele><time>2025-09-11T22:32:50.000Z</time></trkpt>
        <trkpt lat="29.573011" lon="103.393764"><ele>731.21936</ele><time>2025-09-11T22:33:00.000Z</time></trkpt>
        <trkpt lat="29.573097" lon="103.393701"><ele>732.1553</ele><time>2025-09-11T22:33:10.000Z</time></trkpt>
        <trkpt lat="29.573191" lon="103.393689"><ele>732.04803</ele><time>2025-09-11T22:33:19.000Z</time></trkpt>
        <trkpt lat="29.573289" lon="103.393711"><ele>729.229</ele><time>2025-09-11T22:33:30.000Z</time></trkpt>
        <trkpt lat="29.573358" lon="103.393635"><ele>726.7336</ele><time>2025-09-11T22:33:41.000Z</time></trkpt>
        <trkpt lat="29.573396" lon="103.393539"><ele>726.9289</ele><time>2025-09-11T22:33:49.000Z</time></trkpt>
        <trkpt lat="29.573488" lon="103.393538"><ele>726.92316</ele><time>2025-09-11T22:33:55.000Z</time></trkpt>
        <trkpt lat="29.573592" lon="103.393503"><ele>725.43976</ele><time>2025-09-11T22:34:03.000Z</time></trkpt>
        <trkpt lat="29.573663" lon="103.393428"><ele>724.2928</ele><time>2025-09-11T22:34:13.000Z</time></trkpt>
        <trkpt lat="29.57375" lon="103.3934"><ele>724.8695</ele><time>2025-09-11T22:34:20.000Z</time></trkpt>
        <trkpt lat="29.573843" lon="103.393372"><ele>724.48157</ele><time>2025-09-11T22:34:29.000Z</time></trkpt>
        <trkpt lat="29.573887" lon="103.393279"><ele>725.97675</ele><time>2025-09-11T22:34:35.000Z</time></trkpt>
        <trkpt lat="29.573924" lon="103.393183"><ele>727.15405</ele><time>2025-09-11T22:34:42.000Z</time></trkpt>
        <trkpt lat="29.573972" lon="103.393092"><ele>724.2796</ele><time>2025-09-11T22:34:55.000Z</time></trkpt>
        <trkpt lat="29.573975" lon="103.392984"><ele>722.00696</ele><time>2025-09-11T22:35:07.000Z</time></trkpt>
        <trkpt lat="29.574003" lon="103.392877"><ele>718.33875</ele><time>2025-09-11T22:35:21.000Z</time></trkpt>
        <trkpt lat="29.574031" lon="103.392777"><ele>716.3695</ele><time>2025-09-11T22:35:32.000Z</time></trkpt>
        <trkpt lat="29.574076" lon="103.392661"><ele>714.636</ele><time>2025-09-11T22:35:46.000Z</time></trkpt>
        <trkpt lat="29.574084" lon="103.392543"><ele>713.67505</ele><time>2025-09-11T22:35:55.000Z</time></trkpt>
        <trkpt lat="29.574017" lon="103.392457"><ele>710.69336</ele><time>2025-09-11T22:36:06.000Z</time></trkpt>
        <trkpt lat="29.574001" lon="103.392354"><ele>709.93866</ele><time>2025-09-11T22:36:14.000Z</time></trkpt>
        <trkpt lat="29.574097" lon="103.392379"><ele>708.38275</ele><time>2025-09-11T22:36:22.000Z</time></trkpt>
        <trkpt lat="29.574171" lon="103.392315"><ele>704.9809</ele><time>2025-09-11T22:36:34.000Z</time></trkpt>
        <trkpt lat="29.574154" lon="103.392178"><ele>699.6464</ele><time>2025-09-11T22:37:25.000Z</time></trkpt>
        <trkpt lat="29.574179" lon="103.392103"><ele>705.69165</ele><time>2025-09-11T22:37:32.000Z</time></trkpt>
        <trkpt lat="29.574086" lon="103.392072"><ele>703.6834</ele><time>2025-09-11T22:38:14.000Z</time></trkpt>
        <trkpt lat="29.573998" lon="103.392126"><ele>708.6084</ele><time>2025-09-11T22:38:51.000Z</time></trkpt>
        <trkpt lat="29.573908" lon="103.392114"><ele>710.56445</ele><time>2025-09-11T22:39:39.000Z</time></trkpt>
        <trkpt lat="29.573836" lon="103.392197"><ele>708.8219</ele><time>2025-09-11T22:39:51.000Z</time></trkpt>
        <trkpt lat="29.573739" lon="103.392187"><ele>707.97687</ele><time>2025-09-11T22:39:58.000Z</time></trkpt>
        <trkpt lat="29.573653" lon="103.392141"><ele>711.17035</ele><time>2025-09-11T22:40:06.000Z</time></trkpt>
        <trkpt lat="29.573578" lon="103.392077"><ele>712.6934</ele><time>2025-09-11T22:40:11.000Z</time></trkpt>
        <trkpt lat="29.573523" lon="103.39198"><ele>713.32214</ele><time>2025-09-11T22:40:19.000Z</time></trkpt>
        <trkpt lat="29.573484" lon="103.391881"><ele>717.096</ele><time>2025-09-11T22:40:30.000Z</time></trkpt>
        <trkpt lat="29.57339" lon="103.391838"><ele>719.2505</ele><time>2025-09-11T22:41:02.000Z</time></trkpt>
        <trkpt lat="29.573341" lon="103.391925"><ele>727.7405</ele><time>2025-09-11T22:41:38.000Z</time></trkpt>
        <trkpt lat="29.573257" lon="103.39185"><ele>731.313</ele><time>2025-09-11T22:41:58.000Z</time></trkpt>
        <trkpt lat="29.573158" lon="103.391865"><ele>732.6199</ele><time>2025-09-11T22:42:05.000Z</time></trkpt>
        <trkpt lat="29.573066" lon="103.391846"><ele>733.3395</ele><time>2025-09-11T22:42:19.000Z</time></trkpt>
        <trkpt lat="29.572974" lon="103.391863"><ele>733.4845</ele><time>2025-09-11T22:42:24.000Z</time></trkpt>
        <trkpt lat="29.572912" lon="103.391939"><ele>723.5067</ele><time>2025-09-11T22:42:41.000Z</time></trkpt>
        <trkpt lat="29.572849" lon="103.392025"><ele>722.1942</ele><time>2025-09-11T22:42:51.000Z</time></trkpt>
        <trkpt lat="29.572767" lon="103.391974"><ele>723.36975</ele><time>2025-09-11T22:42:57.000Z</time></trkpt>
        <trkpt lat="29.57269" lon="103.391917"><ele>724.3984</ele><time>2025-09-11T22:43:03.000Z</time></trkpt>
        <trkpt lat="29.572587" lon="103.39191"><ele>726.6825</ele><time>2025-09-11T22:43:14.000Z</time></trkpt>
        <trkpt lat="29.572499" lon="103.391969"><ele>727.1099</ele><time>2025-09-11T22:43:25.000Z</time></trkpt>
        <trkpt lat="29.572416" lon="103.391918"><ele>725.918</ele><time>2025-09-11T22:43:32.000Z</time></trkpt>
        <trkpt lat="29.572338" lon="103.391842"><ele>725.2393</ele><time>2025-09-11T22:43:42.000Z</time></trkpt>
        <trkpt lat="29.57226" lon="103.39177"><ele>725.78296</ele><time>2025-09-11T22:43:51.000Z</time></trkpt>
        <trkpt lat="29.572161" lon="103.391776"><ele>724.28766</ele><time>2025-09-11T22:44:01.000Z</time></trkpt>
        <trkpt lat="29.572074" lon="103.391743"><ele>724.52954</ele><time>2025-09-11T22:44:09.000Z</time></trkpt>
        <trkpt lat="29.571981" lon="103.39176"><ele>723.1277</ele><time>2025-09-11T22:44:18.000Z</time></trkpt>
        <trkpt lat="29.571893" lon="103.391725"><ele>722.39197</ele><time>2025-09-11T22:44:25.000Z</time></trkpt>
        <trkpt lat="29.571796" lon="103.39175"><ele>722.51996</ele><time>2025-09-11T22:44:34.000Z</time></trkpt>
        <trkpt lat="29.5717" lon="103.391744"><ele>721.834</ele><time>2025-09-11T22:44:44.000Z</time></trkpt>
        <trkpt lat="29.571609" lon="103.39176"><ele>722.9379</ele><time>2025-09-11T22:44:53.000Z</time></trkpt>
        <trkpt lat="29.57151" lon="103.391777"><ele>724.4244</ele><time>2025-09-11T22:45:02.000Z</time></trkpt>
        <trkpt lat="29.571424" lon="103.391737"><ele>722.58075</ele><time>2025-09-11T22:45:14.000Z</time></trkpt>
        <trkpt lat="29.571335" lon="103.391766"><ele>722.6542</ele><time>2025-09-11T22:45:21.000Z</time></trkpt>
        <trkpt lat="29.571229" lon="103.39176"><ele>723.3951</ele><time>2025-09-11T22:45:29.000Z</time></trkpt>
        <trkpt lat="29.571132" lon="103.391777"><ele>725.4009</ele><time>2025-09-11T22:45:44.000Z</time></trkpt>
        <trkpt lat="29.571072" lon="103.391696"><ele>725.99146</ele><time>2025-09-11T22:46:05.000Z</time></trkpt>
        <trkpt lat="29.570986" lon="103.391658"><ele>728.17426</ele><time>2025-09-11T22:46:29.000Z</time></trkpt>
        <trkpt lat="29.570892" lon="103.391688"><ele>730.03143</ele><time>2025-09-11T22:47:06.000Z</time></trkpt>
        <trkpt lat="29.5708" lon="103.391635"><ele>730.7251</ele><time>2025-09-11T22:47:10.000Z</time></trkpt>
        <trkpt lat="29.570714" lon="103.391597"><ele>733.4169</ele><time>2025-09-11T22:47:20.000Z</time></trkpt>
        <trkpt lat="29.570616" lon="103.391549"><ele>734.9351</ele><time>2025-09-11T22:47:33.000Z</time></trkpt>
        <trkpt lat="29.570526" lon="103.391522"><ele>735.6539</ele><time>2025-09-11T22:47:43.000Z</time></trkpt>
        <trkpt lat="29.570425" lon="103.391514"><ele>738.22504</ele><time>2025-09-11T22:47:57.000Z</time></trkpt>
        <trkpt lat="29.570338" lon="103.391465"><ele>739.343</ele><time>2025-09-11T22:48:04.000Z</time></trkpt>
        <trkpt lat="29.570246" lon="103.391495"><ele>739.2693</ele><time>2025-09-11T22:48:15.000Z</time></trkpt>
        <trkpt lat="29.570256" lon="103.391391"><ele>740.57</ele><time>2025-09-11T22:48:22.000Z</time></trkpt>
        <trkpt lat="29.57028" lon="103.391276"><ele>740.796</ele><time>2025-09-11T22:48:31.000Z</time></trkpt>
        <trkpt lat="29.570191" lon="103.391236"><ele>741.98535</ele><time>2025-09-11T22:49:02.000Z</time></trkpt>
        <trkpt lat="29.570101" lon="103.39122"><ele>744.6555</ele><time>2025-09-11T22:49:16.000Z</time></trkpt>
        <trkpt lat="29.570061" lon="103.391128"><ele>745.95544</ele><time>2025-09-11T22:49:22.000Z</time></trkpt>
        <trkpt lat="29.57008" lon="103.391012"><ele>745.55865</ele><time>2025-09-11T22:49:25.000Z</time></trkpt>
        <trkpt lat="29.570026" lon="103.390926"><ele>747.33954</ele><time>2025-09-11T22:49:36.000Z</time></trkpt>
        <trkpt lat="29.569927" lon="103.390944"><ele>749.70026</ele><time>2025-09-11T22:49:45.000Z</time></trkpt>
        <trkpt lat="29.569828" lon="103.391023"><ele>749.6733</ele><time>2025-09-11T22:49:53.000Z</time></trkpt>
        <trkpt lat="29.569737" lon="103.391015"><ele>747.7208</ele><time>2025-09-11T22:50:10.000Z</time></trkpt>
        <trkpt lat="29.569656" lon="103.391067"><ele>746.563</ele><time>2025-09-11T22:50:23.000Z</time></trkpt>
        <trkpt lat="29.569566" lon="103.3911"><ele>744.9093</ele><time>2025-09-11T22:50:40.000Z</time></trkpt>
        <trkpt lat="29.569471" lon="103.391068"><ele>745.66064</ele><time>2025-09-11T22:50:49.000Z</time></trkpt>
        <trkpt lat="29.569413" lon="103.390978"><ele>744.66785</ele><time>2025-09-11T22:50:56.000Z</time></trkpt>
        <trkpt lat="29.569318" lon="103.39097"><ele>744.078</ele><time>2025-09-11T22:51:11.000Z</time></trkpt>
        <trkpt lat="29.569236" lon="103.390893"><ele>744.0795</ele><time>2025-09-11T22:51:18.000Z</time></trkpt>
        <trkpt lat="29.569134" lon="103.390888"><ele>744.06757</ele><time>2025-09-11T22:51:25.000Z</time></trkpt>
        <trkpt lat="29.569097" lon="103.390982"><ele>741.1601</ele><time>2025-09-11T22:51:56.000Z</time></trkpt>
        <trkpt lat="29.569146" lon="103.39107"><ele>743.1812</ele><time>2025-09-11T22:52:09.000Z</time></trkpt>
        <trkpt lat="29.569087" lon="103.391161"><ele>745.5001</ele><time>2025-09-11T22:52:20.000Z</time></trkpt>
        <trkpt lat="29.569098" lon="103.391271"><ele>745.9816</ele><time>2025-09-11T22:52:29.000Z</time></trkpt>
        <trkpt lat="29.569004" lon="103.391273"><ele>749.2286</ele><time>2025-09-11T22:52:37.000Z</time></trkpt>
        <trkpt lat="29.568918" lon="103.391206"><ele>760.0526</ele><time>2025-09-11T22:52:45.000Z</time></trkpt>
        <trkpt lat="29.568851" lon="103.391123"><ele>766.3881</ele><time>2025-09-11T22:52:56.000Z</time></trkpt>
        <trkpt lat="29.56862" lon="103.39077"><ele>767.1409</ele><time>2025-09-11T22:53:07.000Z</time></trkpt>
        <trkpt lat="29.568357" lon="103.390925"><ele>769.4624</ele><time>2025-09-11T22:53:21.000Z</time></trkpt>
        <trkpt lat="29.568287" lon="103.390995"><ele>772.16504</ele><time>2025-09-11T22:53:41.000Z</time></trkpt>
        <trkpt lat="29.568306" lon="103.391106"><ele>772.6243</ele><time>2025-09-11T22:53:43.000Z</time></trkpt>
        <trkpt lat="29.568299" lon="103.391221"><ele>774.8471</ele><time>2025-09-11T22:53:52.000Z</time></trkpt>
        <trkpt lat="29.568358" lon="103.391104"><ele>774.72064</ele><time>2025-09-11T22:54:21.000Z</time></trkpt>
        <trkpt lat="29.568313" lon="103.391008"><ele>775.52606</ele><time>2025-09-11T22:54:23.000Z</time></trkpt>
        <trkpt lat="29.568379" lon="103.390929"><ele>773.6852</ele><time>2025-09-11T22:54:30.000Z</time></trkpt>
        <trkpt lat="29.568472" lon="103.390869"><ele>772.46106</ele><time>2025-09-11T22:54:40.000Z</time></trkpt>
        <trkpt lat="29.568373" lon="103.390837"><ele>769.37915</ele><time>2025-09-11T22:55:08.000Z</time></trkpt>
        <trkpt lat="29.568332" lon="103.39093"><ele>769.1708</ele><time>2025-09-11T22:55:11.000Z</time></trkpt>
        <trkpt lat="29.568257" lon="103.390871"><ele>767.9771</ele><time>2025-09-11T22:55:27.000Z</time></trkpt>
        <trkpt lat="29.568163" lon="103.390865"><ele>765.5699</ele><time>2025-09-11T22:55:41.000Z</time></trkpt>
        <trkpt lat="29.568077" lon="103.390834"><ele>767.57214</ele><time>2025-09-11T22:55:59.000Z</time></trkpt>
        <trkpt lat="29.568" lon="103.390779"><ele>767.94403</ele><time>2025-09-11T22:56:12.000Z</time></trkpt>
        <trkpt lat="29.567928" lon="103.390707"><ele>769.7725</ele><time>2025-09-11T22:56:25.000Z</time></trkpt>
        <trkpt lat="29.567827" lon="103.39073"><ele>772.10126</ele><time>2025-09-11T22:56:41.000Z</time></trkpt>
        <trkpt lat="29.567728" lon="103.390714"><ele>773.56</ele><time>2025-09-11T22:56:59.000Z</time></trkpt>
        <trkpt lat="29.567634" lon="103.390719"><ele>774.01624</ele><time>2025-09-11T22:57:08.000Z</time></trkpt>
        <trkpt lat="29.567546" lon="103.390659"><ele>773.53375</ele><time>2025-09-11T22:57:16.000Z</time></trkpt>
        <trkpt lat="29.567601" lon="103.390549"><ele>773.633</ele><time>2025-09-11T22:57:20.000Z</time></trkpt>
        <trkpt lat="29.567615" lon="103.390433"><ele>771.95874</ele><time>2025-09-11T22:57:26.000Z</time></trkpt>
        <trkpt lat="29.567515" lon="103.390414"><ele>771.91736</ele><time>2025-09-11T22:57:35.000Z</time></trkpt>
        <trkpt lat="29.567426" lon="103.390379"><ele>770.7261</ele><time>2025-09-11T22:57:41.000Z</time></trkpt>
        <trkpt lat="29.567331" lon="103.390383"><ele>771.9255</ele><time>2025-09-11T22:57:47.000Z</time></trkpt>
        <trkpt lat="29.56717" lon="103.390256"><ele>772.94604</ele><time>2025-09-11T22:57:51.000Z</time></trkpt>
        <trkpt lat="29.567263" lon="103.390125"><ele>774.26447</ele><time>2025-09-11T22:57:55.000Z</time></trkpt>
        <trkpt lat="29.567307" lon="103.390022"><ele>774.178</ele><time>2025-09-11T22:57:56.000Z</time></trkpt>
        <trkpt lat="29.567394" lon="103.389976"><ele>773.2899</ele><time>2025-09-11T22:57:58.000Z</time></trkpt>
        <trkpt lat="29.567322" lon="103.390122"><ele>771.51215</ele><time>2025-09-11T22:58:01.000Z</time></trkpt>
        <trkpt lat="29.567261" lon="103.390243"><ele>772.33057</ele><time>2025-09-11T22:58:03.000Z</time></trkpt>
        <trkpt lat="29.567198" lon="103.39032"><ele>772.8052</ele><time>2025-09-11T22:58:09.000Z</time></trkpt>
        <trkpt lat="29.567122" lon="103.39039"><ele>774.7455</ele><time>2025-09-11T22:58:15.000Z</time></trkpt>
        <trkpt lat="29.567029" lon="103.390412"><ele>775.99347</ele><time>2025-09-11T22:58:20.000Z</time></trkpt>
        <trkpt lat="29.566951" lon="103.39035"><ele>776.7483</ele><time>2025-09-11T22:58:26.000Z</time></trkpt>
        <trkpt lat="29.566936" lon="103.390232"><ele>775.8041</ele><time>2025-09-11T22:58:32.000Z</time></trkpt>
        <trkpt lat="29.566896" lon="103.390124"><ele>775.0836</ele><time>2025-09-11T22:58:37.000Z</time></trkpt>
        <trkpt lat="29.566835" lon="103.390042"><ele>774.80457</ele><time>2025-09-11T22:58:46.000Z</time></trkpt>
        <trkpt lat="29.56676" lon="103.389973"><ele>773.14056</ele><time>2025-09-11T22:58:56.000Z</time></trkpt>
        <trkpt lat="29.566683" lon="103.389906"><ele>771.17957</ele><time>2025-09-11T22:59:04.000Z</time></trkpt>
        <trkpt lat="29.566616" lon="103.389832"><ele>769.6352</ele><time>2025-09-11T22:59:12.000Z</time></trkpt>
        <trkpt lat="29.566531" lon="103.389777"><ele>767.7721</ele><time>2025-09-11T22:59:20.000Z</time></trkpt>
        <trkpt lat="29.566442" lon="103.389746"><ele>765.20685</ele><time>2025-09-11T22:59:29.000Z</time></trkpt>
        <trkpt lat="29.566345" lon="103.389743"><ele>762.2654</ele><time>2025-09-11T22:59:40.000Z</time></trkpt>
        <trkpt lat="29.566251" lon="103.38975"><ele>760.38434</ele><time>2025-09-11T22:59:53.000Z</time></trkpt>
        <trkpt lat="29.566179" lon="103.389685"><ele>757.9829</ele><time>2025-09-11T23:00:04.000Z</time></trkpt>
        <trkpt lat="29.566096" lon="103.389741"><ele>757.7904</ele><time>2025-09-11T23:00:11.000Z</time></trkpt>
        <trkpt lat="29.566008" lon="103.389765"><ele>758.9578</ele><time>2025-09-11T23:00:19.000Z</time></trkpt>
        <trkpt lat="29.566089" lon="103.389717"><ele>760.68274</ele><time>2025-09-11T23:03:04.000Z</time></trkpt>
        <trkpt lat="29.56618" lon="103.389729"><ele>758.7535</ele><time>2025-09-11T23:03:18.000Z</time></trkpt>
        <trkpt lat="29.566259" lon="103.38978"><ele>755.7683</ele><time>2025-09-11T23:03:31.000Z</time></trkpt>
        <trkpt lat="29.566353" lon="103.38979"><ele>754.78564</ele><time>2025-09-11T23:03:39.000Z</time></trkpt>
        <trkpt lat="29.56645" lon="103.389766"><ele>754.87463</ele><time>2025-09-11T23:03:47.000Z</time></trkpt>
        <trkpt lat="29.566548" lon="103.389766"><ele>755.50586</ele><time>2025-09-11T23:03:54.000Z</time></trkpt>
        <trkpt lat="29.566635" lon="103.389819"><ele>758.43066</ele><time>2025-09-11T23:04:00.000Z</time></trkpt>
        <trkpt lat="29.566729" lon="103.389845"><ele>761.02185</ele><time>2025-09-11T23:04:07.000Z</time></trkpt>
        <trkpt lat="29.566758" lon="103.389959"><ele>762.6944</ele><time>2025-09-11T23:04:14.000Z</time></trkpt>
        <trkpt lat="29.566837" lon="103.390017"><ele>764.5961</ele><time>2025-09-11T23:04:22.000Z</time></trkpt>
        <trkpt lat="29.566929" lon="103.39009"><ele>767.07416</ele><time>2025-09-11T23:04:30.000Z</time></trkpt>
        <trkpt lat="29.567025" lon="103.390074"><ele>767.8747</ele><time>2025-09-11T23:04:38.000Z</time></trkpt>
        <trkpt lat="29.567118" lon="103.390059"><ele>769.13257</ele><time>2025-09-11T23:04:44.000Z</time></trkpt>
        <trkpt lat="29.567239" lon="103.390002"><ele>767.8889</ele><time>2025-09-11T23:04:53.000Z</time></trkpt>
        <trkpt lat="29.567343" lon="103.389986"><ele>767.73535</ele><time>2025-09-11T23:04:59.000Z</time></trkpt>
        <trkpt lat="29.567441" lon="103.389982"><ele>769.8139</ele><time>2025-09-11T23:05:04.000Z</time></trkpt>
        <trkpt lat="29.56752" lon="103.390035"><ele>772.4794</ele><time>2025-09-11T23:05:11.000Z</time></trkpt>
        <trkpt lat="29.567589" lon="103.390123"><ele>774.5341</ele><time>2025-09-11T23:05:18.000Z</time></trkpt>
        <trkpt lat="29.567437" lon="103.390039"><ele>774.33984</ele><time>2025-09-11T23:05:21.000Z</time></trkpt>
        <trkpt lat="29.567506" lon="103.390153"><ele>773.3029</ele><time>2025-09-11T23:05:31.000Z</time></trkpt>
        <trkpt lat="29.567594" lon="103.390248"><ele>773.4825</ele><time>2025-09-11T23:05:33.000Z</time></trkpt>
        <trkpt lat="29.567665" lon="103.390331"><ele>772.66284</ele><time>2025-09-11T23:05:36.000Z</time></trkpt>
        <trkpt lat="29.567679" lon="103.39045"><ele>771.6369</ele><time>2025-09-11T23:05:41.000Z</time></trkpt>
        <trkpt lat="29.567729" lon="103.390552"><ele>771.33136</ele><time>2025-09-11T23:05:50.000Z</time></trkpt>
        <trkpt lat="29.567806" lon="103.390608"><ele>770.5485</ele><time>2025-09-11T23:05:58.000Z</time></trkpt>
        <trkpt lat="29.567891" lon="103.390655"><ele>771.4153</ele><time>2025-09-11T23:06:08.000Z</time></trkpt>
        <trkpt lat="29.567915" lon="103.39076"><ele>771.97644</ele><time>2025-09-11T23:06:19.000Z</time></trkpt>
        <trkpt lat="29.568008" lon="103.390793"><ele>774.5523</ele><time>2025-09-11T23:06:28.000Z</time></trkpt>
        <trkpt lat="29.568103" lon="103.390812"><ele>775.60175</ele><time>2025-09-11T23:06:34.000Z</time></trkpt>
        <trkpt lat="29.568194" lon="103.390791"><ele>777.66315</ele><time>2025-09-11T23:06:44.000Z</time></trkpt>
        <trkpt lat="29.56828" lon="103.390742"><ele>778.0655</ele><time>2025-09-11T23:06:48.000Z</time></trkpt>
        <trkpt lat="29.568374" lon="103.390784"><ele>774.7886</ele><time>2025-09-11T23:07:01.000Z</time></trkpt>
        <trkpt lat="29.56847" lon="103.390819"><ele>768.4221</ele><time>2025-09-11T23:07:34.000Z</time></trkpt>
        <trkpt lat="29.568564" lon="103.390824"><ele>768.69855</ele><time>2025-09-11T23:07:38.000Z</time></trkpt>
        <trkpt lat="29.568656" lon="103.390846"><ele>768.61755</ele><time>2025-09-11T23:07:45.000Z</time></trkpt>
        <trkpt lat="29.568798" lon="103.39084"><ele>768.71014</ele><time>2025-09-11T23:08:21.000Z</time></trkpt>
        <trkpt lat="29.569085" lon="103.391026"><ele>757.1107</ele><time>2025-09-11T23:09:16.000Z</time></trkpt>
        <trkpt lat="29.569194" lon="103.391031"><ele>754.4666</ele><time>2025-09-11T23:09:22.000Z</time></trkpt>
        <trkpt lat="29.569278" lon="103.390983"><ele>749.4433</ele><time>2025-09-11T23:09:29.000Z</time></trkpt>
        <trkpt lat="29.569378" lon="103.391031"><ele>748.58734</ele><time>2025-09-11T23:09:34.000Z</time></trkpt>
        <trkpt lat="29.56945" lon="103.390953"><ele>747.1968</ele><time>2025-09-11T23:09:45.000Z</time></trkpt>
        <trkpt lat="29.569526" lon="103.390891"><ele>743.7337</ele><time>2025-09-11T23:10:07.000Z</time></trkpt>
        <trkpt lat="29.569619" lon="103.390905"><ele>744.97</ele><time>2025-09-11T23:10:14.000Z</time></trkpt>
        <trkpt lat="29.569709" lon="103.390919"><ele>748.4648</ele><time>2025-09-11T23:10:29.000Z</time></trkpt>
        <trkpt lat="29.569794" lon="103.390958"><ele>750.9678</ele><time>2025-09-11T23:10:44.000Z</time></trkpt>
        <trkpt lat="29.569883" lon="103.390983"><ele>752.1711</ele><time>2025-09-11T23:10:51.000Z</time></trkpt>
        <trkpt lat="29.569977" lon="103.390941"><ele>754.8697</ele><time>2025-09-11T23:11:08.000Z</time></trkpt>
        <trkpt lat="29.570036" lon="103.390848"><ele>757.81964</ele><time>2025-09-11T23:11:24.000Z</time></trkpt>
        <trkpt lat="29.570125" lon="103.390921"><ele>759.7661</ele><time>2025-09-11T23:11:46.000Z</time></trkpt>
        <trkpt lat="29.570216" lon="103.391026"><ele>760.4899</ele><time>2025-09-11T23:11:56.000Z</time></trkpt>
        <trkpt lat="29.57021" lon="103.39114"><ele>756.2748</ele><time>2025-09-11T23:12:01.000Z</time></trkpt>
        <trkpt lat="29.570297" lon="103.39118"><ele>746.9659</ele><time>2025-09-11T23:12:10.000Z</time></trkpt>
        <trkpt lat="29.570372" lon="103.391239"><ele>738.1897</ele><time>2025-09-11T23:12:29.000Z</time></trkpt>
        <trkpt lat="29.570458" lon="103.391272"><ele>734.2564</ele><time>2025-09-11T23:12:41.000Z</time></trkpt>
        <trkpt lat="29.570556" lon="103.391275"><ele>733.70374</ele><time>2025-09-11T23:12:51.000Z</time></trkpt>
        <trkpt lat="29.570518" lon="103.3914"><ele>731.92755</ele><time>2025-09-11T23:12:58.000Z</time></trkpt>
        <trkpt lat="29.570559" lon="103.391502"><ele>729.7709</ele><time>2025-09-11T23:13:10.000Z</time></trkpt>
        <trkpt lat="29.57066" lon="103.391506"><ele>730.5569</ele><time>2025-09-11T23:13:19.000Z</time></trkpt>
        <trkpt lat="29.570752" lon="103.391526"><ele>732.1038</ele><time>2025-09-11T23:13:29.000Z</time></trkpt>
        <trkpt lat="29.570831" lon="103.3916"><ele>733.8817</ele><time>2025-09-11T23:13:36.000Z</time></trkpt>
        <trkpt lat="29.570911" lon="103.391664"><ele>734.76</ele><time>2025-09-11T23:13:48.000Z</time></trkpt>
        <trkpt lat="29.570997" lon="103.391699"><ele>734.47894</ele><time>2025-09-11T23:13:55.000Z</time></trkpt>
        <trkpt lat="29.571109" lon="103.391693"><ele>732.6875</ele><time>2025-09-11T23:14:06.000Z</time></trkpt>
        <trkpt lat="29.571201" lon="103.391697"><ele>731.0794</ele><time>2025-09-11T23:14:12.000Z</time></trkpt>
        <trkpt lat="29.571294" lon="103.391702"><ele>730.1879</ele><time>2025-09-11T23:14:19.000Z</time></trkpt>
        <trkpt lat="29.571386" lon="103.391668"><ele>729.4277</ele><time>2025-09-11T23:14:29.000Z</time></trkpt>
        <trkpt lat="29.571478" lon="103.391681"><ele>728.9938</ele><time>2025-09-11T23:14:39.000Z</time></trkpt>
        <trkpt lat="29.571571" lon="103.391679"><ele>730.0219</ele><time>2025-09-11T23:14:46.000Z</time></trkpt>
        <trkpt lat="29.571666" lon="103.391689"><ele>730.3294</ele><time>2025-09-11T23:14:56.000Z</time></trkpt>
        <trkpt lat="29.571756" lon="103.391703"><ele>729.8344</ele><time>2025-09-11T23:15:03.000Z</time></trkpt>
        <trkpt lat="29.571848" lon="103.391705"><ele>731.7913</ele><time>2025-09-11T23:15:15.000Z</time></trkpt>
        <trkpt lat="29.571949" lon="103.391669"><ele>730.9605</ele><time>2025-09-11T23:15:22.000Z</time></trkpt>
        <trkpt lat="29.572038" lon="103.391699"><ele>731.85315</ele><time>2025-09-11T23:15:31.000Z</time></trkpt>
        <trkpt lat="29.572132" lon="103.391674"><ele>731.1169</ele><time>2025-09-11T23:15:40.000Z</time></trkpt>
        <trkpt lat="29.572237" lon="103.391715"><ele>731.11816</ele><time>2025-09-11T23:15:50.000Z</time></trkpt>
        <trkpt lat="29.572325" lon="103.391746"><ele>729.95544</ele><time>2025-09-11T23:16:01.000Z</time></trkpt>
        <trkpt lat="29.57242" lon="103.391766"><ele>728.0083</ele><time>2025-09-11T23:16:11.000Z</time></trkpt>
        <trkpt lat="29.57249" lon="103.391837"><ele>727.754</ele><time>2025-09-11T23:16:22.000Z</time></trkpt>
        <trkpt lat="29.572587" lon="103.39186"><ele>728.30164</ele><time>2025-09-11T23:16:29.000Z</time></trkpt>
        <trkpt lat="29.57268" lon="103.391798"><ele>728.11584</ele><time>2025-09-11T23:16:37.000Z</time></trkpt>
        <trkpt lat="29.572782" lon="103.391815"><ele>730.1652</ele><time>2025-09-11T23:16:49.000Z</time></trkpt>
        <trkpt lat="29.57287" lon="103.391843"><ele>731.51447</ele><time>2025-09-11T23:16:59.000Z</time></trkpt>
        <trkpt lat="29.572966" lon="103.391815"><ele>732.81</ele><time>2025-09-11T23:17:07.000Z</time></trkpt>
        <trkpt lat="29.573039" lon="103.391742"><ele>734.27765</ele><time>2025-09-11T23:17:17.000Z</time></trkpt>
        <trkpt lat="29.573132" lon="103.391731"><ele>735.51044</ele><time>2025-09-11T23:17:25.000Z</time></trkpt>
        <trkpt lat="29.573224" lon="103.391771"><ele>734.2969</ele><time>2025-09-11T23:17:35.000Z</time></trkpt>
        <trkpt lat="29.573321" lon="103.39177"><ele>732.92474</ele><time>2025-09-11T23:17:48.000Z</time></trkpt>
        <trkpt lat="29.573407" lon="103.39181"><ele>731.99854</ele><time>2025-09-11T23:17:57.000Z</time></trkpt>
        <trkpt lat="29.5735" lon="103.391852"><ele>730.5878</ele><time>2025-09-11T23:18:04.000Z</time></trkpt>
        <trkpt lat="29.573608" lon="103.391868"><ele>726.52325</ele><time>2025-09-11T23:18:15.000Z</time></trkpt>
        <trkpt lat="29.573662" lon="103.391967"><ele>721.7794</ele><time>2025-09-11T23:18:28.000Z</time></trkpt>
        <trkpt lat="29.573735" lon="103.392054"><ele>720.9166</ele><time>2025-09-11T23:18:35.000Z</time></trkpt>
        <trkpt lat="29.573811" lon="103.392124"><ele>718.21246</ele><time>2025-09-11T23:18:49.000Z</time></trkpt>
        <trkpt lat="29.573903" lon="103.392117"><ele>717.62604</ele><time>2025-09-11T23:19:02.000Z</time></trkpt>
        <trkpt lat="29.574004" lon="103.392085"><ele>717.61084</ele><time>2025-09-11T23:19:11.000Z</time></trkpt>
        <trkpt lat="29.574061" lon="103.392003"><ele>715.2075</ele><time>2025-09-11T23:19:17.000Z</time></trkpt>
        <trkpt lat="29.574158" lon="103.392009"><ele>712.5722</ele><time>2025-09-11T23:19:23.000Z</time></trkpt>
        <trkpt lat="29.574185" lon="103.392109"><ele>706.59705</ele><time>2025-09-11T23:19:32.000Z</time></trkpt>
        <trkpt lat="29.574289" lon="103.392145"><ele>706.75287</ele><time>2025-09-11T23:19:43.000Z</time></trkpt>
        <trkpt lat="29.574352" lon="103.392059"><ele>708.05884</ele><time>2025-09-11T23:20:05.000Z</time></trkpt>
        <trkpt lat="29.574443" lon="103.392087"><ele>708.9527</ele><time>2025-09-11T23:20:12.000Z</time></trkpt>
        <trkpt lat="29.574532" lon="103.392115"><ele>710.8869</ele><time>2025-09-11T23:20:21.000Z</time></trkpt>
        <trkpt lat="29.574624" lon="103.392102"><ele>713.5999</ele><time>2025-09-11T23:20:33.000Z</time></trkpt>
        <trkpt lat="29.574714" lon="103.392097"><ele>716.6933</ele><time>2025-09-11T23:20:51.000Z</time></trkpt>
        <trkpt lat="29.574803" lon="103.39212"><ele>719.7618</ele><time>2025-09-11T23:21:12.000Z</time></trkpt>
        <trkpt lat="29.574889" lon="103.392076"><ele>719.8728</ele><time>2025-09-11T23:21:29.000Z</time></trkpt>
        <trkpt lat="29.574981" lon="103.392074"><ele>724.1856</ele><time>2025-09-11T23:21:50.000Z</time></trkpt>
        <trkpt lat="29.575028" lon="103.391977"><ele>724.9349</ele><time>2025-09-11T23:22:08.000Z</time></trkpt>
        <trkpt lat="29.575117" lon="103.391946"><ele>727.1762</ele><time>2025-09-11T23:22:37.000Z</time></trkpt>
        <trkpt lat="29.575205" lon="103.391922"><ele>730.21606</ele><time>2025-09-11T23:22:53.000Z</time></trkpt>
        <trkpt lat="29.575296" lon="103.391885"><ele>732.03815</ele><time>2025-09-11T23:23:13.000Z</time></trkpt>
        <trkpt lat="29.57536" lon="103.391808"><ele>733.8184</ele><time>2025-09-11T23:23:39.000Z</time></trkpt>
        <trkpt lat="29.575457" lon="103.391814"><ele>736.03534</ele><time>2025-09-11T23:24:01.000Z</time></trkpt>
        <trkpt lat="29.575542" lon="103.391854"><ele>736.7758</ele><time>2025-09-11T23:25:40.000Z</time></trkpt>
        <trkpt lat="29.575635" lon="103.391864"><ele>740.13184</ele><time>2025-09-11T23:25:59.000Z</time></trkpt>
        <trkpt lat="29.575725" lon="103.391874"><ele>743.2349</ele><time>2025-09-11T23:26:07.000Z</time></trkpt>
        <trkpt lat="29.575831" lon="103.391873"><ele>746.03723</ele><time>2025-09-11T23:26:38.000Z</time></trkpt>
        <trkpt lat="29.575917" lon="103.391834"><ele>749.91327</ele><time>2025-09-11T23:27:05.000Z</time></trkpt>
        <trkpt lat="29.576027" lon="103.391847"><ele>751.91144</ele><time>2025-09-11T23:27:19.000Z</time></trkpt>
        <trkpt lat="29.576116" lon="103.391881"><ele>753.3361</ele><time>2025-09-11T23:27:34.000Z</time></trkpt>
        <trkpt lat="29.57621" lon="103.391909"><ele>755.7067</ele><time>2025-09-11T23:27:51.000Z</time></trkpt>
        <trkpt lat="29.576301" lon="103.391939"><ele>762.3663</ele><time>2025-09-11T23:28:06.000Z</time></trkpt>
        <trkpt lat="29.576403" lon="103.391958"><ele>769.5828</ele><time>2025-09-11T23:28:27.000Z</time></trkpt>
        <trkpt lat="29.576486" lon="103.391918"><ele>771.09283</ele><time>2025-09-11T23:28:47.000Z</time></trkpt>
        <trkpt lat="29.576421" lon="103.391837"><ele>773.6658</ele><time>2025-09-11T23:30:22.000Z</time></trkpt>
        <trkpt lat="29.57651" lon="103.391895"><ele>772.9891</ele><time>2025-09-11T23:31:05.000Z</time></trkpt>
        <trkpt lat="29.576599" lon="103.391912"><ele>779.6988</ele><time>2025-09-11T23:31:20.000Z</time></trkpt>
        <trkpt lat="29.576683" lon="103.391869"><ele>783.91693</ele><time>2025-09-11T23:31:30.000Z</time></trkpt>
        <trkpt lat="29.576778" lon="103.391823"><ele>785.4653</ele><time>2025-09-11T23:31:40.000Z</time></trkpt>
        <trkpt lat="29.576834" lon="103.391722"><ele>785.4757</ele><time>2025-09-11T23:31:48.000Z</time></trkpt>
        <trkpt lat="29.576873" lon="103.391612"><ele>785.2168</ele><time>2025-09-11T23:32:03.000Z</time></trkpt>
        <trkpt lat="29.576906" lon="103.391515"><ele>785.45996</ele><time>2025-09-11T23:32:18.000Z</time></trkpt>
        <trkpt lat="29.576936" lon="103.391417"><ele>787.7061</ele><time>2025-09-11T23:32:27.000Z</time></trkpt>
        <trkpt lat="29.576994" lon="103.39133"><ele>790.86237</ele><time>2025-09-11T23:32:42.000Z</time></trkpt>
        <trkpt lat="29.577066" lon="103.391259"><ele>790.75824</ele><time>2025-09-11T23:32:53.000Z</time></trkpt>
        <trkpt lat="29.577105" lon="103.391161"><ele>790.4695</ele><time>2025-09-11T23:33:08.000Z</time></trkpt>
        <trkpt lat="29.57713" lon="103.391056"><ele>790.64575</ele><time>2025-09-11T23:33:23.000Z</time></trkpt>
        <trkpt lat="29.577174" lon="103.390954"><ele>789.0707</ele><time>2025-09-11T23:33:32.000Z</time></trkpt>
        <trkpt lat="29.57728" lon="103.390941"><ele>789.62384</ele><time>2025-09-11T23:33:42.000Z</time></trkpt>
        <trkpt lat="29.577382" lon="103.390886"><ele>790.76227</ele><time>2025-09-11T23:33:55.000Z</time></trkpt>
        <trkpt lat="29.577467" lon="103.390926"><ele>791.5576</ele><time>2025-09-11T23:34:12.000Z</time></trkpt>
        <trkpt lat="29.577538" lon="103.390998"><ele>790.88367</ele><time>2025-09-11T23:34:21.000Z</time></trkpt>
        <trkpt lat="29.577629" lon="103.391022"><ele>791.9044</ele><time>2025-09-11T23:34:35.000Z</time></trkpt>
        <trkpt lat="29.577724" lon="103.391051"><ele>794.7515</ele><time>2025-09-11T23:34:47.000Z</time></trkpt>
        <trkpt lat="29.577813" lon="103.391072"><ele>799.3149</ele><time>2025-09-11T23:35:09.000Z</time></trkpt>
        <trkpt lat="29.577907" lon="103.391069"><ele>802.6751</ele><time>2025-09-11T23:35:29.000Z</time></trkpt>
        <trkpt lat="29.577968" lon="103.390984"><ele>803.2018</ele><time>2025-09-11T23:35:45.000Z</time></trkpt>
        <trkpt lat="29.577998" lon="103.390883"><ele>804.49725</ele><time>2025-09-11T23:35:53.000Z</time></trkpt>
        <trkpt lat="29.578076" lon="103.390823"><ele>805.74304</ele><time>2025-09-11T23:36:04.000Z</time></trkpt>
        <trkpt lat="29.578103" lon="103.390722"><ele>809.1403</ele><time>2025-09-11T23:36:12.000Z</time></trkpt>
        <trkpt lat="29.578167" lon="103.390646"><ele>811.20636</ele><time>2025-09-11T23:36:19.000Z</time></trkpt>
        <trkpt lat="29.578194" lon="103.390548"><ele>810.99854</ele><time>2025-09-11T23:36:27.000Z</time></trkpt>
        <trkpt lat="29.578256" lon="103.390443"><ele>813.09143</ele><time>2025-09-11T23:36:37.000Z</time></trkpt>
        <trkpt lat="29.578295" lon="103.390349"><ele>814.0792</ele><time>2025-09-11T23:36:45.000Z</time></trkpt>
        <trkpt lat="29.578336" lon="103.390248"><ele>816.6381</ele><time>2025-09-11T23:37:00.000Z</time></trkpt>
        <trkpt lat="29.57839" lon="103.390164"><ele>819.03564</ele><time>2025-09-11T23:37:11.000Z</time></trkpt>
        <trkpt lat="29.578377" lon="103.390059"><ele>819.79004</ele><time>2025-09-11T23:37:29.000Z</time></trkpt>
        <trkpt lat="29.578404" lon="103.389948"><ele>822.04675</ele><time>2025-09-11T23:37:47.000Z</time></trkpt>
        <trkpt lat="29.578474" lon="103.389877"><ele>823.07196</ele><time>2025-09-11T23:37:55.000Z</time></trkpt>
        <trkpt lat="29.578501" lon="103.389774"><ele>823.5698</ele><time>2025-09-11T23:38:10.000Z</time></trkpt>
        <trkpt lat="29.57854" lon="103.389676"><ele>824.15344</ele><time>2025-09-11T23:38:35.000Z</time></trkpt>
        <trkpt lat="29.578458" lon="103.389775"><ele>824.92163</ele><time>2025-09-11T23:39:17.000Z</time></trkpt>
        <trkpt lat="29.578492" lon="103.389664"><ele>825.10614</ele><time>2025-09-11T23:39:25.000Z</time></trkpt>
        <trkpt lat="29.578498" lon="103.38953"><ele>824.05646</ele><time>2025-09-11T23:40:03.000Z</time></trkpt>
        <trkpt lat="29.578475" lon="103.389421"><ele>822.9156</ele><time>2025-09-11T23:40:12.000Z</time></trkpt>
        <trkpt lat="29.578431" lon="103.389319"><ele>823.9402</ele><time>2025-09-11T23:40:24.000Z</time></trkpt>
        <trkpt lat="29.578348" lon="103.389276"><ele>824.3266</ele><time>2025-09-11T23:40:37.000Z</time></trkpt>
        <trkpt lat="29.578339" lon="103.389158"><ele>825.5764</ele><time>2025-09-11T23:40:45.000Z</time></trkpt>
        <trkpt lat="29.578379" lon="103.389059"><ele>826.2883</ele><time>2025-09-11T23:40:56.000Z</time></trkpt>
        <trkpt lat="29.578439" lon="103.388966"><ele>824.80347</ele><time>2025-09-11T23:41:12.000Z</time></trkpt>
        <trkpt lat="29.578356" lon="103.389008"><ele>818.4055</ele><time>2025-09-11T23:41:47.000Z</time></trkpt>
        <trkpt lat="29.578392" lon="103.388892"><ele>821.3462</ele><time>2025-09-11T23:41:54.000Z</time></trkpt>
        <trkpt lat="29.578449" lon="103.388807"><ele>820.16046</ele><time>2025-09-11T23:42:04.000Z</time></trkpt>
        <trkpt lat="29.578547" lon="103.388797"><ele>820.08514</ele><time>2025-09-11T23:42:14.000Z</time></trkpt>
        <trkpt lat="29.578632" lon="103.388852"><ele>819.94403</ele><time>2025-09-11T23:42:22.000Z</time></trkpt>
        <trkpt lat="29.578721" lon="103.388878"><ele>819.2127</ele><time>2025-09-11T23:42:29.000Z</time></trkpt>
        <trkpt lat="29.57882" lon="103.38884"><ele>816.8527</ele><time>2025-09-11T23:42:38.000Z</time></trkpt>
        <trkpt lat="29.57892" lon="103.388711"><ele>816.79724</ele><time>2025-09-11T23:42:46.000Z</time></trkpt>
        <trkpt lat="29.578975" lon="103.388615"><ele>818.357</ele><time>2025-09-11T23:42:56.000Z</time></trkpt>
        <trkpt lat="29.579062" lon="103.388559"><ele>825.61676</ele><time>2025-09-11T23:43:08.000Z</time></trkpt>
        <trkpt lat="29.57906" lon="103.388455"><ele>834.73645</ele><time>2025-09-11T23:43:21.000Z</time></trkpt>
        <trkpt lat="29.578994" lon="103.388361"><ele>838.44684</ele><time>2025-09-11T23:43:37.000Z</time></trkpt>
        <trkpt lat="29.579008" lon="103.388254"><ele>838.7181</ele><time>2025-09-11T23:43:49.000Z</time></trkpt>
        <trkpt lat="29.579018" lon="103.388147"><ele>837.2354</ele><time>2025-09-11T23:44:07.000Z</time></trkpt>
        <trkpt lat="29.578989" lon="103.38804"><ele>836.36346</ele><time>2025-09-11T23:44:21.000Z</time></trkpt>
        <trkpt lat="29.579035" lon="103.387948"><ele>834.9953</ele><time>2025-09-11T23:44:50.000Z</time></trkpt>
        <trkpt lat="29.578988" lon="103.387854"><ele>835.71783</ele><time>2025-09-11T23:45:06.000Z</time></trkpt>
        <trkpt lat="29.579011" lon="103.387717"><ele>834.83405</ele><time>2025-09-11T23:45:22.000Z</time></trkpt>
        <trkpt lat="29.578966" lon="103.387621"><ele>833.7951</ele><time>2025-09-11T23:45:41.000Z</time></trkpt>
        <trkpt lat="29.578966" lon="103.387508"><ele>833.79376</ele><time>2025-09-11T23:45:50.000Z</time></trkpt>
        <trkpt lat="29.578987" lon="103.387402"><ele>835.2424</ele><time>2025-09-11T23:45:57.000Z</time></trkpt>
        <trkpt lat="29.578992" lon="103.387295"><ele>834.4964</ele><time>2025-09-11T23:46:05.000Z</time></trkpt>
        <trkpt lat="29.579011" lon="103.387185"><ele>833.43695</ele><time>2025-09-11T23:46:14.000Z</time></trkpt>
        <trkpt lat="29.579061" lon="103.38709"><ele>835.35876</ele><time>2025-09-11T23:46:26.000Z</time></trkpt>
      </trkseg>
      <trkseg>
        <trkpt lat="29.579181" lon="103.386926"><ele>850.6908</ele><time>2025-09-12T00:16:43.000Z</time></trkpt>
        <trkpt lat="29.579242" lon="103.386848"><ele>852.9834</ele><time>2025-09-12T00:16:59.000Z</time></trkpt>
        <trkpt lat="29.579314" lon="103.386782"><ele>860.8967</ele><time>2025-09-12T00:17:21.000Z</time></trkpt>
        <trkpt lat="29.579389" lon="103.386718"><ele>867.83026</ele><time>2025-09-12T00:17:45.000Z</time></trkpt>
        <trkpt lat="29.579416" lon="103.386617"><ele>870.55023</ele><time>2025-09-12T00:18:03.000Z</time></trkpt>
        <trkpt lat="29.579428" lon="103.38651"><ele>874.62006</ele><time>2025-09-12T00:18:35.000Z</time></trkpt>
        <trkpt lat="29.579449" lon="103.38641"><ele>880.5147</ele><time>2025-09-12T00:19:02.000Z</time></trkpt>
        <trkpt lat="29.579443" lon="103.386297"><ele>881.3716</ele><time>2025-09-12T00:19:22.000Z</time></trkpt>
        <trkpt lat="29.579425" lon="103.38619"><ele>880.88763</ele><time>2025-09-12T00:20:50.000Z</time></trkpt>
        <trkpt lat="29.579459" lon="103.38609"><ele>883.38257</ele><time>2025-09-12T00:21:12.000Z</time></trkpt>
        <trkpt lat="29.579471" lon="103.385985"><ele>883.0411</ele><time>2025-09-12T00:21:25.000Z</time></trkpt>
        <trkpt lat="29.579514" lon="103.385894"><ele>887.44824</ele><time>2025-09-12T00:21:52.000Z</time></trkpt>
        <trkpt lat="29.579571" lon="103.385812"><ele>888.7725</ele><time>2025-09-12T00:22:09.000Z</time></trkpt>
        <trkpt lat="29.57964" lon="103.38574"><ele>892.44025</ele><time>2025-09-12T00:22:28.000Z</time></trkpt>
        <trkpt lat="29.579666" lon="103.38564"><ele>896.7228</ele><time>2025-09-12T00:22:43.000Z</time></trkpt>
        <trkpt lat="29.579743" lon="103.385581"><ele>900.0615</ele><time>2025-09-12T00:23:11.000Z</time></trkpt>
        <trkpt lat="29.579812" lon="103.385503"><ele>902.2676</ele><time>2025-09-12T00:23:35.000Z</time></trkpt>
        <trkpt lat="29.57987" lon="103.385421"><ele>905.9815</ele><time>2025-09-12T00:23:52.000Z</time></trkpt>
        <trkpt lat="29.579954" lon="103.385381"><ele>909.9694</ele><time>2025-09-12T00:24:14.000Z</time></trkpt>
        <trkpt lat="29.580021" lon="103.385305"><ele>909.8833</ele><time>2025-09-12T00:24:40.000Z</time></trkpt>
        <trkpt lat="29.580109" lon="103.38526"><ele>915.0343</ele><time>2025-09-12T00:24:55.000Z</time></trkpt>
        <trkpt lat="29.580164" lon="103.385177"><ele>920.5089</ele><time>2025-09-12T00:25:05.000Z</time></trkpt>
        <trkpt lat="29.580223" lon="103.385093"><ele>922.9547</ele><time>2025-09-12T00:25:15.000Z</time></trkpt>
        <trkpt lat="29.580281" lon="103.385007"><ele>925.60657</ele><time>2025-09-12T00:25:33.000Z</time></trkpt>
        <trkpt lat="29.580325" lon="103.384912"><ele>926.3408</ele><time>2025-09-12T00:25:48.000Z</time></trkpt>
        <trkpt lat="29.580391" lon="103.384831"><ele>927.90015</ele><time>2025-09-12T00:26:01.000Z</time></trkpt>
        <trkpt lat="29.58046" lon="103.38476"><ele>929.90985</ele><time>2025-09-12T00:26:16.000Z</time></trkpt>
        <trkpt lat="29.580514" lon="103.38467"><ele>929.597</ele><time>2025-09-12T00:26:30.000Z</time></trkpt>
        <trkpt lat="29.580558" lon="103.38457"><ele>928.98126</ele><time>2025-09-12T00:26:47.000Z</time></trkpt>
        <trkpt lat="29.580625" lon="103.384488"><ele>932.25214</ele><time>2025-09-12T00:27:12.000Z</time></trkpt>
        <trkpt lat="29.58071" lon="103.38443"><ele>937.19745</ele><time>2025-09-12T00:27:38.000Z</time></trkpt>
        <trkpt lat="29.580778" lon="103.384359"><ele>942.858</ele><time>2025-09-12T00:27:59.000Z</time></trkpt>
        <trkpt lat="29.580839" lon="103.384281"><ele>946.2012</ele><time>2025-09-12T00:28:27.000Z</time></trkpt>
        <trkpt lat="29.580915" lon="103.384224"><ele>944.50757</ele><time>2025-09-12T00:28:50.000Z</time></trkpt>
        <trkpt lat="29.581002" lon="103.384191"><ele>944.7952</ele><time>2025-09-12T00:29:16.000Z</time></trkpt>
        <trkpt lat="29.581094" lon="103.384198"><ele>953.3103</ele><time>2025-09-12T00:29:56.000Z</time></trkpt>
        <trkpt lat="29.581164" lon="103.384272"><ele>961.20593</ele><time>2025-09-12T00:30:29.000Z</time></trkpt>
        <trkpt lat="29.581234" lon="103.384345"><ele>965.78986</ele><time>2025-09-12T00:30:51.000Z</time></trkpt>
        <trkpt lat="29.581325" lon="103.384362"><ele>966.8147</ele><time>2025-09-12T00:31:19.000Z</time></trkpt>
        <trkpt lat="29.581433" lon="103.384319"><ele>972.2136</ele><time>2025-09-12T00:31:43.000Z</time></trkpt>
        <trkpt lat="29.581518" lon="103.384359"><ele>971.71545</ele><time>2025-09-12T00:32:06.000Z</time></trkpt>
        <trkpt lat="29.581599" lon="103.384312"><ele>971.70807</ele><time>2025-09-12T00:32:25.000Z</time></trkpt>
        <trkpt lat="29.581612" lon="103.384203"><ele>971.5622</ele><time>2025-09-12T00:32:55.000Z</time></trkpt>
        <trkpt lat="29.581571" lon="103.384102"><ele>974.6606</ele><time>2025-09-12T00:33:24.000Z</time></trkpt>
        <trkpt lat="29.581528" lon="103.384009"><ele>977.91345</ele><time>2025-09-12T00:33:44.000Z</time></trkpt>
        <trkpt lat="29.581478" lon="103.383917"><ele>980.9326</ele><time>2025-09-12T00:34:22.000Z</time></trkpt>
        <trkpt lat="29.581455" lon="103.383813"><ele>981.6326</ele><time>2025-09-12T00:34:38.000Z</time></trkpt>
        <trkpt lat="29.581427" lon="103.383714"><ele>984.0999</ele><time>2025-09-12T00:34:56.000Z</time></trkpt>
        <trkpt lat="29.581377" lon="103.383626"><ele>983.9165</ele><time>2025-09-12T00:35:16.000Z</time></trkpt>
        <trkpt lat="29.581318" lon="103.383741"><ele>975.6709</ele><time>2025-09-12T00:36:09.000Z</time></trkpt>
        <trkpt lat="29.581343" lon="103.383619"><ele>981.3901</ele><time>2025-09-12T00:36:19.000Z</time></trkpt>
      </trkseg>
      <trkseg>
        <trkpt lat="29.58147" lon="103.383645"><ele>979.18097</ele><time>2025-09-12T00:40:32.000Z</time></trkpt>
        <trkpt lat="29.581556" lon="103.383679"><ele>984.42377</ele><time>2025-09-12T00:40:41.000Z</time></trkpt>
        <trkpt lat="29.581631" lon="103.383611"><ele>987.8041</ele><time>2025-09-12T00:40:52.000Z</time></trkpt>
        <trkpt lat="29.581705" lon="103.383548"><ele>989.0969</ele><time>2025-09-12T00:41:04.000Z</time></trkpt>
        <trkpt lat="29.581772" lon="103.383478"><ele>992.25226</ele><time>2025-09-12T00:41:13.000Z</time></trkpt>
        <trkpt lat="29.581833" lon="103.383402"><ele>995.0392</ele><time>2025-09-12T00:41:21.000Z</time></trkpt>
        <trkpt lat="29.581898" lon="103.383328"><ele>994.7116</ele><time>2025-09-12T00:41:28.000Z</time></trkpt>
        <trkpt lat="29.581936" lon="103.383216"><ele>993.83594</ele><time>2025-09-12T00:41:39.000Z</time></trkpt>
        <trkpt lat="29.581912" lon="103.38311"><ele>996.995</ele><time>2025-09-12T00:41:55.000Z</time></trkpt>
        <trkpt lat="29.581893" lon="103.383009"><ele>999.46606</ele><time>2025-09-12T00:42:13.000Z</time></trkpt>
        <trkpt lat="29.581897" lon="103.382905"><ele>1003.2774</ele><time>2025-09-12T00:42:33.000Z</time></trkpt>
        <trkpt lat="29.58188" lon="103.382799"><ele>1000.67017</ele><time>2025-09-12T00:43:35.000Z</time></trkpt>
        <trkpt lat="29.581859" lon="103.382697"><ele>1000.2518</ele><time>2025-09-12T00:43:52.000Z</time></trkpt>
        <trkpt lat="29.581911" lon="103.382607"><ele>999.02997</ele><time>2025-09-12T00:44:06.000Z</time></trkpt>
        <trkpt lat="29.581969" lon="103.382501"><ele>1000.86066</ele><time>2025-09-12T00:44:13.000Z</time></trkpt>
        <trkpt lat="29.582022" lon="103.38241"><ele>1008.595</ele><time>2025-09-12T00:44:52.000Z</time></trkpt>
        <trkpt lat="29.582026" lon="103.382303"><ele>1007.0966</ele><time>2025-09-12T00:45:06.000Z</time></trkpt>
        <trkpt lat="29.582086" lon="103.382223"><ele>1006.72974</ele><time>2025-09-12T00:45:14.000Z</time></trkpt>
        <trkpt lat="29.582105" lon="103.38212"><ele>1005.7905</ele><time>2025-09-12T00:45:24.000Z</time></trkpt>
        <trkpt lat="29.582139" lon="103.382013"><ele>1008.8302</ele><time>2025-09-12T00:45:34.000Z</time></trkpt>
        <trkpt lat="29.582181" lon="103.381916"><ele>1010.0137</ele><time>2025-09-12T00:45:41.000Z</time></trkpt>
        <trkpt lat="29.582265" lon="103.381877"><ele>1010.3826</ele><time>2025-09-12T00:45:49.000Z</time></trkpt>
        <trkpt lat="29.582345" lon="103.381811"><ele>1007.9563</ele><time>2025-09-12T00:45:59.000Z</time></trkpt>
        <trkpt lat="29.582392" lon="103.381714"><ele>1008.98376</ele><time>2025-09-12T00:46:07.000Z</time></trkpt>
        <trkpt lat="29.582462" lon="103.381636"><ele>1009.5372</ele><time>2025-09-12T00:46:32.000Z</time></trkpt>
        <trkpt lat="29.582504" lon="103.381537"><ele>1007.7384</ele><time>2025-09-12T00:46:40.000Z</time></trkpt>
        <trkpt lat="29.582542" lon="103.381434"><ele>1005.8004</ele><time>2025-09-12T00:46:48.000Z</time></trkpt>
        <trkpt lat="29.5826" lon="103.381349"><ele>1006.638</ele><time>2025-09-12T00:46:55.000Z</time></trkpt>
        <trkpt lat="29.58267" lon="103.381273"><ele>1004.9269</ele><time>2025-09-12T00:47:03.000Z</time></trkpt>
        <trkpt lat="29.582726" lon="103.381175"><ele>1003.017</ele><time>2025-09-12T00:47:11.000Z</time></trkpt>
        <trkpt lat="29.582781" lon="103.381081"><ele>1002.4223</ele><time>2025-09-12T00:47:20.000Z</time></trkpt>
        <trkpt lat="29.582744" lon="103.380971"><ele>1003.0376</ele><time>2025-09-12T00:47:27.000Z</time></trkpt>
        <trkpt lat="29.582741" lon="103.380867"><ele>1003.97687</ele><time>2025-09-12T00:47:34.000Z</time></trkpt>
        <trkpt lat="29.582762" lon="103.380751"><ele>1004.7762</ele><time>2025-09-12T00:47:41.000Z</time></trkpt>
        <trkpt lat="29.58279" lon="103.380639"><ele>1006.72675</ele><time>2025-09-12T00:47:49.000Z</time></trkpt>
        <trkpt lat="29.582815" lon="103.380538"><ele>1007.3297</ele><time>2025-09-12T00:47:56.000Z</time></trkpt>
        <trkpt lat="29.582855" lon="103.380438"><ele>1006.99805</ele><time>2025-09-12T00:48:05.000Z</time></trkpt>
        <trkpt lat="29.582882" lon="103.380337"><ele>1007.19794</ele><time>2025-09-12T00:48:15.000Z</time></trkpt>
        <trkpt lat="29.582958" lon="103.380268"><ele>1006.3297</ele><time>2025-09-12T00:48:27.000Z</time></trkpt>
        <trkpt lat="29.582986" lon="103.380166"><ele>1006.04913</ele><time>2025-09-12T00:48:35.000Z</time></trkpt>
        <trkpt lat="29.583026" lon="103.380072"><ele>1008.1472</ele><time>2025-09-12T00:48:44.000Z</time></trkpt>
        <trkpt lat="29.583098" lon="103.379994"><ele>1011.17773</ele><time>2025-09-12T00:48:54.000Z</time></trkpt>
        <trkpt lat="29.583081" lon="103.379879"><ele>1012.2819</ele><time>2025-09-12T00:49:04.000Z</time></trkpt>
        <trkpt lat="29.583023" lon="103.379794"><ele>1013.3766</ele><time>2025-09-12T00:49:14.000Z</time></trkpt>
        <trkpt lat="29.582977" lon="103.379702"><ele>1016.3411</ele><time>2025-09-12T00:49:26.000Z</time></trkpt>
        <trkpt lat="29.582937" lon="103.379609"><ele>1019.05206</ele><time>2025-09-12T00:49:45.000Z</time></trkpt>
        <trkpt lat="29.582962" lon="103.379508"><ele>1025.3959</ele><time>2025-09-12T00:50:06.000Z</time></trkpt>
        <trkpt lat="29.582869" lon="103.379524"><ele>1026.5994</ele><time>2025-09-12T00:50:51.000Z</time></trkpt>
        <trkpt lat="29.582787" lon="103.379584"><ele>1027.0791</ele><time>2025-09-12T00:51:01.000Z</time></trkpt>
        <trkpt lat="29.582693" lon="103.379629"><ele>1031.0608</ele><time>2025-09-12T00:51:15.000Z</time></trkpt>
        <trkpt lat="29.58268" lon="103.379525"><ele>1030.2994</ele><time>2025-09-12T00:51:25.000Z</time></trkpt>
        <trkpt lat="29.582678" lon="103.379417"><ele>1029.6094</ele><time>2025-09-12T00:51:34.000Z</time></trkpt>
        <trkpt lat="29.582695" lon="103.3793"><ele>1027.3018</ele><time>2025-09-12T00:51:39.000Z</time></trkpt>
        <trkpt lat="29.582788" lon="103.3793"><ele>1032.1489</ele><time>2025-09-12T00:51:49.000Z</time></trkpt>
        <trkpt lat="29.582867" lon="103.37925"><ele>1032.2767</ele><time>2025-09-12T00:52:07.000Z</time></trkpt>
        <trkpt lat="29.582902" lon="103.379145"><ele>1033.8796</ele><time>2025-09-12T00:52:28.000Z</time></trkpt>
        <trkpt lat="29.582977" lon="103.379078"><ele>1036.6936</ele><time>2025-09-12T00:52:39.000Z</time></trkpt>
        <trkpt lat="29.583004" lon="103.378967"><ele>1038.3313</ele><time>2025-09-12T00:52:52.000Z</time></trkpt>
        <trkpt lat="29.583009" lon="103.378862"><ele>1038.3903</ele><time>2025-09-12T00:53:18.000Z</time></trkpt>
        <trkpt lat="29.582989" lon="103.378761"><ele>1040.7395</ele><time>2025-09-12T00:53:40.000Z</time></trkpt>
        <trkpt lat="29.582919" lon="103.378684"><ele>1045.0925</ele><time>2025-09-12T00:54:14.000Z</time></trkpt>
        <trkpt lat="29.582838" lon="103.378638"><ele>1050.61</ele><time>2025-09-12T00:54:42.000Z</time></trkpt>
        <trkpt lat="29.582782" lon="103.378553"><ele>1048.4558</ele><time>2025-09-12T00:55:00.000Z</time></trkpt>
        <trkpt lat="29.582717" lon="103.378458"><ele>1055.7277</ele><time>2025-09-12T00:55:31.000Z</time></trkpt>
        <trkpt lat="29.582617" lon="103.378431"><ele>1058.7045</ele><time>2025-09-12T00:55:47.000Z</time></trkpt>
        <trkpt lat="29.582553" lon="103.378344"><ele>1064.7262</ele><time>2025-09-12T00:56:12.000Z</time></trkpt>
        <trkpt lat="29.582461" lon="103.378347"><ele>1070.5438</ele><time>2025-09-12T00:56:46.000Z</time></trkpt>
        <trkpt lat="29.582442" lon="103.378226"><ele>1075.2834</ele><time>2025-09-12T00:57:06.000Z</time></trkpt>
        <trkpt lat="29.582428" lon="103.37812"><ele>1077.9655</ele><time>2025-09-12T00:57:40.000Z</time></trkpt>
        <trkpt lat="29.582376" lon="103.378034"><ele>1076.9727</ele><time>2025-09-12T00:58:02.000Z</time></trkpt>
        <trkpt lat="29.582334" lon="103.377924"><ele>1084.8091</ele><time>2025-09-12T00:58:19.000Z</time></trkpt>
        <trkpt lat="29.582292" lon="103.377822"><ele>1087.0577</ele><time>2025-09-12T00:58:24.000Z</time></trkpt>
        <trkpt lat="29.582342" lon="103.377731"><ele>1085.4854</ele><time>2025-09-12T00:58:47.000Z</time></trkpt>
        <trkpt lat="29.582338" lon="103.377627"><ele>1090.841</ele><time>2025-09-12T00:59:11.000Z</time></trkpt>
        <trkpt lat="29.582344" lon="103.377516"><ele>1094.876</ele><time>2025-09-12T00:59:32.000Z</time></trkpt>
        <trkpt lat="29.582418" lon="103.377455"><ele>1098.1882</ele><time>2025-09-12T01:00:03.000Z</time></trkpt>
        <trkpt lat="29.582365" lon="103.377371"><ele>1101.9379</ele><time>2025-09-12T01:03:17.000Z</time></trkpt>
        <trkpt lat="29.582281" lon="103.377311"><ele>1103.4869</ele><time>2025-09-12T01:03:38.000Z</time></trkpt>
        <trkpt lat="29.5822" lon="103.377202"><ele>1106.7319</ele><time>2025-09-12T01:03:57.000Z</time></trkpt>
        <trkpt lat="29.582254" lon="103.377117"><ele>1108.2213</ele><time>2025-09-12T01:04:12.000Z</time></trkpt>
        <trkpt lat="29.582172" lon="103.377162"><ele>1111.9214</ele><time>2025-09-12T01:04:39.000Z</time></trkpt>
        <trkpt lat="29.582092" lon="103.377113"><ele>1116.4064</ele><time>2025-09-12T01:05:00.000Z</time></trkpt>
        <trkpt lat="29.582071" lon="103.37701"><ele>1122.5918</ele><time>2025-09-12T01:05:32.000Z</time></trkpt>
        <trkpt lat="29.582092" lon="103.376903"><ele>1120.7438</ele><time>2025-09-12T01:05:56.000Z</time></trkpt>
        <trkpt lat="29.58211" lon="103.376801"><ele>1127.8735</ele><time>2025-09-12T01:06:42.000Z</time></trkpt>
        <trkpt lat="29.582027" lon="103.376759"><ele>1133.7764</ele><time>2025-09-12T01:07:46.000Z</time></trkpt>
        <trkpt lat="29.582032" lon="103.376649"><ele>1137.0349</ele><time>2025-09-12T01:08:16.000Z</time></trkpt>
        <trkpt lat="29.582016" lon="103.376546"><ele>1142.0321</ele><time>2025-09-12T01:08:55.000Z</time></trkpt>
        <trkpt lat="29.581943" lon="103.376609"><ele>1152.8977</ele><time>2025-09-12T01:10:16.000Z</time></trkpt>
        <trkpt lat="29.581858" lon="103.376567"><ele>1156.4172</ele><time>2025-09-12T01:10:42.000Z</time></trkpt>
        <trkpt lat="29.581765" lon="103.376569"><ele>1157.8243</ele><time>2025-09-12T01:11:39.000Z</time></trkpt>
        <trkpt lat="29.581733" lon="103.376465"><ele>1160.6667</ele><time>2025-09-12T01:12:02.000Z</time></trkpt>
        <trkpt lat="29.581737" lon="103.376361"><ele>1163.5808</ele><time>2025-09-12T01:12:15.000Z</time></trkpt>
        <trkpt lat="29.581789" lon="103.376267"><ele>1167.205</ele><time>2025-09-12T01:12:44.000Z</time></trkpt>
        <trkpt lat="29.5817" lon="103.376289"><ele>1176.2494</ele><time>2025-09-12T01:16:51.000Z</time></trkpt>
        <trkpt lat="29.581621" lon="103.376353"><ele>1184.8805</ele><time>2025-09-12T01:17:16.000Z</time></trkpt>
        <trkpt lat="29.581531" lon="103.376345"><ele>1188.7529</ele><time>2025-09-12T01:18:37.000Z</time></trkpt>
        <trkpt lat="29.581427" lon="103.376358"><ele>1194.431</ele><time>2025-09-12T01:19:32.000Z</time></trkpt>
        <trkpt lat="29.581338" lon="103.37638"><ele>1202.467</ele><time>2025-09-12T01:21:05.000Z</time></trkpt>
        <trkpt lat="29.581255" lon="103.376443"><ele>1203.5576</ele><time>2025-09-12T01:21:25.000Z</time></trkpt>
        <trkpt lat="29.581169" lon="103.376482"><ele>1214.485</ele><time>2025-09-12T01:22:50.000Z</time></trkpt>
        <trkpt lat="29.581078" lon="103.37648"><ele>1222.3424</ele><time>2025-09-12T01:23:40.000Z</time></trkpt>
        <trkpt lat="29.580995" lon="103.376428"><ele>1225.7411</ele><time>2025-09-12T01:24:13.000Z</time></trkpt>
        <trkpt lat="29.581086" lon="103.37641"><ele>1234.3698</ele><time>2025-09-12T01:24:40.000Z</time></trkpt>
        <trkpt lat="29.580963" lon="103.376407"><ele>1233.6194</ele><time>2025-09-12T01:24:52.000Z</time></trkpt>
        <trkpt lat="29.580939" lon="103.376292"><ele>1230.7175</ele><time>2025-09-12T01:25:27.000Z</time></trkpt>
        <trkpt lat="29.581001" lon="103.376373"><ele>1234.125</ele><time>2025-09-12T01:25:50.000Z</time></trkpt>
        <trkpt lat="29.580956" lon="103.37628"><ele>1234.9324</ele><time>2025-09-12T01:26:14.000Z</time></trkpt>
        <trkpt lat="29.581039" lon="103.376227"><ele>1245.9482</ele><time>2025-09-12T01:26:47.000Z</time></trkpt>
        <trkpt lat="29.580946" lon="103.376224"><ele>1245.796</ele><time>2025-09-12T01:27:39.000Z</time></trkpt>
        <trkpt lat="29.580864" lon="103.376267"><ele>1251.9387</ele><time>2025-09-12T01:27:55.000Z</time></trkpt>
        <trkpt lat="29.580776" lon="103.376316"><ele>1257.4835</ele><time>2025-09-12T01:28:20.000Z</time></trkpt>
        <trkpt lat="29.580685" lon="103.376314"><ele>1256.4044</ele><time>2025-09-12T01:29:14.000Z</time></trkpt>
        <trkpt lat="29.580592" lon="103.376343"><ele>1255.2722</ele><time>2025-09-12T01:29:31.000Z</time></trkpt>
        <trkpt lat="29.5805" lon="103.376336"><ele>1253.7786</ele><time>2025-09-12T01:29:42.000Z</time></trkpt>
        <trkpt lat="29.580407" lon="103.376329"><ele>1251.8967</ele><time>2025-09-12T01:29:54.000Z</time></trkpt>
        <trkpt lat="29.580313" lon="103.376302"><ele>1251.9369</ele><time>2025-09-12T01:30:03.000Z</time></trkpt>
        <trkpt lat="29.580227" lon="103.37626"><ele>1250.2302</ele><time>2025-09-12T01:30:11.000Z</time></trkpt>
        <trkpt lat="29.580136" lon="103.376276"><ele>1255.7261</ele><time>2025-09-12T01:30:22.000Z</time></trkpt>
        <trkpt lat="29.580061" lon="103.376215"><ele>1254.7982</ele><time>2025-09-12T01:30:31.000Z</time></trkpt>
        <trkpt lat="29.580044" lon="103.376112"><ele>1250.4625</ele><time>2025-09-12T01:30:48.000Z</time></trkpt>
        <trkpt lat="29.579992" lon="103.376022"><ele>1250.6605</ele><time>2025-09-12T01:31:28.000Z</time></trkpt>
        <trkpt lat="29.579978" lon="103.375917"><ele>1250.5975</ele><time>2025-09-12T01:31:41.000Z</time></trkpt>
        <trkpt lat="29.579898" lon="103.37582"><ele>1250.0876</ele><time>2025-09-12T01:31:54.000Z</time></trkpt>
        <trkpt lat="29.579855" lon="103.375728"><ele>1250.9304</ele><time>2025-09-12T01:32:07.000Z</time></trkpt>
        <trkpt lat="29.579877" lon="103.375622"><ele>1251.201</ele><time>2025-09-12T01:32:29.000Z</time></trkpt>
        <trkpt lat="29.579953" lon="103.375557"><ele>1255.7626</ele><time>2025-09-12T01:32:49.000Z</time></trkpt>
        <trkpt lat="29.580042" lon="103.375492"><ele>1259.4133</ele><time>2025-09-12T01:33:19.000Z</time></trkpt>
        <trkpt lat="29.58012" lon="103.375429"><ele>1266.7175</ele><time>2025-09-12T01:33:56.000Z</time></trkpt>
        <trkpt lat="29.580206" lon="103.375483"><ele>1276.327</ele><time>2025-09-12T01:34:41.000Z</time></trkpt>
        <trkpt lat="29.580296" lon="103.375447"><ele>1281.2878</ele><time>2025-09-12T01:35:25.000Z</time></trkpt>
        <trkpt lat="29.580378" lon="103.375501"><ele>1283.2281</ele><time>2025-09-12T01:35:43.000Z</time></trkpt>
        <trkpt lat="29.580445" lon="103.375431"><ele>1287.072</ele><time>2025-09-12T01:36:18.000Z</time></trkpt>
        <trkpt lat="29.580536" lon="103.375387"><ele>1292.3707</ele><time>2025-09-12T01:36:49.000Z</time></trkpt>
        <trkpt lat="29.580624" lon="103.375357"><ele>1293.1877</ele><time>2025-09-12T01:37:02.000Z</time></trkpt>
        <trkpt lat="29.58073" lon="103.375359"><ele>1292.8058</ele><time>2025-09-12T01:37:31.000Z</time></trkpt>
        <trkpt lat="29.580767" lon="103.375256"><ele>1298.6526</ele><time>2025-09-12T01:40:56.000Z</time></trkpt>
        <trkpt lat="29.580774" lon="103.375152"><ele>1304.8088</ele><time>2025-09-12T01:41:21.000Z</time></trkpt>
        <trkpt lat="29.580753" lon="103.375047"><ele>1312.7528</ele><time>2025-09-12T01:42:14.000Z</time></trkpt>
        <trkpt lat="29.580773" lon="103.374944"><ele>1318.1595</ele><time>2025-09-12T01:42:54.000Z</time></trkpt>
        <trkpt lat="29.580766" lon="103.374835"><ele>1322.6511</ele><time>2025-09-12T01:43:45.000Z</time></trkpt>
        <trkpt lat="29.580718" lon="103.374745"><ele>1328.7874</ele><time>2025-09-12T01:45:47.000Z</time></trkpt>
        <trkpt lat="29.580727" lon="103.374634"><ele>1325.5596</ele><time>2025-09-12T01:46:04.000Z</time></trkpt>
        <trkpt lat="29.580713" lon="103.374526"><ele>1327.3019</ele><time>2025-09-12T01:46:32.000Z</time></trkpt>
        <trkpt lat="29.580692" lon="103.374423"><ele>1326.5677</ele><time>2025-09-12T01:47:02.000Z</time></trkpt>
        <trkpt lat="29.580693" lon="103.374318"><ele>1330.4622</ele><time>2025-09-12T01:47:20.000Z</time></trkpt>
        <trkpt lat="29.580709" lon="103.374213"><ele>1336.4431</ele><time>2025-09-12T01:47:48.000Z</time></trkpt>
        <trkpt lat="29.580705" lon="103.374105"><ele>1337.84</ele><time>2025-09-12T01:48:25.000Z</time></trkpt>
        <trkpt lat="29.580693" lon="103.373988"><ele>1338.4967</ele><time>2025-09-12T01:48:53.000Z</time></trkpt>
        <trkpt lat="29.580604" lon="103.373946"><ele>1333.5243</ele><time>2025-09-12T01:51:25.000Z</time></trkpt>
        <trkpt lat="29.580677" lon="103.374045"><ele>1343.5725</ele><time>2025-09-12T01:51:26.000Z</time></trkpt>
        <trkpt lat="29.580696" lon="103.373935"><ele>1345.9915</ele><time>2025-09-12T01:51:55.000Z</time></trkpt>
        <trkpt lat="29.580657" lon="103.373841"><ele>1355.1805</ele><time>2025-09-12T01:52:16.000Z</time></trkpt>
        <trkpt lat="29.580565" lon="103.373823"><ele>1353.7472</ele><time>2025-09-12T01:52:31.000Z</time></trkpt>
        <trkpt lat="29.580519" lon="103.373731"><ele>1351.7104</ele><time>2025-09-12T01:52:55.000Z</time></trkpt>
        <trkpt lat="29.580456" lon="103.373648"><ele>1353.0829</ele><time>2025-09-12T01:53:10.000Z</time></trkpt>
        <trkpt lat="29.580404" lon="103.373551"><ele>1355.7404</ele><time>2025-09-12T01:53:22.000Z</time></trkpt>
        <trkpt lat="29.580328" lon="103.373487"><ele>1352.792</ele><time>2025-09-12T01:53:32.000Z</time></trkpt>
        <trkpt lat="29.580281" lon="103.373389"><ele>1363.343</ele><time>2025-09-12T01:53:50.000Z</time></trkpt>
        <trkpt lat="29.580172" lon="103.373371"><ele>1361.4974</ele><time>2025-09-12T01:54:08.000Z</time></trkpt>
        <trkpt lat="29.580122" lon="103.373283"><ele>1363.5568</ele><time>2025-09-12T01:54:24.000Z</time></trkpt>
        <trkpt lat="29.580121" lon="103.373179"><ele>1365.0293</ele><time>2025-09-12T01:54:42.000Z</time></trkpt>
        <trkpt lat="29.580029" lon="103.373205"><ele>1366.2626</ele><time>2025-09-12T01:54:56.000Z</time></trkpt>
        <trkpt lat="29.579989" lon="103.37311"><ele>1376.266</ele><time>2025-09-12T01:56:09.000Z</time></trkpt>
        <trkpt lat="29.579891" lon="103.373058"><ele>1379.8835</ele><time>2025-09-12T01:56:36.000Z</time></trkpt>
        <trkpt lat="29.579853" lon="103.372959"><ele>1385.4775</ele><time>2025-09-12T01:57:29.000Z</time></trkpt>
        <trkpt lat="29.57978" lon="103.372895"><ele>1392.1287</ele><time>2025-09-12T01:57:59.000Z</time></trkpt>
        <trkpt lat="29.579754" lon="103.37279"><ele>1398.3624</ele><time>2025-09-12T01:58:18.000Z</time></trkpt>
        <trkpt lat="29.579672" lon="103.37284"><ele>1399.0226</ele><time>2025-09-12T01:58:33.000Z</time></trkpt>
        <trkpt lat="29.579579" lon="103.37283"><ele>1401.7888</ele><time>2025-09-12T01:58:49.000Z</time></trkpt>
        <trkpt lat="29.579517" lon="103.372755"><ele>1404.1494</ele><time>2025-09-12T01:59:02.000Z</time></trkpt>
        <trkpt lat="29.579482" lon="103.372655"><ele>1405.0946</ele><time>2025-09-12T01:59:15.000Z</time></trkpt>
        <trkpt lat="29.579418" lon="103.372582"><ele>1406.3187</ele><time>2025-09-12T01:59:32.000Z</time></trkpt>
        <trkpt lat="29.579342" lon="103.372516"><ele>1411.6611</ele><time>2025-09-12T01:59:50.000Z</time></trkpt>
        <trkpt lat="29.579249" lon="103.372502"><ele>1414.3528</ele><time>2025-09-12T02:00:03.000Z</time></trkpt>
        <trkpt lat="29.579155" lon="103.372515"><ele>1417.8966</ele><time>2025-09-12T02:00:15.000Z</time></trkpt>
        <trkpt lat="29.579098" lon="103.37243"><ele>1417.1931</ele><time>2025-09-12T02:00:38.000Z</time></trkpt>
        <trkpt lat="29.579058" lon="103.372327"><ele>1417.0981</ele><time>2025-09-12T02:01:04.000Z</time></trkpt>
        <trkpt lat="29.578972" lon="103.37228"><ele>1420.1946</ele><time>2025-09-12T02:01:26.000Z</time></trkpt>
        <trkpt lat="29.578894" lon="103.372226"><ele>1420.1658</ele><time>2025-09-12T02:01:42.000Z</time></trkpt>
        <trkpt lat="29.578808" lon="103.372193"><ele>1420.773</ele><time>2025-09-12T02:01:53.000Z</time></trkpt>
        <trkpt lat="29.578773" lon="103.372093"><ele>1421.5394</ele><time>2025-09-12T02:02:11.000Z</time></trkpt>
        <trkpt lat="29.578723" lon="103.371992"><ele>1421.4635</ele><time>2025-09-12T02:02:34.000Z</time></trkpt>
        <trkpt lat="29.578631" lon="103.371975"><ele>1424.8514</ele><time>2025-09-12T02:02:56.000Z</time></trkpt>
        <trkpt lat="29.578611" lon="103.371869"><ele>1427.4221</ele><time>2025-09-12T02:03:18.000Z</time></trkpt>
        <trkpt lat="29.578528" lon="103.371809"><ele>1429.4181</ele><time>2025-09-12T02:03:41.000Z</time></trkpt>
        <trkpt lat="29.578468" lon="103.371721"><ele>1433.2848</ele><time>2025-09-12T02:03:57.000Z</time></trkpt>
        <trkpt lat="29.578426" lon="103.371626"><ele>1433.5182</ele><time>2025-09-12T02:04:06.000Z</time></trkpt>
        <trkpt lat="29.578337" lon="103.371579"><ele>1437.0331</ele><time>2025-09-12T02:04:46.000Z</time></trkpt>
        <trkpt lat="29.578265" lon="103.371513"><ele>1444.4086</ele><time>2025-09-12T02:05:29.000Z</time></trkpt>
        <trkpt lat="29.578186" lon="103.371461"><ele>1449.2979</ele><time>2025-09-12T02:06:23.000Z</time></trkpt>
        <trkpt lat="29.578129" lon="103.371378"><ele>1453.7524</ele><time>2025-09-12T02:06:43.000Z</time></trkpt>
        <trkpt lat="29.578045" lon="103.371332"><ele>1458.5889</ele><time>2025-09-12T02:07:37.000Z</time></trkpt>
        <trkpt lat="29.577958" lon="103.371302"><ele>1458.7444</ele><time>2025-09-12T02:08:06.000Z</time></trkpt>
        <trkpt lat="29.577907" lon="103.371205"><ele>1464.2068</ele><time>2025-09-12T02:08:41.000Z</time></trkpt>
        <trkpt lat="29.577822" lon="103.371165"><ele>1471.1562</ele><time>2025-09-12T02:09:01.000Z</time></trkpt>
        <trkpt lat="29.577741" lon="103.371106"><ele>1472.0359</ele><time>2025-09-12T02:09:21.000Z</time></trkpt>
        <trkpt lat="29.577665" lon="103.371048"><ele>1477.7262</ele><time>2025-09-12T02:09:45.000Z</time></trkpt>
        <trkpt lat="29.577605" lon="103.370966"><ele>1476.8004</ele><time>2025-09-12T02:10:05.000Z</time></trkpt>
      </trkseg>
      <trkseg>
        <trkpt lat="29.576994" lon="103.369247"><ele>1480.4397</ele><time>2025-09-12T02:21:52.000Z</time></trkpt>
        <trkpt lat="29.576983" lon="103.369131"><ele>1484.8539</ele><time>2025-09-12T02:22:11.000Z</time></trkpt>
        <trkpt lat="29.577" lon="103.369027"><ele>1486.4363</ele><time>2025-09-12T02:22:22.000Z</time></trkpt>
        <trkpt lat="29.577015" lon="103.368917"><ele>1484.2616</ele><time>2025-09-12T02:22:33.000Z</time></trkpt>
        <trkpt lat="29.577029" lon="103.36881"><ele>1484.3788</ele><time>2025-09-12T02:22:42.000Z</time></trkpt>
        <trkpt lat="29.577035" lon="103.368696"><ele>1487.3315</ele><time>2025-09-12T02:22:52.000Z</time></trkpt>
        <trkpt lat="29.577043" lon="103.368583"><ele>1485.0503</ele><time>2025-09-12T02:23:02.000Z</time></trkpt>
        <trkpt lat="29.577059" lon="103.368472"><ele>1485.8364</ele><time>2025-09-12T02:23:12.000Z</time></trkpt>
        <trkpt lat="29.577091" lon="103.368372"><ele>1488.4086</ele><time>2025-09-12T02:23:24.000Z</time></trkpt>
        <trkpt lat="29.577103" lon="103.368268"><ele>1487.8323</ele><time>2025-09-12T02:23:38.000Z</time></trkpt>
        <trkpt lat="29.577113" lon="103.368165"><ele>1492.247</ele><time>2025-09-12T02:23:53.000Z</time></trkpt>
        <trkpt lat="29.577129" lon="103.36806"><ele>1497.9558</ele><time>2025-09-12T02:24:23.000Z</time></trkpt>
        <trkpt lat="29.577196" lon="103.367978"><ele>1504.2007</ele><time>2025-09-12T02:25:05.000Z</time></trkpt>
        <trkpt lat="29.577277" lon="103.367922"><ele>1504.5417</ele><time>2025-09-12T02:25:48.000Z</time></trkpt>
        <trkpt lat="29.577351" lon="103.367861"><ele>1510.9178</ele><time>2025-09-12T02:26:13.000Z</time></trkpt>
        <trkpt lat="29.577324" lon="103.367763"><ele>1512.0702</ele><time>2025-09-12T02:26:45.000Z</time></trkpt>
        <trkpt lat="29.577296" lon="103.367664"><ele>1513.8564</ele><time>2025-09-12T02:27:12.000Z</time></trkpt>
        <trkpt lat="29.577203" lon="103.367643"><ele>1511.063</ele><time>2025-09-12T02:27:31.000Z</time></trkpt>
        <trkpt lat="29.57714" lon="103.367569"><ele>1510.1881</ele><time>2025-09-12T02:27:43.000Z</time></trkpt>
        <trkpt lat="29.57711" lon="103.367452"><ele>1506.8234</ele><time>2025-09-12T02:27:55.000Z</time></trkpt>
        <trkpt lat="29.577047" lon="103.367355"><ele>1499.1688</ele><time>2025-09-12T02:28:09.000Z</time></trkpt>
        <trkpt lat="29.57697" lon="103.367292"><ele>1493.9716</ele><time>2025-09-12T02:28:20.000Z</time></trkpt>
        <trkpt lat="29.576864" lon="103.367309"><ele>1495.2809</ele><time>2025-09-12T02:28:28.000Z</time></trkpt>
        <trkpt lat="29.576806" lon="103.367225"><ele>1499.9574</ele><time>2025-09-12T02:28:34.000Z</time></trkpt>
        <trkpt lat="29.57677" lon="103.36713"><ele>1500.7891</ele><time>2025-09-12T02:28:42.000Z</time></trkpt>
        <trkpt lat="29.576719" lon="103.367045"><ele>1500.2263</ele><time>2025-09-12T02:28:52.000Z</time></trkpt>
        <trkpt lat="29.576688" lon="103.366948"><ele>1501.6451</ele><time>2025-09-12T02:29:02.000Z</time></trkpt>
        <trkpt lat="29.576632" lon="103.366856"><ele>1503.9307</ele><time>2025-09-12T02:29:12.000Z</time></trkpt>
        <trkpt lat="29.576549" lon="103.366815"><ele>1501.7065</ele><time>2025-09-12T02:29:22.000Z</time></trkpt>
        <trkpt lat="29.576464" lon="103.366751"><ele>1501.5608</ele><time>2025-09-12T02:29:32.000Z</time></trkpt>
        <trkpt lat="29.576443" lon="103.366634"><ele>1503.1722</ele><time>2025-09-12T02:29:40.000Z</time></trkpt>
        <trkpt lat="29.576397" lon="103.366526"><ele>1502.7122</ele><time>2025-09-12T02:29:52.000Z</time></trkpt>
        <trkpt lat="29.576392" lon="103.366409"><ele>1502.222</ele><time>2025-09-12T02:30:05.000Z</time></trkpt>
        <trkpt lat="29.576327" lon="103.366328"><ele>1499.6434</ele><time>2025-09-12T02:30:19.000Z</time></trkpt>
        <trkpt lat="29.576309" lon="103.366219"><ele>1498.7097</ele><time>2025-09-12T02:30:33.000Z</time></trkpt>
        <trkpt lat="29.576347" lon="103.366117"><ele>1498.5535</ele><time>2025-09-12T02:30:48.000Z</time></trkpt>
        <trkpt lat="29.576263" lon="103.366073"><ele>1481.7449</ele><time>2025-09-12T02:31:09.000Z</time></trkpt>
        <trkpt lat="29.576207" lon="103.365991"><ele>1479.7225</ele><time>2025-09-12T02:31:25.000Z</time></trkpt>
        <trkpt lat="29.576141" lon="103.365907"><ele>1473.1167</ele><time>2025-09-12T02:31:46.000Z</time></trkpt>
        <trkpt lat="29.576067" lon="103.365837"><ele>1474.8623</ele><time>2025-09-12T02:32:04.000Z</time></trkpt>
        <trkpt lat="29.575973" lon="103.365786"><ele>1470.1298</ele><time>2025-09-12T02:32:20.000Z</time></trkpt>
        <trkpt lat="29.575879" lon="103.365753"><ele>1467.4037</ele><time>2025-09-12T02:32:33.000Z</time></trkpt>
        <trkpt lat="29.57582" lon="103.365675"><ele>1470.3027</ele><time>2025-09-12T02:32:48.000Z</time></trkpt>
        <trkpt lat="29.575736" lon="103.365622"><ele>1470.733</ele><time>2025-09-12T02:32:59.000Z</time></trkpt>
        <trkpt lat="29.575713" lon="103.365518"><ele>1468.6876</ele><time>2025-09-12T02:33:20.000Z</time></trkpt>
      </trkseg>
      <trkseg>
        <trkpt lat="29.575643" lon="103.365567"><ele>1475.5284</ele><time>2025-09-12T02:47:29.000Z</time></trkpt>
        <trkpt lat="29.575567" lon="103.365499"><ele>1473.5245</ele><time>2025-09-12T02:47:49.000Z</time></trkpt>
        <trkpt lat="29.575485" lon="103.365449"><ele>1473.5728</ele><time>2025-09-12T02:48:20.000Z</time></trkpt>
        <trkpt lat="29.575444" lon="103.365357"><ele>1473.6527</ele><time>2025-09-12T02:48:43.000Z</time></trkpt>
        <trkpt lat="29.575358" lon="103.365325"><ele>1473.224</ele><time>2025-09-12T02:49:12.000Z</time></trkpt>
        <trkpt lat="29.575268" lon="103.365301"><ele>1477.275</ele><time>2025-09-12T02:49:35.000Z</time></trkpt>
        <trkpt lat="29.57521" lon="103.365204"><ele>1492.5104</ele><time>2025-09-12T02:50:39.000Z</time></trkpt>
        <trkpt lat="29.575133" lon="103.365143"><ele>1494.8026</ele><time>2025-09-12T02:51:03.000Z</time></trkpt>
        <trkpt lat="29.575059" lon="103.365079"><ele>1494.9742</ele><time>2025-09-12T02:51:17.000Z</time></trkpt>
        <trkpt lat="29.575057" lon="103.364955"><ele>1495.459</ele><time>2025-09-12T02:51:32.000Z</time></trkpt>
        <trkpt lat="29.575086" lon="103.364848"><ele>1509.4149</ele><time>2025-09-12T02:51:54.000Z</time></trkpt>
        <trkpt lat="29.574999" lon="103.364736"><ele>1517.0653</ele><time>2025-09-12T02:52:34.000Z</time></trkpt>
        <trkpt lat="29.574949" lon="103.364645"><ele>1528.1484</ele><time>2025-09-12T02:53:44.000Z</time></trkpt>
        <trkpt lat="29.574881" lon="103.364569"><ele>1531.0844</ele><time>2025-09-12T02:54:17.000Z</time></trkpt>
        <trkpt lat="29.574812" lon="103.364499"><ele>1542.7793</ele><time>2025-09-12T02:55:10.000Z</time></trkpt>
        <trkpt lat="29.57483" lon="103.364398"><ele>1545.3816</ele><time>2025-09-12T02:55:37.000Z</time></trkpt>
        <trkpt lat="29.574801" lon="103.364298"><ele>1545.6858</ele><time>2025-09-12T02:55:56.000Z</time></trkpt>
        <trkpt lat="29.57472" lon="103.364236"><ele>1545.2559</ele><time>2025-09-12T02:56:06.000Z</time></trkpt>
        <trkpt lat="29.57463" lon="103.364154"><ele>1546.7688</ele><time>2025-09-12T02:56:27.000Z</time></trkpt>
        <trkpt lat="29.574559" lon="103.36409"><ele>1550.8077</ele><time>2025-09-12T02:56:41.000Z</time></trkpt>
        <trkpt lat="29.574545" lon="103.363983"><ele>1555.4319</ele><time>2025-09-12T02:57:05.000Z</time></trkpt>
        <trkpt lat="29.574516" lon="103.363885"><ele>1557.4025</ele><time>2025-09-12T02:57:29.000Z</time></trkpt>
        <trkpt lat="29.574543" lon="103.36378"><ele>1561.802</ele><time>2025-09-12T02:57:59.000Z</time></trkpt>
        <trkpt lat="29.57459" lon="103.363682"><ele>1568.0906</ele><time>2025-09-12T02:58:20.000Z</time></trkpt>
        <trkpt lat="29.574675" lon="103.36372"><ele>1578.1486</ele><time>2025-09-12T02:59:11.000Z</time></trkpt>
        <trkpt lat="29.574758" lon="103.36368"><ele>1575.1088</ele><time>2025-09-12T02:59:53.000Z</time></trkpt>
        <trkpt lat="29.574692" lon="103.363599"><ele>1574.7286</ele><time>2025-09-12T03:00:55.000Z</time></trkpt>
        <trkpt lat="29.574677" lon="103.363735"><ele>1563.9862</ele><time>2025-09-12T03:01:11.000Z</time></trkpt>
        <trkpt lat="29.574742" lon="103.363603"><ele>1577.4562</ele><time>2025-09-12T03:01:12.000Z</time></trkpt>
        <trkpt lat="29.574688" lon="103.363512"><ele>1573.0538</ele><time>2025-09-12T03:01:23.000Z</time></trkpt>
        <trkpt lat="29.574681" lon="103.363397"><ele>1573.4691</ele><time>2025-09-12T03:01:43.000Z</time></trkpt>
        <trkpt lat="29.574624" lon="103.363308"><ele>1576.1088</ele><time>2025-09-12T03:01:59.000Z</time></trkpt>
        <trkpt lat="29.574642" lon="103.363195"><ele>1582.5284</ele><time>2025-09-12T03:02:33.000Z</time></trkpt>
        <trkpt lat="29.57462" lon="103.363091"><ele>1586.2412</ele><time>2025-09-12T03:03:01.000Z</time></trkpt>
        <trkpt lat="29.574614" lon="103.362982"><ele>1590.2037</ele><time>2025-09-12T03:03:18.000Z</time></trkpt>
        <trkpt lat="29.574656" lon="103.362884"><ele>1593.295</ele><time>2025-09-12T03:03:32.000Z</time></trkpt>
        <trkpt lat="29.574736" lon="103.362941"><ele>1593.7544</ele><time>2025-09-12T03:03:51.000Z</time></trkpt>
        <trkpt lat="29.574803" lon="103.36285"><ele>1592.4996</ele><time>2025-09-12T03:04:05.000Z</time></trkpt>
        <trkpt lat="29.574893" lon="103.36283"><ele>1592.4048</ele><time>2025-09-12T03:04:16.000Z</time></trkpt>
        <trkpt lat="29.574986" lon="103.362791"><ele>1593.8164</ele><time>2025-09-12T03:04:27.000Z</time></trkpt>
        <trkpt lat="29.574949" lon="103.362695"><ele>1596.1614</ele><time>2025-09-12T03:04:47.000Z</time></trkpt>
        <trkpt lat="29.575034" lon="103.362659"><ele>1600.6512</ele><time>2025-09-12T03:04:58.000Z</time></trkpt>
        <trkpt lat="29.574972" lon="103.362572"><ele>1605.8495</ele><time>2025-09-12T03:05:16.000Z</time></trkpt>
        <trkpt lat="29.574926" lon="103.362479"><ele>1609.5964</ele><time>2025-09-12T03:05:33.000Z</time></trkpt>
        <trkpt lat="29.574847" lon="103.362422"><ele>1611.0002</ele><time>2025-09-12T03:05:48.000Z</time></trkpt>
        <trkpt lat="29.574765" lon="103.362472"><ele>1616.8489</ele><time>2025-09-12T03:06:04.000Z</time></trkpt>
        <trkpt lat="29.574677" lon="103.362513"><ele>1621.2317</ele><time>2025-09-12T03:06:16.000Z</time></trkpt>
        <trkpt lat="29.574577" lon="103.362502"><ele>1620.2189</ele><time>2025-09-12T03:06:27.000Z</time></trkpt>
        <trkpt lat="29.574479" lon="103.36253"><ele>1620.5873</ele><time>2025-09-12T03:06:37.000Z</time></trkpt>
        <trkpt lat="29.574383" lon="103.362541"><ele>1618.4681</ele><time>2025-09-12T03:06:46.000Z</time></trkpt>
        <trkpt lat="29.574286" lon="103.36255"><ele>1615.8301</ele><time>2025-09-12T03:06:55.000Z</time></trkpt>
        <trkpt lat="29.574196" lon="103.362555"><ele>1616.2819</ele><time>2025-09-12T03:07:03.000Z</time></trkpt>
        <trkpt lat="29.574093" lon="103.362517"><ele>1617.5557</ele><time>2025-09-12T03:07:16.000Z</time></trkpt>
        <trkpt lat="29.574024" lon="103.362435"><ele>1619.7292</ele><time>2025-09-12T03:07:32.000Z</time></trkpt>
        <trkpt lat="29.573938" lon="103.36239"><ele>1620.5267</ele><time>2025-09-12T03:07:47.000Z</time></trkpt>
        <trkpt lat="29.573866" lon="103.362322"><ele>1623.8896</ele><time>2025-09-12T03:08:07.000Z</time></trkpt>
        <trkpt lat="29.573798" lon="103.362225"><ele>1623.3684</ele><time>2025-09-12T03:08:23.000Z</time></trkpt>
        <trkpt lat="29.573717" lon="103.36218"><ele>1633.1298</ele><time>2025-09-12T03:09:00.000Z</time></trkpt>
        <trkpt lat="29.573647" lon="103.362109"><ele>1634.2106</ele><time>2025-09-12T03:09:32.000Z</time></trkpt>
        <trkpt lat="29.573565" lon="103.362062"><ele>1637.4706</ele><time>2025-09-12T03:09:49.000Z</time></trkpt>
        <trkpt lat="29.573517" lon="103.361974"><ele>1642.601</ele><time>2025-09-12T03:11:01.000Z</time></trkpt>
        <trkpt lat="29.573441" lon="103.361912"><ele>1648.9355</ele><time>2025-09-12T03:11:47.000Z</time></trkpt>
        <trkpt lat="29.573353" lon="103.361871"><ele>1656.2227</ele><time>2025-09-12T03:12:12.000Z</time></trkpt>
        <trkpt lat="29.573287" lon="103.361798"><ele>1658.8184</ele><time>2025-09-12T03:12:49.000Z</time></trkpt>
        <trkpt lat="29.573216" lon="103.361723"><ele>1660.5736</ele><time>2025-09-12T03:13:03.000Z</time></trkpt>
        <trkpt lat="29.573134" lon="103.361667"><ele>1659.749</ele><time>2025-09-12T03:13:21.000Z</time></trkpt>
        <trkpt lat="29.573036" lon="103.361647"><ele>1661.6375</ele><time>2025-09-12T03:13:32.000Z</time></trkpt>
        <trkpt lat="29.572947" lon="103.36162"><ele>1663.2565</ele><time>2025-09-12T03:13:47.000Z</time></trkpt>
        <trkpt lat="29.572854" lon="103.361618"><ele>1664.9054</ele><time>2025-09-12T03:14:00.000Z</time></trkpt>
        <trkpt lat="29.572769" lon="103.361654"><ele>1666.8685</ele><time>2025-09-12T03:14:14.000Z</time></trkpt>
        <trkpt lat="29.572674" lon="103.361681"><ele>1666.7274</ele><time>2025-09-12T03:14:29.000Z</time></trkpt>
        <trkpt lat="29.57259" lon="103.361742"><ele>1669.9885</ele><time>2025-09-12T03:14:52.000Z</time></trkpt>
        <trkpt lat="29.572495" lon="103.361778"><ele>1674.6919</ele><time>2025-09-12T03:15:44.000Z</time></trkpt>
        <trkpt lat="29.572416" lon="103.361723"><ele>1675.0146</ele><time>2025-09-12T03:16:15.000Z</time></trkpt>
        <trkpt lat="29.572351" lon="103.36183"><ele>1680.807</ele><time>2025-09-12T03:16:57.000Z</time></trkpt>
        <trkpt lat="29.572255" lon="103.361828"><ele>1682.8477</ele><time>2025-09-12T03:17:34.000Z</time></trkpt>
        <trkpt lat="29.572166" lon="103.361849"><ele>1687.7502</ele><time>2025-09-12T03:17:51.000Z</time></trkpt>
        <trkpt lat="29.572073" lon="103.361858"><ele>1693.4747</ele><time>2025-09-12T03:18:36.000Z</time></trkpt>
        <trkpt lat="29.57198" lon="103.361842"><ele>1699.1138</ele><time>2025-09-12T03:19:24.000Z</time></trkpt>
        <trkpt lat="29.571889" lon="103.361852"><ele>1703.687</ele><time>2025-09-12T03:20:10.000Z</time></trkpt>
        <trkpt lat="29.57181" lon="103.361903"><ele>1707.0786</ele><time>2025-09-12T03:20:33.000Z</time></trkpt>
        <trkpt lat="29.571713" lon="103.361896"><ele>1711.197</ele><time>2025-09-12T03:20:43.000Z</time></trkpt>
        <trkpt lat="29.571632" lon="103.361848"><ele>1711.0492</ele><time>2025-09-12T03:20:54.000Z</time></trkpt>
        <trkpt lat="29.571568" lon="103.361772"><ele>1709.3351</ele><time>2025-09-12T03:21:05.000Z</time></trkpt>
        <trkpt lat="29.571472" lon="103.361745"><ele>1705.9703</ele><time>2025-09-12T03:21:19.000Z</time></trkpt>
        <trkpt lat="29.571375" lon="103.361744"><ele>1707.9531</ele><time>2025-09-12T03:21:33.000Z</time></trkpt>
        <trkpt lat="29.571295" lon="103.361695"><ele>1705.6957</ele><time>2025-09-12T03:21:47.000Z</time></trkpt>
        <trkpt lat="29.571209" lon="103.36164"><ele>1706.7251</ele><time>2025-09-12T03:22:02.000Z</time></trkpt>
        <trkpt lat="29.571121" lon="103.361613"><ele>1710.0034</ele><time>2025-09-12T03:22:17.000Z</time></trkpt>
        <trkpt lat="29.57105" lon="103.361541"><ele>1711.3308</ele><time>2025-09-12T03:22:34.000Z</time></trkpt>
        <trkpt lat="29.570969" lon="103.361482"><ele>1710.6384</ele><time>2025-09-12T03:22:50.000Z</time></trkpt>
        <trkpt lat="29.570876" lon="103.361452"><ele>1713.8911</ele><time>2025-09-12T03:23:07.000Z</time></trkpt>
        <trkpt lat="29.570779" lon="103.361431"><ele>1714.6484</ele><time>2025-09-12T03:23:19.000Z</time></trkpt>
        <trkpt lat="29.570682" lon="103.361407"><ele>1717.2666</ele><time>2025-09-12T03:23:33.000Z</time></trkpt>
        <trkpt lat="29.570592" lon="103.361378"><ele>1715.8738</ele><time>2025-09-12T03:23:42.000Z</time></trkpt>
        <trkpt lat="29.570505" lon="103.361341"><ele>1716.0847</ele><time>2025-09-12T03:23:53.000Z</time></trkpt>
        <trkpt lat="29.57041" lon="103.361269"><ele>1715.5204</ele><time>2025-09-12T03:24:02.000Z</time></trkpt>
        <trkpt lat="29.57031" lon="103.361256"><ele>1715.4292</ele><time>2025-09-12T03:24:18.000Z</time></trkpt>
        <trkpt lat="29.57022" lon="103.361243"><ele>1718.0591</ele><time>2025-09-12T03:24:26.000Z</time></trkpt>
        <trkpt lat="29.57013" lon="103.361214"><ele>1716.695</ele><time>2025-09-12T03:24:46.000Z</time></trkpt>
        <trkpt lat="29.570044" lon="103.361158"><ele>1717.6387</ele><time>2025-09-12T03:25:02.000Z</time></trkpt>
        <trkpt lat="29.570008" lon="103.361057"><ele>1721.1216</ele><time>2025-09-12T03:25:17.000Z</time></trkpt>
        <trkpt lat="29.569914" lon="103.36106"><ele>1727.6902</ele><time>2025-09-12T03:25:32.000Z</time></trkpt>
        <trkpt lat="29.569834" lon="103.361005"><ele>1728.8832</ele><time>2025-09-12T03:25:46.000Z</time></trkpt>
        <trkpt lat="29.569765" lon="103.360914"><ele>1729.9521</ele><time>2025-09-12T03:25:57.000Z</time></trkpt>
        <trkpt lat="29.569693" lon="103.360837"><ele>1729.0802</ele><time>2025-09-12T03:26:08.000Z</time></trkpt>
        <trkpt lat="29.569618" lon="103.36078"><ele>1731.1376</ele><time>2025-09-12T03:26:16.000Z</time></trkpt>
        <trkpt lat="29.569527" lon="103.360763"><ele>1730.0911</ele><time>2025-09-12T03:26:26.000Z</time></trkpt>
        <trkpt lat="29.569452" lon="103.360704"><ele>1731.7673</ele><time>2025-09-12T03:26:45.000Z</time></trkpt>
        <trkpt lat="29.569385" lon="103.36062"><ele>1733.9147</ele><time>2025-09-12T03:27:00.000Z</time></trkpt>
        <trkpt lat="29.569308" lon="103.360548"><ele>1733.5293</ele><time>2025-09-12T03:27:15.000Z</time></trkpt>
        <trkpt lat="29.56924" lon="103.360468"><ele>1733.5018</ele><time>2025-09-12T03:27:28.000Z</time></trkpt>
        <trkpt lat="29.569172" lon="103.360394"><ele>1734.9652</ele><time>2025-09-12T03:27:39.000Z</time></trkpt>
        <trkpt lat="29.569084" lon="103.360336"><ele>1736.1221</ele><time>2025-09-12T03:27:53.000Z</time></trkpt>
        <trkpt lat="29.569011" lon="103.360274"><ele>1736.4119</ele><time>2025-09-12T03:28:09.000Z</time></trkpt>
        <trkpt lat="29.568942" lon="103.36019"><ele>1736.9346</ele><time>2025-09-12T03:28:25.000Z</time></trkpt>
        <trkpt lat="29.568894" lon="103.360098"><ele>1735.5149</ele><time>2025-09-12T03:28:38.000Z</time></trkpt>
        <trkpt lat="29.568842" lon="103.360008"><ele>1733.204</ele><time>2025-09-12T03:28:52.000Z</time></trkpt>
        <trkpt lat="29.568875" lon="103.359908"><ele>1733.4835</ele><time>2025-09-12T03:28:59.000Z</time></trkpt>
        <trkpt lat="29.568859" lon="103.359806"><ele>1733.1298</ele><time>2025-09-12T03:29:12.000Z</time></trkpt>
        <trkpt lat="29.568839" lon="103.359689"><ele>1735.7186</ele><time>2025-09-12T03:29:29.000Z</time></trkpt>
        <trkpt lat="29.568743" lon="103.359719"><ele>1741.2754</ele><time>2025-09-12T03:29:43.000Z</time></trkpt>
        <trkpt lat="29.568648" lon="103.359715"><ele>1746.8368</ele><time>2025-09-12T03:29:57.000Z</time></trkpt>
        <trkpt lat="29.568554" lon="103.35973"><ele>1751.4678</ele><time>2025-09-12T03:30:10.000Z</time></trkpt>
        <trkpt lat="29.568463" lon="103.359751"><ele>1752.4352</ele><time>2025-09-12T03:30:20.000Z</time></trkpt>
        <trkpt lat="29.568372" lon="103.359777"><ele>1753.4069</ele><time>2025-09-12T03:30:30.000Z</time></trkpt>
        <trkpt lat="29.56854" lon="103.359721"><ele>1740.2439</ele><time>2025-09-12T03:32:12.000Z</time></trkpt>
        <trkpt lat="29.568412" lon="103.359743"><ele>1746.1771</ele><time>2025-09-12T03:32:14.000Z</time></trkpt>
        <trkpt lat="29.568324" lon="103.359675"><ele>1741.5543</ele><time>2025-09-12T03:36:49.000Z</time></trkpt>
        <trkpt lat="29.56827" lon="103.359592"><ele>1743.3656</ele><time>2025-09-12T03:36:59.000Z</time></trkpt>
        <trkpt lat="29.568193" lon="103.359537"><ele>1743.5275</ele><time>2025-09-12T03:37:10.000Z</time></trkpt>
        <trkpt lat="29.568107" lon="103.359575"><ele>1745.1444</ele><time>2025-09-12T03:37:17.000Z</time></trkpt>
        <trkpt lat="29.568009" lon="103.359593"><ele>1745.5774</ele><time>2025-09-12T03:37:25.000Z</time></trkpt>
        <trkpt lat="29.567913" lon="103.359568"><ele>1745.2892</ele><time>2025-09-12T03:37:39.000Z</time></trkpt>
        <trkpt lat="29.567818" lon="103.359527"><ele>1746.9622</ele><time>2025-09-12T03:37:52.000Z</time></trkpt>
        <trkpt lat="29.567733" lon="103.359487"><ele>1751.655</ele><time>2025-09-12T03:38:38.000Z</time></trkpt>
        <trkpt lat="29.567639" lon="103.359454"><ele>1757.1191</ele><time>2025-09-12T03:38:49.000Z</time></trkpt>
        <trkpt lat="29.567547" lon="103.359454"><ele>1755.7117</ele><time>2025-09-12T03:39:02.000Z</time></trkpt>
        <trkpt lat="29.567466" lon="103.359501"><ele>1755.853</ele><time>2025-09-12T03:39:16.000Z</time></trkpt>
        <trkpt lat="29.567367" lon="103.35949"><ele>1758.4694</ele><time>2025-09-12T03:39:32.000Z</time></trkpt>
        <trkpt lat="29.567276" lon="103.359454"><ele>1759.6577</ele><time>2025-09-12T03:39:53.000Z</time></trkpt>
        <trkpt lat="29.567186" lon="103.359471"><ele>1772.682</ele><time>2025-09-12T03:40:26.000Z</time></trkpt>
        <trkpt lat="29.567097" lon="103.359425"><ele>1774.6943</ele><time>2025-09-12T03:40:49.000Z</time></trkpt>
        <trkpt lat="29.567004" lon="103.359403"><ele>1773.0864</ele><time>2025-09-12T03:41:01.000Z</time></trkpt>
        <trkpt lat="29.566933" lon="103.359329"><ele>1769.7444</ele><time>2025-09-12T03:41:20.000Z</time></trkpt>
        <trkpt lat="29.56688" lon="103.359244"><ele>1771.8726</ele><time>2025-09-12T03:41:48.000Z</time></trkpt>
        <trkpt lat="29.566804" lon="103.359187"><ele>1771.2483</ele><time>2025-09-12T03:42:15.000Z</time></trkpt>
        <trkpt lat="29.566713" lon="103.359132"><ele>1771.5813</ele><time>2025-09-12T03:42:40.000Z</time></trkpt>
        <trkpt lat="29.566643" lon="103.359063"><ele>1773.8126</ele><time>2025-09-12T03:42:52.000Z</time></trkpt>
        <trkpt lat="29.566569" lon="103.359004"><ele>1775.498</ele><time>2025-09-12T03:43:10.000Z</time></trkpt>
        <trkpt lat="29.5665" lon="103.358935"><ele>1777.3455</ele><time>2025-09-12T03:43:27.000Z</time></trkpt>
        <trkpt lat="29.566425" lon="103.358872"><ele>1779.2354</ele><time>2025-09-12T03:43:49.000Z</time></trkpt>
        <trkpt lat="29.566352" lon="103.358804"><ele>1781.9758</ele><time>2025-09-12T03:44:10.000Z</time></trkpt>
        <trkpt lat="29.566319" lon="103.358702"><ele>1787.7783</ele><time>2025-09-12T03:44:43.000Z</time></trkpt>
        <trkpt lat="29.56628" lon="103.358599"><ele>1793.8354</ele><time>2025-09-12T03:45:08.000Z</time></trkpt>
        <trkpt lat="29.566268" lon="103.358493"><ele>1794.8588</ele><time>2025-09-12T03:45:26.000Z</time></trkpt>
        <trkpt lat="29.56627" lon="103.358387"><ele>1795.1051</ele><time>2025-09-12T03:45:45.000Z</time></trkpt>
        <trkpt lat="29.5663" lon="103.358287"><ele>1798.8551</ele><time>2025-09-12T03:46:05.000Z</time></trkpt>
        <trkpt lat="29.566275" lon="103.358185"><ele>1809.8629</ele><time>2025-09-12T03:46:52.000Z</time></trkpt>
        <trkpt lat="29.566211" lon="103.3581"><ele>1808.3992</ele><time>2025-09-12T03:47:34.000Z</time></trkpt>
        <trkpt lat="29.566182" lon="103.358002"><ele>1813.4175</ele><time>2025-09-12T03:47:53.000Z</time></trkpt>
        <trkpt lat="29.566159" lon="103.357896"><ele>1820.9882</ele><time>2025-09-12T03:48:32.000Z</time></trkpt>
        <trkpt lat="29.566103" lon="103.357813"><ele>1823.5837</ele><time>2025-09-12T03:48:56.000Z</time></trkpt>
        <trkpt lat="29.566096" lon="103.357708"><ele>1822.5359</ele><time>2025-09-12T03:49:25.000Z</time></trkpt>
        <trkpt lat="29.566091" lon="103.357605"><ele>1830.0986</ele><time>2025-09-12T03:50:43.000Z</time></trkpt>
        <trkpt lat="29.566023" lon="103.357534"><ele>1826.3221</ele><time>2025-09-12T03:51:19.000Z</time></trkpt>
        <trkpt lat="29.565943" lon="103.357485"><ele>1828.2765</ele><time>2025-09-12T03:51:41.000Z</time></trkpt>
        <trkpt lat="29.565855" lon="103.357445"><ele>1837.9542</ele><time>2025-09-12T03:52:07.000Z</time></trkpt>
        <trkpt lat="29.56579" lon="103.357372"><ele>1841.878</ele><time>2025-09-12T03:52:27.000Z</time></trkpt>
        <trkpt lat="29.565727" lon="103.357294"><ele>1841.2164</ele><time>2025-09-12T03:52:41.000Z</time></trkpt>
        <trkpt lat="29.565677" lon="103.357208"><ele>1841.635</ele><time>2025-09-12T03:53:00.000Z</time></trkpt>
        <trkpt lat="29.565621" lon="103.357123"><ele>1839.7991</ele><time>2025-09-12T03:53:16.000Z</time></trkpt>
        <trkpt lat="29.565563" lon="103.357041"><ele>1851.5497</ele><time>2025-09-12T03:53:46.000Z</time></trkpt>
        <trkpt lat="29.565539" lon="103.356937"><ele>1860.9254</ele><time>2025-09-12T03:54:14.000Z</time></trkpt>
        <trkpt lat="29.565494" lon="103.356846"><ele>1861.354</ele><time>2025-09-12T03:55:44.000Z</time></trkpt>
        <trkpt lat="29.56541" lon="103.35679"><ele>1867.7189</ele><time>2025-09-12T03:56:34.000Z</time></trkpt>
        <trkpt lat="29.565316" lon="103.356764"><ele>1862.7471</ele><time>2025-09-12T03:56:53.000Z</time></trkpt>
        <trkpt lat="29.565236" lon="103.356709"><ele>1863.7526</ele><time>2025-09-12T03:57:15.000Z</time></trkpt>
        <trkpt lat="29.565153" lon="103.356656"><ele>1865.3126</ele><time>2025-09-12T03:57:39.000Z</time></trkpt>
        <trkpt lat="29.565064" lon="103.356632"><ele>1866.3718</ele><time>2025-09-12T03:57:54.000Z</time></trkpt>
        <trkpt lat="29.564975" lon="103.356619"><ele>1866.5447</ele><time>2025-09-12T03:58:10.000Z</time></trkpt>
        <trkpt lat="29.564926" lon="103.356528"><ele>1865.3837</ele><time>2025-09-12T03:58:21.000Z</time></trkpt>
        <trkpt lat="29.564858" lon="103.356448"><ele>1868.313</ele><time>2025-09-12T03:58:39.000Z</time></trkpt>
        <trkpt lat="29.564793" lon="103.356363"><ele>1872.4504</ele><time>2025-09-12T03:59:05.000Z</time></trkpt>
        <trkpt lat="29.564728" lon="103.356285"><ele>1874.2932</ele><time>2025-09-12T03:59:28.000Z</time></trkpt>
        <trkpt lat="29.564701" lon="103.356183"><ele>1877.5521</ele><time>2025-09-12T03:59:45.000Z</time></trkpt>
        <trkpt lat="29.564674" lon="103.356084"><ele>1877.5002</ele><time>2025-09-12T04:00:03.000Z</time></trkpt>
        <trkpt lat="29.564585" lon="103.356049"><ele>1881.4171</ele><time>2025-09-12T04:00:26.000Z</time></trkpt>
        <trkpt lat="29.564532" lon="103.356137"><ele>1886.0487</ele><time>2025-09-12T04:02:37.000Z</time></trkpt>
        <trkpt lat="29.564452" lon="103.356185"><ele>1888.4303</ele><time>2025-09-12T04:03:21.000Z</time></trkpt>
        <trkpt lat="29.564444" lon="103.356295"><ele>1896.6147</ele><time>2025-09-12T04:04:34.000Z</time></trkpt>
        <trkpt lat="29.564385" lon="103.356378"><ele>1900.6506</ele><time>2025-09-12T04:05:12.000Z</time></trkpt>
        <trkpt lat="29.564307" lon="103.356451"><ele>1907.6136</ele><time>2025-09-12T04:05:55.000Z</time></trkpt>
        <trkpt lat="29.564218" lon="103.356474"><ele>1909.2987</ele><time>2025-09-12T04:06:38.000Z</time></trkpt>
        <trkpt lat="29.564144" lon="103.356412"><ele>1907.6154</ele><time>2025-09-12T04:10:34.000Z</time></trkpt>
        <trkpt lat="29.564112" lon="103.356313"><ele>1905.9307</ele><time>2025-09-12T04:10:52.000Z</time></trkpt>
        <trkpt lat="29.564091" lon="103.35621"><ele>1902.7688</ele><time>2025-09-12T04:11:09.000Z</time></trkpt>
        <trkpt lat="29.564066" lon="103.356103"><ele>1901.0419</ele><time>2025-09-12T04:11:23.000Z</time></trkpt>
        <trkpt lat="29.56405" lon="103.355996"><ele>1899.7035</ele><time>2025-09-12T04:11:38.000Z</time></trkpt>
        <trkpt lat="29.564026" lon="103.355891"><ele>1898.6251</ele><time>2025-09-12T04:11:57.000Z</time></trkpt>
        <trkpt lat="29.564007" lon="103.355787"><ele>1893.6154</ele><time>2025-09-12T04:12:12.000Z</time></trkpt>
        <trkpt lat="29.563993" lon="103.355684"><ele>1891.279</ele><time>2025-09-12T04:12:28.000Z</time></trkpt>
        <trkpt lat="29.563984" lon="103.355577"><ele>1889.3842</ele><time>2025-09-12T04:12:43.000Z</time></trkpt>
        <trkpt lat="29.563952" lon="103.355478"><ele>1886.54</ele><time>2025-09-12T04:12:57.000Z</time></trkpt>
        <trkpt lat="29.563942" lon="103.355374"><ele>1888.2789</ele><time>2025-09-12T04:13:10.000Z</time></trkpt>
        <trkpt lat="29.563916" lon="103.355271"><ele>1883.6959</ele><time>2025-09-12T04:13:28.000Z</time></trkpt>
        <trkpt lat="29.563885" lon="103.355174"><ele>1881.1414</ele><time>2025-09-12T04:13:40.000Z</time></trkpt>
        <trkpt lat="29.563833" lon="103.355083"><ele>1880.6138</ele><time>2025-09-12T04:13:52.000Z</time></trkpt>
        <trkpt lat="29.563775" lon="103.355003"><ele>1881.0444</ele><time>2025-09-12T04:14:00.000Z</time></trkpt>
        <trkpt lat="29.563699" lon="103.354943"><ele>1878.8997</ele><time>2025-09-12T04:14:09.000Z</time></trkpt>
        <trkpt lat="29.563631" lon="103.35487"><ele>1878.9019</ele><time>2025-09-12T04:14:18.000Z</time></trkpt>
        <trkpt lat="29.563567" lon="103.354795"><ele>1878.9706</ele><time>2025-09-12T04:14:27.000Z</time></trkpt>
        <trkpt lat="29.563519" lon="103.354689"><ele>1878.1853</ele><time>2025-09-12T04:14:36.000Z</time></trkpt>
        <trkpt lat="29.563468" lon="103.354597"><ele>1878.4673</ele><time>2025-09-12T04:14:45.000Z</time></trkpt>
        <trkpt lat="29.563394" lon="103.354538"><ele>1878.5009</ele><time>2025-09-12T04:14:54.000Z</time></trkpt>
        <trkpt lat="29.563334" lon="103.354452"><ele>1880.5388</ele><time>2025-09-12T04:15:04.000Z</time></trkpt>
        <trkpt lat="29.563306" lon="103.354348"><ele>1880.39</ele><time>2025-09-12T04:15:12.000Z</time></trkpt>
        <trkpt lat="29.563277" lon="103.354242"><ele>1877.5564</ele><time>2025-09-12T04:15:21.000Z</time></trkpt>
        <trkpt lat="29.563254" lon="103.354132"><ele>1876.6799</ele><time>2025-09-12T04:15:31.000Z</time></trkpt>
        <trkpt lat="29.563225" lon="103.354034"><ele>1875.2838</ele><time>2025-09-12T04:15:41.000Z</time></trkpt>
        <trkpt lat="29.56317" lon="103.353936"><ele>1877.3976</ele><time>2025-09-12T04:15:48.000Z</time></trkpt>
        <trkpt lat="29.563168" lon="103.353827"><ele>1878.6163</ele><time>2025-09-12T04:15:58.000Z</time></trkpt>
        <trkpt lat="29.563145" lon="103.353722"><ele>1878.4644</ele><time>2025-09-12T04:16:07.000Z</time></trkpt>
        <trkpt lat="29.563096" lon="103.353627"><ele>1881.3916</ele><time>2025-09-12T04:16:17.000Z</time></trkpt>
        <trkpt lat="29.563092" lon="103.35352"><ele>1880.6398</ele><time>2025-09-12T04:16:27.000Z</time></trkpt>
        <trkpt lat="29.563126" lon="103.353422"><ele>1879.1604</ele><time>2025-09-12T04:16:45.000Z</time></trkpt>
        <trkpt lat="29.563095" lon="103.35332"><ele>1875.4161</ele><time>2025-09-12T04:17:01.000Z</time></trkpt>
        <trkpt lat="29.563069" lon="103.35322"><ele>1874.3984</ele><time>2025-09-12T04:17:11.000Z</time></trkpt>
        <trkpt lat="29.563036" lon="103.353118"><ele>1873.5629</ele><time>2025-09-12T04:17:20.000Z</time></trkpt>
        <trkpt lat="29.562989" lon="103.353019"><ele>1872.6688</ele><time>2025-09-12T04:17:27.000Z</time></trkpt>
        <trkpt lat="29.562959" lon="103.352913"><ele>1869.2703</ele><time>2025-09-12T04:17:36.000Z</time></trkpt>
        <trkpt lat="29.562924" lon="103.352813"><ele>1865.4192</ele><time>2025-09-12T04:17:46.000Z</time></trkpt>
        <trkpt lat="29.562934" lon="103.352709"><ele>1859.91</ele><time>2025-09-12T04:18:02.000Z</time></trkpt>
        <trkpt lat="29.562987" lon="103.352615"><ele>1857.5083</ele><time>2025-09-12T04:18:15.000Z</time></trkpt>
        <trkpt lat="29.563066" lon="103.352511"><ele>1852.0437</ele><time>2025-09-12T04:18:28.000Z</time></trkpt>
        <trkpt lat="29.563111" lon="103.352421"><ele>1848.6277</ele><time>2025-09-12T04:18:41.000Z</time></trkpt>
        <trkpt lat="29.563165" lon="103.352326"><ele>1849.6094</ele><time>2025-09-12T04:18:49.000Z</time></trkpt>
        <trkpt lat="29.563141" lon="103.352219"><ele>1848.7421</ele><time>2025-09-12T04:18:58.000Z</time></trkpt>
        <trkpt lat="29.56311" lon="103.352116"><ele>1848.3654</ele><time>2025-09-12T04:19:07.000Z</time></trkpt>
        <trkpt lat="29.563083" lon="103.352014"><ele>1849.9498</ele><time>2025-09-12T04:19:17.000Z</time></trkpt>
        <trkpt lat="29.563052" lon="103.351916"><ele>1852.702</ele><time>2025-09-12T04:19:26.000Z</time></trkpt>
        <trkpt lat="29.563027" lon="103.351814"><ele>1850.6301</ele><time>2025-09-12T04:19:36.000Z</time></trkpt>
        <trkpt lat="29.563023" lon="103.351705"><ele>1849.2429</ele><time>2025-09-12T04:19:49.000Z</time></trkpt>
        <trkpt lat="29.563024" lon="103.351596"><ele>1849.647</ele><time>2025-09-12T04:19:59.000Z</time></trkpt>
        <trkpt lat="29.562986" lon="103.351498"><ele>1849.3131</ele><time>2025-09-12T04:20:10.000Z</time></trkpt>
        <trkpt lat="29.562969" lon="103.351388"><ele>1844.0106</ele><time>2025-09-12T04:20:24.000Z</time></trkpt>
        <trkpt lat="29.563036" lon="103.351288"><ele>1841.6302</ele><time>2025-09-12T04:20:33.000Z</time></trkpt>
        <trkpt lat="29.563026" lon="103.351184"><ele>1837.5748</ele><time>2025-09-12T04:20:47.000Z</time></trkpt>
        <trkpt lat="29.563" lon="103.35108"><ele>1836.7444</ele><time>2025-09-12T04:21:01.000Z</time></trkpt>
        <trkpt lat="29.562966" lon="103.350972"><ele>1833.732</ele><time>2025-09-12T04:21:13.000Z</time></trkpt>
        <trkpt lat="29.562924" lon="103.350868"><ele>1834.4146</ele><time>2025-09-12T04:21:22.000Z</time></trkpt>
        <trkpt lat="29.562884" lon="103.350769"><ele>1834.2424</ele><time>2025-09-12T04:21:34.000Z</time></trkpt>
      </trkseg>
      <trkseg>
        <trkpt lat="29.56276" lon="103.350582"><ele>1837.6759</ele><time>2025-09-12T05:15:13.000Z</time></trkpt>
        <trkpt lat="29.56278" lon="103.350475"><ele>1834.2183</ele><time>2025-09-12T05:15:25.000Z</time></trkpt>
        <trkpt lat="29.562776" lon="103.350367"><ele>1831.0225</ele><time>2025-09-12T05:15:39.000Z</time></trkpt>
        <trkpt lat="29.562782" lon="103.350249"><ele>1826.9656</ele><time>2025-09-12T05:15:54.000Z</time></trkpt>
        <trkpt lat="29.562835" lon="103.350163"><ele>1821.516</ele><time>2025-09-12T05:16:07.000Z</time></trkpt>
        <trkpt lat="29.562836" lon="103.350058"><ele>1823.2958</ele><time>2025-09-12T05:16:17.000Z</time></trkpt>
        <trkpt lat="29.562843" lon="103.349952"><ele>1823.1545</ele><time>2025-09-12T05:16:26.000Z</time></trkpt>
        <trkpt lat="29.562861" lon="103.349838"><ele>1825.9067</ele><time>2025-09-12T05:16:37.000Z</time></trkpt>
        <trkpt lat="29.562882" lon="103.349736"><ele>1825.5934</ele><time>2025-09-12T05:16:47.000Z</time></trkpt>
        <trkpt lat="29.562921" lon="103.349627"><ele>1826.6354</ele><time>2025-09-12T05:16:56.000Z</time></trkpt>
        <trkpt lat="29.562971" lon="103.349536"><ele>1826.6365</ele><time>2025-09-12T05:17:05.000Z</time></trkpt>
        <trkpt lat="29.563035" lon="103.349444"><ele>1825.9915</ele><time>2025-09-12T05:17:15.000Z</time></trkpt>
        <trkpt lat="29.563076" lon="103.349347"><ele>1825.8052</ele><time>2025-09-12T05:17:26.000Z</time></trkpt>
        <trkpt lat="29.563089" lon="103.349244"><ele>1826.7814</ele><time>2025-09-12T05:17:33.000Z</time></trkpt>
        <trkpt lat="29.563144" lon="103.349162"><ele>1827.4542</ele><time>2025-09-12T05:17:41.000Z</time></trkpt>
        <trkpt lat="29.563177" lon="103.349064"><ele>1829.9451</ele><time>2025-09-12T05:17:51.000Z</time></trkpt>
        <trkpt lat="29.563171" lon="103.348945"><ele>1829.4294</ele><time>2025-09-12T05:18:03.000Z</time></trkpt>
        <trkpt lat="29.563203" lon="103.348846"><ele>1831.3737</ele><time>2025-09-12T05:18:13.000Z</time></trkpt>
        <trkpt lat="29.563198" lon="103.348733"><ele>1832.7366</ele><time>2025-09-12T05:18:23.000Z</time></trkpt>
        <trkpt lat="29.563176" lon="103.348627"><ele>1833.2094</ele><time>2025-09-12T05:18:32.000Z</time></trkpt>
        <trkpt lat="29.563197" lon="103.348513"><ele>1834.4786</ele><time>2025-09-12T05:18:42.000Z</time></trkpt>
        <trkpt lat="29.563221" lon="103.348401"><ele>1833.3666</ele><time>2025-09-12T05:18:52.000Z</time></trkpt>
        <trkpt lat="29.563262" lon="103.348302"><ele>1835.2548</ele><time>2025-09-12T05:19:04.000Z</time></trkpt>
        <trkpt lat="29.563339" lon="103.348243"><ele>1838.3468</ele><time>2025-09-12T05:19:14.000Z</time></trkpt>
        <trkpt lat="29.563372" lon="103.348146"><ele>1838.2408</ele><time>2025-09-12T05:19:26.000Z</time></trkpt>
        <trkpt lat="29.563372" lon="103.348011"><ele>1837.206</ele><time>2025-09-12T05:19:34.000Z</time></trkpt>
        <trkpt lat="29.563459" lon="103.347969"><ele>1836.6874</ele><time>2025-09-12T05:19:40.000Z</time></trkpt>
        <trkpt lat="29.563531" lon="103.347887"><ele>1835.5325</ele><time>2025-09-12T05:19:47.000Z</time></trkpt>
        <trkpt lat="29.563528" lon="103.347783"><ele>1832.6796</ele><time>2025-09-12T05:19:59.000Z</time></trkpt>
        <trkpt lat="29.563538" lon="103.347671"><ele>1831.4667</ele><time>2025-09-12T05:20:06.000Z</time></trkpt>
        <trkpt lat="29.563499" lon="103.347552"><ele>1829.3894</ele><time>2025-09-12T05:20:18.000Z</time></trkpt>
        <trkpt lat="29.563525" lon="103.347434"><ele>1827.0927</ele><time>2025-09-12T05:20:29.000Z</time></trkpt>
        <trkpt lat="29.563462" lon="103.347361"><ele>1825.4352</ele><time>2025-09-12T05:20:42.000Z</time></trkpt>
        <trkpt lat="29.563411" lon="103.347266"><ele>1826.1715</ele><time>2025-09-12T05:20:55.000Z</time></trkpt>
        <trkpt lat="29.563336" lon="103.347198"><ele>1826.4794</ele><time>2025-09-12T05:21:05.000Z</time></trkpt>
        <trkpt lat="29.563246" lon="103.347166"><ele>1830.1375</ele><time>2025-09-12T05:21:13.000Z</time></trkpt>
        <trkpt lat="29.563169" lon="103.3471"><ele>1830.147</ele><time>2025-09-12T05:21:22.000Z</time></trkpt>
        <trkpt lat="29.563115" lon="103.347017"><ele>1829.9198</ele><time>2025-09-12T05:21:29.000Z</time></trkpt>
        <trkpt lat="29.563061" lon="103.346934"><ele>1829.4229</ele><time>2025-09-12T05:21:38.000Z</time></trkpt>
        <trkpt lat="29.563011" lon="103.346841"><ele>1827.6224</ele><time>2025-09-12T05:21:50.000Z</time></trkpt>
        <trkpt lat="29.562953" lon="103.346749"><ele>1822.0924</ele><time>2025-09-12T05:22:02.000Z</time></trkpt>
        <trkpt lat="29.56287" lon="103.346669"><ele>1824.0519</ele><time>2025-09-12T05:22:11.000Z</time></trkpt>
        <trkpt lat="29.562821" lon="103.346572"><ele>1823.8462</ele><time>2025-09-12T05:22:22.000Z</time></trkpt>
        <trkpt lat="29.562738" lon="103.346516"><ele>1823.8441</ele><time>2025-09-12T05:22:31.000Z</time></trkpt>
        <trkpt lat="29.562644" lon="103.346484"><ele>1822.157</ele><time>2025-09-12T05:22:40.000Z</time></trkpt>
        <trkpt lat="29.562562" lon="103.346423"><ele>1822.5297</ele><time>2025-09-12T05:22:48.000Z</time></trkpt>
        <trkpt lat="29.562489" lon="103.346358"><ele>1822.6202</ele><time>2025-09-12T05:22:57.000Z</time></trkpt>
        <trkpt lat="29.562413" lon="103.346291"><ele>1824.799</ele><time>2025-09-12T05:23:05.000Z</time></trkpt>
        <trkpt lat="29.562354" lon="103.346199"><ele>1821.0592</ele><time>2025-09-12T05:23:14.000Z</time></trkpt>
        <trkpt lat="29.56228" lon="103.346125"><ele>1819.9585</ele><time>2025-09-12T05:23:24.000Z</time></trkpt>
        <trkpt lat="29.562229" lon="103.346039"><ele>1819.592</ele><time>2025-09-12T05:23:31.000Z</time></trkpt>
        <trkpt lat="29.562204" lon="103.345937"><ele>1817.6835</ele><time>2025-09-12T05:23:39.000Z</time></trkpt>
        <trkpt lat="29.562167" lon="103.345842"><ele>1815.6364</ele><time>2025-09-12T05:23:48.000Z</time></trkpt>
        <trkpt lat="29.562115" lon="103.345751"><ele>1814.9558</ele><time>2025-09-12T05:23:56.000Z</time></trkpt>
        <trkpt lat="29.562044" lon="103.345673"><ele>1814.9126</ele><time>2025-09-12T05:24:05.000Z</time></trkpt>
        <trkpt lat="29.561964" lon="103.345606"><ele>1814.3993</ele><time>2025-09-12T05:24:16.000Z</time></trkpt>
        <trkpt lat="29.561865" lon="103.345593"><ele>1817.8073</ele><time>2025-09-12T05:24:27.000Z</time></trkpt>
        <trkpt lat="29.561769" lon="103.34559"><ele>1819.3502</ele><time>2025-09-12T05:24:39.000Z</time></trkpt>
        <trkpt lat="29.561679" lon="103.345583"><ele>1820.2443</ele><time>2025-09-12T05:24:49.000Z</time></trkpt>
        <trkpt lat="29.561588" lon="103.345584"><ele>1820.2623</ele><time>2025-09-12T05:24:58.000Z</time></trkpt>
        <trkpt lat="29.561502" lon="103.34554"><ele>1818.6702</ele><time>2025-09-12T05:25:05.000Z</time></trkpt>
        <trkpt lat="29.561461" lon="103.345431"><ele>1821.0865</ele><time>2025-09-12T05:25:12.000Z</time></trkpt>
        <trkpt lat="29.561414" lon="103.345342"><ele>1821.8912</ele><time>2025-09-12T05:25:20.000Z</time></trkpt>
        <trkpt lat="29.561386" lon="103.345242"><ele>1818.9337</ele><time>2025-09-12T05:26:08.000Z</time></trkpt>
        <trkpt lat="29.561297" lon="103.345198"><ele>1823.0856</ele><time>2025-09-12T05:26:29.000Z</time></trkpt>
        <trkpt lat="29.56123" lon="103.345127"><ele>1825.9106</ele><time>2025-09-12T05:27:02.000Z</time></trkpt>
        <trkpt lat="29.561168" lon="103.34504"><ele>1830.2162</ele><time>2025-09-12T05:27:41.000Z</time></trkpt>
        <trkpt lat="29.561077" lon="103.345045"><ele>1838.9419</ele><time>2025-09-12T05:28:36.000Z</time></trkpt>
        <trkpt lat="29.560998" lon="103.344995"><ele>1846.0337</ele><time>2025-09-12T05:29:45.000Z</time></trkpt>
        <trkpt lat="29.5609" lon="103.345062"><ele>1851.0388</ele><time>2025-09-12T05:30:41.000Z</time></trkpt>
        <trkpt lat="29.56085" lon="103.344973"><ele>1862.7708</ele><time>2025-09-12T05:31:50.000Z</time></trkpt>
        <trkpt lat="29.560811" lon="103.34487"><ele>1868.4802</ele><time>2025-09-12T05:32:34.000Z</time></trkpt>
        <trkpt lat="29.56072" lon="103.344854"><ele>1882.069</ele><time>2025-09-12T05:34:02.000Z</time></trkpt>
        <trkpt lat="29.560735" lon="103.344747"><ele>1883.4154</ele><time>2025-09-12T05:34:36.000Z</time></trkpt>
        <trkpt lat="29.560672" lon="103.344667"><ele>1888.2584</ele><time>2025-09-12T05:35:10.000Z</time></trkpt>
        <trkpt lat="29.560573" lon="103.344642"><ele>1888.8096</ele><time>2025-09-12T05:37:54.000Z</time></trkpt>
        <trkpt lat="29.560489" lon="103.344596"><ele>1898.4637</ele><time>2025-09-12T05:38:31.000Z</time></trkpt>
        <trkpt lat="29.560406" lon="103.344551"><ele>1900.3555</ele><time>2025-09-12T05:38:56.000Z</time></trkpt>
        <trkpt lat="29.560323" lon="103.344506"><ele>1907.8164</ele><time>2025-09-12T05:39:49.000Z</time></trkpt>
        <trkpt lat="29.560252" lon="103.344442"><ele>1914.7059</ele><time>2025-09-12T05:40:34.000Z</time></trkpt>
        <trkpt lat="29.560189" lon="103.344365"><ele>1917.051</ele><time>2025-09-12T05:41:40.000Z</time></trkpt>
        <trkpt lat="29.560139" lon="103.344276"><ele>1919.7272</ele><time>2025-09-12T05:42:08.000Z</time></trkpt>
        <trkpt lat="29.56021" lon="103.344212"><ele>1923.8988</ele><time>2025-09-12T05:42:42.000Z</time></trkpt>
        <trkpt lat="29.56012" lon="103.344197"><ele>1927.1832</ele><time>2025-09-12T05:43:04.000Z</time></trkpt>
        <trkpt lat="29.560023" lon="103.344211"><ele>1932.2211</ele><time>2025-09-12T05:43:51.000Z</time></trkpt>
        <trkpt lat="29.560101" lon="103.344156"><ele>1937.6407</ele><time>2025-09-12T05:45:32.000Z</time></trkpt>
        <trkpt lat="29.560079" lon="103.344043"><ele>1940.2798</ele><time>2025-09-12T05:46:09.000Z</time></trkpt>
        <trkpt lat="29.560077" lon="103.343928"><ele>1946.8695</ele><time>2025-09-12T05:47:04.000Z</time></trkpt>
        <trkpt lat="29.56004" lon="103.34383"><ele>1956.7631</ele><time>2025-09-12T05:48:44.000Z</time></trkpt>
        <trkpt lat="29.559957" lon="103.343791"><ele>1959.9474</ele><time>2025-09-12T05:49:06.000Z</time></trkpt>
        <trkpt lat="29.559877" lon="103.34374"><ele>1962.9492</ele><time>2025-09-12T05:49:59.000Z</time></trkpt>
        <trkpt lat="29.559805" lon="103.343677"><ele>1966.2189</ele><time>2025-09-12T05:50:30.000Z</time></trkpt>
        <trkpt lat="29.559735" lon="103.343606"><ele>1973.8864</ele><time>2025-09-12T05:51:04.000Z</time></trkpt>
        <trkpt lat="29.5597" lon="103.343507"><ele>1977.2472</ele><time>2025-09-12T05:51:46.000Z</time></trkpt>
        <trkpt lat="29.559635" lon="103.343582"><ele>1984.4834</ele><time>2025-09-12T05:52:56.000Z</time></trkpt>
        <trkpt lat="29.559551" lon="103.343536"><ele>1991.4572</ele><time>2025-09-12T05:53:42.000Z</time></trkpt>
        <trkpt lat="29.55947" lon="103.34348"><ele>1995.6521</ele><time>2025-09-12T05:54:19.000Z</time></trkpt>
        <trkpt lat="29.559451" lon="103.343583"><ele>2001.0247</ele><time>2025-09-12T05:55:01.000Z</time></trkpt>
        <trkpt lat="29.559357" lon="103.34359"><ele>2004.578</ele><time>2025-09-12T05:55:24.000Z</time></trkpt>
        <trkpt lat="29.559263" lon="103.34357"><ele>2009.0035</ele><time>2025-09-12T05:56:02.000Z</time></trkpt>
        <trkpt lat="29.559291" lon="103.343461"><ele>2005.4972</ele><time>2025-09-12T05:57:20.000Z</time></trkpt>
      </trkseg>
      <trkseg>
        <trkpt lat="29.559276" lon="103.343575"><ele>2008.9102</ele><time>2025-09-12T05:58:44.000Z</time></trkpt>
        <trkpt lat="29.559239" lon="103.343765"><ele>2014.7509</ele><time>2025-09-12T06:05:19.000Z</time></trkpt>
        <trkpt lat="29.559156" lon="103.343809"><ele>2017.3132</ele><time>2025-09-12T06:05:37.000Z</time></trkpt>
        <trkpt lat="29.559102" lon="103.343725"><ele>2026.5458</ele><time>2025-09-12T06:06:25.000Z</time></trkpt>
        <trkpt lat="29.559013" lon="103.343685"><ele>2028.1199</ele><time>2025-09-12T06:07:14.000Z</time></trkpt>
        <trkpt lat="29.558928" lon="103.343726"><ele>2038.0989</ele><time>2025-09-12T06:08:35.000Z</time></trkpt>
        <trkpt lat="29.558841" lon="103.343754"><ele>2043.7913</ele><time>2025-09-12T06:09:22.000Z</time></trkpt>
        <trkpt lat="29.558848" lon="103.343869"><ele>2046.7135</ele><time>2025-09-12T06:09:53.000Z</time></trkpt>
        <trkpt lat="29.558871" lon="103.343973"><ele>2047.5424</ele><time>2025-09-12T06:10:02.000Z</time></trkpt>
        <trkpt lat="29.558892" lon="103.344082"><ele>2047.3215</ele><time>2025-09-12T06:10:13.000Z</time></trkpt>
        <trkpt lat="29.558835" lon="103.344162"><ele>2049.8206</ele><time>2025-09-12T06:11:08.000Z</time></trkpt>
        <trkpt lat="29.558821" lon="103.344264"><ele>2053.4795</ele><time>2025-09-12T06:11:33.000Z</time></trkpt>
        <trkpt lat="29.558729" lon="103.344239"><ele>2062.024</ele><time>2025-09-12T06:12:10.000Z</time></trkpt>
        <trkpt lat="29.55858" lon="103.344198"><ele>2062.3445</ele><time>2025-09-12T06:13:01.000Z</time></trkpt>
        <trkpt lat="29.558489" lon="103.344183"><ele>2070.3938</ele><time>2025-09-12T06:13:36.000Z</time></trkpt>
        <trkpt lat="29.558408" lon="103.344123"><ele>2070.8394</ele><time>2025-09-12T06:14:04.000Z</time></trkpt>
        <trkpt lat="29.558319" lon="103.344091"><ele>2075.043</ele><time>2025-09-12T06:14:47.000Z</time></trkpt>
        <trkpt lat="29.558228" lon="103.344089"><ele>2075.904</ele><time>2025-09-12T06:15:43.000Z</time></trkpt>
        <trkpt lat="29.558136" lon="103.344108"><ele>2072.468</ele><time>2025-09-12T06:16:04.000Z</time></trkpt>
      </trkseg>
      <trkseg>
        <trkpt lat="29.557216" lon="103.343646"><ele>2076.0823</ele><time>2025-09-12T06:25:02.000Z</time></trkpt>
        <trkpt lat="29.557128" lon="103.343616"><ele>2084.6401</ele><time>2025-09-12T06:25:56.000Z</time></trkpt>
        <trkpt lat="29.557039" lon="103.343634"><ele>2090.3457</ele><time>2025-09-12T06:26:49.000Z</time></trkpt>
        <trkpt lat="29.556956" lon="103.343685"><ele>2093.8171</ele><time>2025-09-12T06:27:21.000Z</time></trkpt>
        <trkpt lat="29.556871" lon="103.343723"><ele>2096.5952</ele><time>2025-09-12T06:27:42.000Z</time></trkpt>
        <trkpt lat="29.556785" lon="103.343763"><ele>2099.6936</ele><time>2025-09-12T06:28:06.000Z</time></trkpt>
        <trkpt lat="29.556703" lon="103.343715"><ele>2103.228</ele><time>2025-09-12T06:28:33.000Z</time></trkpt>
        <trkpt lat="29.556611" lon="103.343753"><ele>2108.6882</ele><time>2025-09-12T06:29:08.000Z</time></trkpt>
        <trkpt lat="29.556542" lon="103.343824"><ele>2113.4937</ele><time>2025-09-12T06:30:14.000Z</time></trkpt>
        <trkpt lat="29.556539" lon="103.343928"><ele>2118.2373</ele><time>2025-09-12T06:31:18.000Z</time></trkpt>
        <trkpt lat="29.556474" lon="103.344016"><ele>2124.627</ele><time>2025-09-12T06:32:11.000Z</time></trkpt>
        <trkpt lat="29.556443" lon="103.344113"><ele>2130.1372</ele><time>2025-09-12T06:32:43.000Z</time></trkpt>
        <trkpt lat="29.556383" lon="103.344191"><ele>2134.2114</ele><time>2025-09-12T06:33:12.000Z</time></trkpt>
        <trkpt lat="29.5563" lon="103.344237"><ele>2139.6873</ele><time>2025-09-12T06:33:35.000Z</time></trkpt>
        <trkpt lat="29.55622" lon="103.344286"><ele>2142.35</ele><time>2025-09-12T06:34:03.000Z</time></trkpt>
        <trkpt lat="29.556176" lon="103.344378"><ele>2146.8628</ele><time>2025-09-12T06:34:35.000Z</time></trkpt>
        <trkpt lat="29.556096" lon="103.34444"><ele>2149.719</ele><time>2025-09-12T06:35:00.000Z</time></trkpt>
        <trkpt lat="29.556161" lon="103.344554"><ele>2145.8765</ele><time>2025-09-12T06:39:36.000Z</time></trkpt>
        <trkpt lat="29.556095" lon="103.34448"><ele>2150.9858</ele><time>2025-09-12T06:39:38.000Z</time></trkpt>
        <trkpt lat="29.556019" lon="103.34454"><ele>2153.3462</ele><time>2025-09-12T06:40:10.000Z</time></trkpt>
        <trkpt lat="29.555966" lon="103.344633"><ele>2157.4492</ele><time>2025-09-12T06:40:33.000Z</time></trkpt>
        <trkpt lat="29.555914" lon="103.344726"><ele>2158.4375</ele><time>2025-09-12T06:41:08.000Z</time></trkpt>
        <trkpt lat="29.555866" lon="103.344814"><ele>2162.0662</ele><time>2025-09-12T06:41:45.000Z</time></trkpt>
        <trkpt lat="29.555834" lon="103.344915"><ele>2166.2844</ele><time>2025-09-12T06:42:13.000Z</time></trkpt>
        <trkpt lat="29.55576" lon="103.344984"><ele>2168.4958</ele><time>2025-09-12T06:42:29.000Z</time></trkpt>
        <trkpt lat="29.555667" lon="103.344957"><ele>2169.514</ele><time>2025-09-12T06:42:57.000Z</time></trkpt>
        <trkpt lat="29.555572" lon="103.344971"><ele>2175.3765</ele><time>2025-09-12T06:43:54.000Z</time></trkpt>
        <trkpt lat="29.555487" lon="103.345012"><ele>2181.7097</ele><time>2025-09-12T06:45:13.000Z</time></trkpt>
        <trkpt lat="29.555435" lon="103.345098"><ele>2186.707</ele><time>2025-09-12T06:45:50.000Z</time></trkpt>
        <trkpt lat="29.55535" lon="103.345132"><ele>2192.5664</ele><time>2025-09-12T06:47:19.000Z</time></trkpt>
        <trkpt lat="29.55529" lon="103.345052"><ele>2194.6492</ele><time>2025-09-12T06:47:41.000Z</time></trkpt>
        <trkpt lat="29.555217" lon="103.344988"><ele>2196.7363</ele><time>2025-09-12T06:47:57.000Z</time></trkpt>
        <trkpt lat="29.55516" lon="103.345071"><ele>2203.1418</ele><time>2025-09-12T06:48:23.000Z</time></trkpt>
        <trkpt lat="29.555083" lon="103.345126"><ele>2207.252</ele><time>2025-09-12T06:48:36.000Z</time></trkpt>
        <trkpt lat="29.554995" lon="103.345149"><ele>2204.1675</ele><time>2025-09-12T06:53:28.000Z</time></trkpt>
        <trkpt lat="29.554905" lon="103.34517"><ele>2206.7876</ele><time>2025-09-12T06:53:46.000Z</time></trkpt>
        <trkpt lat="29.554815" lon="103.345206"><ele>2209.307</ele><time>2025-09-12T06:54:13.000Z</time></trkpt>
        <trkpt lat="29.554746" lon="103.345273"><ele>2213.9185</ele><time>2025-09-12T06:54:37.000Z</time></trkpt>
        <trkpt lat="29.554662" lon="103.345324"><ele>2220.8005</ele><time>2025-09-12T06:55:28.000Z</time></trkpt>
        <trkpt lat="29.554572" lon="103.345359"><ele>2225.1287</ele><time>2025-09-12T06:55:59.000Z</time></trkpt>
        <trkpt lat="29.554484" lon="103.345394"><ele>2228.3723</ele><time>2025-09-12T06:56:33.000Z</time></trkpt>
        <trkpt lat="29.554388" lon="103.345388"><ele>2234.4626</ele><time>2025-09-12T06:57:20.000Z</time></trkpt>
        <trkpt lat="29.554302" lon="103.345421"><ele>2238.9155</ele><time>2025-09-12T06:57:59.000Z</time></trkpt>
        <trkpt lat="29.554212" lon="103.345449"><ele>2245.268</ele><time>2025-09-12T06:58:50.000Z</time></trkpt>
        <trkpt lat="29.554128" lon="103.345486"><ele>2248.985</ele><time>2025-09-12T06:59:42.000Z</time></trkpt>
        <trkpt lat="29.554039" lon="103.345511"><ele>2251.8428</ele><time>2025-09-12T07:00:02.000Z</time></trkpt>
        <trkpt lat="29.553949" lon="103.345482"><ele>2254.2075</ele><time>2025-09-12T07:00:27.000Z</time></trkpt>
        <trkpt lat="29.553876" lon="103.34542"><ele>2256.41</ele><time>2025-09-12T07:00:46.000Z</time></trkpt>
        <trkpt lat="29.553789" lon="103.345374"><ele>2258.1768</ele><time>2025-09-12T07:01:09.000Z</time></trkpt>
        <trkpt lat="29.553701" lon="103.345338"><ele>2259.8757</ele><time>2025-09-12T07:01:33.000Z</time></trkpt>
        <trkpt lat="29.553609" lon="103.345316"><ele>2265.7468</ele><time>2025-09-12T07:01:54.000Z</time></trkpt>
        <trkpt lat="29.553514" lon="103.345323"><ele>2267.1997</ele><time>2025-09-12T07:02:10.000Z</time></trkpt>
        <trkpt lat="29.553422" lon="103.345305"><ele>2268.5154</ele><time>2025-09-12T07:02:28.000Z</time></trkpt>
        <trkpt lat="29.553339" lon="103.345349"><ele>2271.9407</ele><time>2025-09-12T07:02:45.000Z</time></trkpt>
        <trkpt lat="29.553252" lon="103.345384"><ele>2274.2234</ele><time>2025-09-12T07:03:02.000Z</time></trkpt>
        <trkpt lat="29.553153" lon="103.345391"><ele>2275.2085</ele><time>2025-09-12T07:03:17.000Z</time></trkpt>
        <trkpt lat="29.553062" lon="103.345391"><ele>2276.1963</ele><time>2025-09-12T07:03:26.000Z</time></trkpt>
        <trkpt lat="29.552968" lon="103.345397"><ele>2276.067</ele><time>2025-09-12T07:03:36.000Z</time></trkpt>
        <trkpt lat="29.552875" lon="103.34543"><ele>2278.5635</ele><time>2025-09-12T07:03:47.000Z</time></trkpt>
        <trkpt lat="29.552785" lon="103.345446"><ele>2278.0637</ele><time>2025-09-12T07:03:57.000Z</time></trkpt>
        <trkpt lat="29.552693" lon="103.345433"><ele>2279.0835</ele><time>2025-09-12T07:04:07.000Z</time></trkpt>
        <trkpt lat="29.552603" lon="103.34542"><ele>2278.0752</ele><time>2025-09-12T07:04:18.000Z</time></trkpt>
        <trkpt lat="29.552521" lon="103.345466"><ele>2280.044</ele><time>2025-09-12T07:04:30.000Z</time></trkpt>
        <trkpt lat="29.552424" lon="103.345463"><ele>2281.0432</ele><time>2025-09-12T07:04:41.000Z</time></trkpt>
        <trkpt lat="29.552352" lon="103.345384"><ele>2281.6658</ele><time>2025-09-12T07:04:54.000Z</time></trkpt>
        <trkpt lat="29.552379" lon="103.345266"><ele>2279.3774</ele><time>2025-09-12T07:05:05.000Z</time></trkpt>
        <trkpt lat="29.552301" lon="103.345208"><ele>2279.6116</ele><time>2025-09-12T07:05:24.000Z</time></trkpt>
        <trkpt lat="29.552203" lon="103.345175"><ele>2278.9204</ele><time>2025-09-12T07:05:36.000Z</time></trkpt>
        <trkpt lat="29.55211" lon="103.345147"><ele>2279.6248</ele><time>2025-09-12T07:05:46.000Z</time></trkpt>
        <trkpt lat="29.552021" lon="103.345108"><ele>2278.6167</ele><time>2025-09-12T07:05:56.000Z</time></trkpt>
        <trkpt lat="29.55195" lon="103.345029"><ele>2276.5305</ele><time>2025-09-12T07:06:05.000Z</time></trkpt>
        <trkpt lat="29.551958" lon="103.344918"><ele>2277.2087</ele><time>2025-09-12T07:06:13.000Z</time></trkpt>
        <trkpt lat="29.551915" lon="103.344822"><ele>2275.2195</ele><time>2025-09-12T07:06:24.000Z</time></trkpt>
        <trkpt lat="29.551841" lon="103.344754"><ele>2273.6206</ele><time>2025-09-12T07:06:34.000Z</time></trkpt>
        <trkpt lat="29.551783" lon="103.344665"><ele>2273.774</ele><time>2025-09-12T07:06:44.000Z</time></trkpt>
        <trkpt lat="29.551741" lon="103.344574"><ele>2275.749</ele><time>2025-09-12T07:06:55.000Z</time></trkpt>
        <trkpt lat="29.551685" lon="103.344485"><ele>2275.988</ele><time>2025-09-12T07:07:04.000Z</time></trkpt>
        <trkpt lat="29.551614" lon="103.344414"><ele>2274.4111</ele><time>2025-09-12T07:07:15.000Z</time></trkpt>
        <trkpt lat="29.551555" lon="103.34433"><ele>2273.9421</ele><time>2025-09-12T07:07:26.000Z</time></trkpt>
        <trkpt lat="29.551479" lon="103.344271"><ele>2272.913</ele><time>2025-09-12T07:07:37.000Z</time></trkpt>
        <trkpt lat="29.551385" lon="103.34423"><ele>2271.4805</ele><time>2025-09-12T07:07:49.000Z</time></trkpt>
        <trkpt lat="29.551297" lon="103.344199"><ele>2273.3904</ele><time>2025-09-12T07:07:58.000Z</time></trkpt>
        <trkpt lat="29.551203" lon="103.344194"><ele>2269.1924</ele><time>2025-09-12T07:08:09.000Z</time></trkpt>
        <trkpt lat="29.551109" lon="103.344214"><ele>2268.049</ele><time>2025-09-12T07:08:19.000Z</time></trkpt>
        <trkpt lat="29.55102" lon="103.344185"><ele>2268.5933</ele><time>2025-09-12T07:08:31.000Z</time></trkpt>
        <trkpt lat="29.550932" lon="103.344144"><ele>2268.7185</ele><time>2025-09-12T07:08:40.000Z</time></trkpt>
        <trkpt lat="29.550837" lon="103.34414"><ele>2270.2183</ele><time>2025-09-12T07:08:51.000Z</time></trkpt>
        <trkpt lat="29.550743" lon="103.344129"><ele>2272.8777</ele><time>2025-09-12T07:09:01.000Z</time></trkpt>
        <trkpt lat="29.550675" lon="103.344044"><ele>2271.1401</ele><time>2025-09-12T07:09:09.000Z</time></trkpt>
        <trkpt lat="29.550649" lon="103.343927"><ele>2271.9617</ele><time>2025-09-12T07:09:28.000Z</time></trkpt>
        <trkpt lat="29.550556" lon="103.343927"><ele>2274.4583</ele><time>2025-09-12T07:09:42.000Z</time></trkpt>
        <trkpt lat="29.550482" lon="103.343861"><ele>2274.982</ele><time>2025-09-12T07:09:51.000Z</time></trkpt>
        <trkpt lat="29.550437" lon="103.343765"><ele>2274.9446</ele><time>2025-09-12T07:10:00.000Z</time></trkpt>
        <trkpt lat="29.550375" lon="103.343681"><ele>2276.5146</ele><time>2025-09-12T07:10:10.000Z</time></trkpt>
        <trkpt lat="29.550304" lon="103.343612"><ele>2273.2866</ele><time>2025-09-12T07:10:20.000Z</time></trkpt>
        <trkpt lat="29.550245" lon="103.343516"><ele>2272.1582</ele><time>2025-09-12T07:10:29.000Z</time></trkpt>
        <trkpt lat="29.550202" lon="103.34342"><ele>2272.5476</ele><time>2025-09-12T07:10:37.000Z</time></trkpt>
        <trkpt lat="29.550154" lon="103.343326"><ele>2271.6868</ele><time>2025-09-12T07:10:46.000Z</time></trkpt>
        <trkpt lat="29.550104" lon="103.34324"><ele>2273.2427</ele><time>2025-09-12T07:10:55.000Z</time></trkpt>
        <trkpt lat="29.550018" lon="103.343183"><ele>2273.923</ele><time>2025-09-12T07:11:08.000Z</time></trkpt>
        <trkpt lat="29.549944" lon="103.343099"><ele>2275.3767</ele><time>2025-09-12T07:11:18.000Z</time></trkpt>
        <trkpt lat="29.549891" lon="103.343007"><ele>2275.8406</ele><time>2025-09-12T07:11:28.000Z</time></trkpt>
        <trkpt lat="29.549847" lon="103.342903"><ele>2276.8096</ele><time>2025-09-12T07:11:39.000Z</time></trkpt>
        <trkpt lat="29.54982" lon="103.342803"><ele>2277.014</ele><time>2025-09-12T07:11:50.000Z</time></trkpt>
        <trkpt lat="29.54976" lon="103.342721"><ele>2275.561</ele><time>2025-09-12T07:11:59.000Z</time></trkpt>
        <trkpt lat="29.549704" lon="103.342628"><ele>2277.0266</ele><time>2025-09-12T07:12:10.000Z</time></trkpt>
        <trkpt lat="29.549645" lon="103.342544"><ele>2278.068</ele><time>2025-09-12T07:12:18.000Z</time></trkpt>
        <trkpt lat="29.549582" lon="103.342462"><ele>2277.137</ele><time>2025-09-12T07:12:27.000Z</time></trkpt>
        <trkpt lat="29.549509" lon="103.342399"><ele>2278.362</ele><time>2025-09-12T07:12:36.000Z</time></trkpt>
        <trkpt lat="29.549439" lon="103.342316"><ele>2280.403</ele><time>2025-09-12T07:12:47.000Z</time></trkpt>
        <trkpt lat="29.54937" lon="103.342238"><ele>2279.912</ele><time>2025-09-12T07:12:57.000Z</time></trkpt>
        <trkpt lat="29.549324" lon="103.342146"><ele>2278.2354</ele><time>2025-09-12T07:13:07.000Z</time></trkpt>
        <trkpt lat="29.549307" lon="103.342039"><ele>2278.1135</ele><time>2025-09-12T07:13:20.000Z</time></trkpt>
        <trkpt lat="29.549292" lon="103.341932"><ele>2278.1685</ele><time>2025-09-12T07:13:31.000Z</time></trkpt>
      </trkseg>
      <trkseg>
        <trkpt lat="29.549251" lon="103.341778"><ele>2280.1333</ele><time>2025-09-12T07:16:08.000Z</time></trkpt>
        <trkpt lat="29.549213" lon="103.341668"><ele>2278.6184</ele><time>2025-09-12T07:16:17.000Z</time></trkpt>
        <trkpt lat="29.549195" lon="103.341562"><ele>2277.5962</ele><time>2025-09-12T07:16:27.000Z</time></trkpt>
        <trkpt lat="29.549177" lon="103.34145"><ele>2279.9746</ele><time>2025-09-12T07:16:44.000Z</time></trkpt>
        <trkpt lat="29.549103" lon="103.341388"><ele>2287.3408</ele><time>2025-09-12T07:17:13.000Z</time></trkpt>
        <trkpt lat="29.549057" lon="103.341297"><ele>2290.687</ele><time>2025-09-12T07:17:27.000Z</time></trkpt>
        <trkpt lat="29.54901" lon="103.341204"><ele>2290.452</ele><time>2025-09-12T07:17:48.000Z</time></trkpt>
        <trkpt lat="29.548918" lon="103.341199"><ele>2290.157</ele><time>2025-09-12T07:17:59.000Z</time></trkpt>
        <trkpt lat="29.548824" lon="103.341194"><ele>2293.2812</ele><time>2025-09-12T07:18:22.000Z</time></trkpt>
        <trkpt lat="29.548734" lon="103.341204"><ele>2300.29</ele><time>2025-09-12T07:19:07.000Z</time></trkpt>
        <trkpt lat="29.548641" lon="103.341231"><ele>2306.3823</ele><time>2025-09-12T07:19:32.000Z</time></trkpt>
        <trkpt lat="29.54855" lon="103.34125"><ele>2311.0747</ele><time>2025-09-12T07:20:02.000Z</time></trkpt>
        <trkpt lat="29.548458" lon="103.341254"><ele>2313.5503</ele><time>2025-09-12T07:20:33.000Z</time></trkpt>
        <trkpt lat="29.548377" lon="103.341302"><ele>2318.2007</ele><time>2025-09-12T07:21:07.000Z</time></trkpt>
        <trkpt lat="29.548291" lon="103.341268"><ele>2324.2935</ele><time>2025-09-12T07:22:05.000Z</time></trkpt>
        <trkpt lat="29.548337" lon="103.341166"><ele>2306.5332</ele><time>2025-09-12T07:22:24.000Z</time></trkpt>
        <trkpt lat="29.548218" lon="103.341228"><ele>2325.12</ele><time>2025-09-12T07:22:25.000Z</time></trkpt>
        <trkpt lat="29.548134" lon="103.341272"><ele>2331.014</ele><time>2025-09-12T07:22:50.000Z</time></trkpt>
        <trkpt lat="29.548046" lon="103.341235"><ele>2332.2297</ele><time>2025-09-12T07:23:06.000Z</time></trkpt>
        <trkpt lat="29.547978" lon="103.341304"><ele>2335.4211</ele><time>2025-09-12T07:23:18.000Z</time></trkpt>
        <trkpt lat="29.547893" lon="103.341254"><ele>2336.2896</ele><time>2025-09-12T07:23:32.000Z</time></trkpt>
        <trkpt lat="29.547816" lon="103.341193"><ele>2333.3333</ele><time>2025-09-12T07:23:45.000Z</time></trkpt>
        <trkpt lat="29.547747" lon="103.341127"><ele>2332.2349</ele><time>2025-09-12T07:24:37.000Z</time></trkpt>
        <trkpt lat="29.547654" lon="103.341091"><ele>2329.9924</ele><time>2025-09-12T07:24:54.000Z</time></trkpt>
        <trkpt lat="29.547561" lon="103.341114"><ele>2331.152</ele><time>2025-09-12T07:25:13.000Z</time></trkpt>
        <trkpt lat="29.547471" lon="103.341095"><ele>2333.1443</ele><time>2025-09-12T07:25:35.000Z</time></trkpt>
        <trkpt lat="29.547382" lon="103.341062"><ele>2345.2056</ele><time>2025-09-12T07:26:08.000Z</time></trkpt>
        <trkpt lat="29.547351" lon="103.340963"><ele>2347.106</ele><time>2025-09-12T07:26:28.000Z</time></trkpt>
        <trkpt lat="29.547295" lon="103.340874"><ele>2348.7263</ele><time>2025-09-12T07:26:35.000Z</time></trkpt>
        <trkpt lat="29.547257" lon="103.340773"><ele>2348.1755</ele><time>2025-09-12T07:26:51.000Z</time></trkpt>
        <trkpt lat="29.54719" lon="103.340688"><ele>2351.897</ele><time>2025-09-12T07:27:00.000Z</time></trkpt>
        <trkpt lat="29.547257" lon="103.340614"><ele>2351.9673</ele><time>2025-09-12T07:27:22.000Z</time></trkpt>
        <trkpt lat="29.547178" lon="103.34054"><ele>2352.2217</ele><time>2025-09-12T07:27:34.000Z</time></trkpt>
        <trkpt lat="29.54721" lon="103.340443"><ele>2354.4065</ele><time>2025-09-12T07:27:51.000Z</time></trkpt>
        <trkpt lat="29.547132" lon="103.340367"><ele>2354.6426</ele><time>2025-09-12T07:28:00.000Z</time></trkpt>
        <trkpt lat="29.54724" lon="103.340372"><ele>2355.919</ele><time>2025-09-12T07:28:15.000Z</time></trkpt>
        <trkpt lat="29.54714" lon="103.340305"><ele>2362.9753</ele><time>2025-09-12T07:28:56.000Z</time></trkpt>
        <trkpt lat="29.547035" lon="103.340279"><ele>2360.14</ele><time>2025-09-12T07:29:20.000Z</time></trkpt>
        <trkpt lat="29.54714" lon="103.34026"><ele>2362.6174</ele><time>2025-09-12T07:29:41.000Z</time></trkpt>
        <trkpt lat="29.547107" lon="103.340159"><ele>2374.3943</ele><time>2025-09-12T07:30:34.000Z</time></trkpt>
        <trkpt lat="29.547066" lon="103.340061"><ele>2377.7446</ele><time>2025-09-12T07:31:47.000Z</time></trkpt>
        <trkpt lat="29.547028" lon="103.339954"><ele>2384.7134</ele><time>2025-09-12T07:32:35.000Z</time></trkpt>
        <trkpt lat="29.547042" lon="103.339851"><ele>2386.8176</ele><time>2025-09-12T07:33:04.000Z</time></trkpt>
        <trkpt lat="29.547017" lon="103.339749"><ele>2381.4414</ele><time>2025-09-12T07:34:07.000Z</time></trkpt>
        <trkpt lat="29.546968" lon="103.339659"><ele>2386.3877</ele><time>2025-09-12T07:34:32.000Z</time></trkpt>
        <trkpt lat="29.546881" lon="103.339627"><ele>2395.2573</ele><time>2025-09-12T07:35:21.000Z</time></trkpt>
        <trkpt lat="29.546856" lon="103.339525"><ele>2407.7415</ele><time>2025-09-12T07:35:58.000Z</time></trkpt>
        <trkpt lat="29.54684" lon="103.339408"><ele>2406.037</ele><time>2025-09-12T07:36:34.000Z</time></trkpt>
        <trkpt lat="29.546768" lon="103.339336"><ele>2411.939</ele><time>2025-09-12T07:37:28.000Z</time></trkpt>
        <trkpt lat="29.546644" lon="103.339323"><ele>2405.471</ele><time>2025-09-12T07:40:52.000Z</time></trkpt>
        <trkpt lat="29.546771" lon="103.339328"><ele>2414.2188</ele><time>2025-09-12T07:41:17.000Z</time></trkpt>
        <trkpt lat="29.546697" lon="103.339265"><ele>2413.9736</ele><time>2025-09-12T07:48:08.000Z</time></trkpt>
        <trkpt lat="29.546633" lon="103.339191"><ele>2415.5352</ele><time>2025-09-12T07:48:31.000Z</time></trkpt>
        <trkpt lat="29.546565" lon="103.339121"><ele>2421.804</ele><time>2025-09-12T07:48:56.000Z</time></trkpt>
        <trkpt lat="29.546537" lon="103.339017"><ele>2424.0432</ele><time>2025-09-12T07:49:22.000Z</time></trkpt>
        <trkpt lat="29.546469" lon="103.338947"><ele>2426.1367</ele><time>2025-09-12T07:49:46.000Z</time></trkpt>
        <trkpt lat="29.546401" lon="103.338867"><ele>2434.4739</ele><time>2025-09-12T07:50:22.000Z</time></trkpt>
        <trkpt lat="29.546327" lon="103.338804"><ele>2442.8286</ele><time>2025-09-12T07:51:36.000Z</time></trkpt>
        <trkpt lat="29.546267" lon="103.338726"><ele>2440.7505</ele><time>2025-09-12T07:52:07.000Z</time></trkpt>
        <trkpt lat="29.546217" lon="103.338637"><ele>2441.5234</ele><time>2025-09-12T07:52:35.000Z</time></trkpt>
        <trkpt lat="29.546168" lon="103.338549"><ele>2447.0303</ele><time>2025-09-12T07:53:10.000Z</time></trkpt>
        <trkpt lat="29.546145" lon="103.338443"><ele>2447.1992</ele><time>2025-09-12T07:53:22.000Z</time></trkpt>
        <trkpt lat="29.546149" lon="103.338339"><ele>2452.8438</ele><time>2025-09-12T07:53:51.000Z</time></trkpt>
        <trkpt lat="29.546155" lon="103.33823"><ele>2454.8008</ele><time>2025-09-12T07:54:28.000Z</time></trkpt>
        <trkpt lat="29.546192" lon="103.338135"><ele>2459.408</ele><time>2025-09-12T07:54:57.000Z</time></trkpt>
        <trkpt lat="29.546232" lon="103.338041"><ele>2463.4895</ele><time>2025-09-12T07:55:22.000Z</time></trkpt>
        <trkpt lat="29.546264" lon="103.337942"><ele>2462.919</ele><time>2025-09-12T07:55:42.000Z</time></trkpt>
        <trkpt lat="29.54631" lon="103.337852"><ele>2462.078</ele><time>2025-09-12T07:55:59.000Z</time></trkpt>
        <trkpt lat="29.546377" lon="103.337769"><ele>2462.567</ele><time>2025-09-12T07:56:16.000Z</time></trkpt>
        <trkpt lat="29.546392" lon="103.337663"><ele>2464.7817</ele><time>2025-09-12T07:56:33.000Z</time></trkpt>
        <trkpt lat="29.546424" lon="103.337561"><ele>2465.5093</ele><time>2025-09-12T07:56:46.000Z</time></trkpt>
        <trkpt lat="29.54647" lon="103.337472"><ele>2464.0598</ele><time>2025-09-12T07:56:58.000Z</time></trkpt>
        <trkpt lat="29.546518" lon="103.337384"><ele>2463.99</ele><time>2025-09-12T07:57:09.000Z</time></trkpt>
        <trkpt lat="29.546558" lon="103.337282"><ele>2463.6753</ele><time>2025-09-12T07:57:24.000Z</time></trkpt>
        <trkpt lat="29.546555" lon="103.337172"><ele>2463.258</ele><time>2025-09-12T07:57:40.000Z</time></trkpt>
        <trkpt lat="29.546537" lon="103.337065"><ele>2465.7805</ele><time>2025-09-12T07:57:56.000Z</time></trkpt>
        <trkpt lat="29.546459" lon="103.336999"><ele>2465.5842</ele><time>2025-09-12T07:58:15.000Z</time></trkpt>
        <trkpt lat="29.546422" lon="103.336903"><ele>2465.9353</ele><time>2025-09-12T07:58:29.000Z</time></trkpt>
        <trkpt lat="29.546461" lon="103.3368"><ele>2463.6658</ele><time>2025-09-12T07:58:37.000Z</time></trkpt>
        <trkpt lat="29.546378" lon="103.336757"><ele>2463.065</ele><time>2025-09-12T07:58:46.000Z</time></trkpt>
        <trkpt lat="29.546369" lon="103.336648"><ele>2462.921</ele><time>2025-09-12T07:58:59.000Z</time></trkpt>
        <trkpt lat="29.546398" lon="103.336549"><ele>2460.2961</ele><time>2025-09-12T07:59:11.000Z</time></trkpt>
        <trkpt lat="29.546441" lon="103.336453"><ele>2455.7551</ele><time>2025-09-12T07:59:28.000Z</time></trkpt>
        <trkpt lat="29.54645" lon="103.336349"><ele>2451.905</ele><time>2025-09-12T07:59:43.000Z</time></trkpt>
        <trkpt lat="29.546424" lon="103.33625"><ele>2449.858</ele><time>2025-09-12T07:59:55.000Z</time></trkpt>
        <trkpt lat="29.54646" lon="103.336145"><ele>2449.7356</ele><time>2025-09-12T08:00:05.000Z</time></trkpt>
        <trkpt lat="29.546517" lon="103.336063"><ele>2446.5054</ele><time>2025-09-12T08:00:17.000Z</time></trkpt>
        <trkpt lat="29.546558" lon="103.335966"><ele>2445.3027</ele><time>2025-09-12T08:00:27.000Z</time></trkpt>
        <trkpt lat="29.546586" lon="103.335862"><ele>2443.4478</ele><time>2025-09-12T08:00:37.000Z</time></trkpt>
        <trkpt lat="29.546596" lon="103.335752"><ele>2441.4885</ele><time>2025-09-12T08:00:47.000Z</time></trkpt>
        <trkpt lat="29.546601" lon="103.335643"><ele>2443.0085</ele><time>2025-09-12T08:00:58.000Z</time></trkpt>
        <trkpt lat="29.546638" lon="103.335543"><ele>2442.7666</ele><time>2025-09-12T08:01:06.000Z</time></trkpt>
        <trkpt lat="29.546674" lon="103.335445"><ele>2442.0217</ele><time>2025-09-12T08:01:17.000Z</time></trkpt>
        <trkpt lat="29.546687" lon="103.335342"><ele>2441.8577</ele><time>2025-09-12T08:01:27.000Z</time></trkpt>
        <trkpt lat="29.546704" lon="103.335234"><ele>2439.3381</ele><time>2025-09-12T08:01:41.000Z</time></trkpt>
        <trkpt lat="29.546701" lon="103.33512"><ele>2437.0686</ele><time>2025-09-12T08:01:56.000Z</time></trkpt>
        <trkpt lat="29.546657" lon="103.335024"><ele>2433.4565</ele><time>2025-09-12T08:02:11.000Z</time></trkpt>
        <trkpt lat="29.546574" lon="103.334962"><ele>2431.7295</ele><time>2025-09-12T08:02:25.000Z</time></trkpt>
        <trkpt lat="29.546501" lon="103.334899"><ele>2434.144</ele><time>2025-09-12T08:02:33.000Z</time></trkpt>
        <trkpt lat="29.546416" lon="103.334843"><ele>2434.0305</ele><time>2025-09-12T08:02:47.000Z</time></trkpt>
        <trkpt lat="29.546329" lon="103.334814"><ele>2437.6753</ele><time>2025-09-12T08:03:02.000Z</time></trkpt>
        <trkpt lat="29.546248" lon="103.334767"><ele>2438.8022</ele><time>2025-09-12T08:03:30.000Z</time></trkpt>
        <trkpt lat="29.54616" lon="103.334818"><ele>2443.3098</ele><time>2025-09-12T08:03:54.000Z</time></trkpt>
        <trkpt lat="29.546065" lon="103.33483"><ele>2443.45</ele><time>2025-09-12T08:04:05.000Z</time></trkpt>
        <trkpt lat="29.545984" lon="103.334781"><ele>2441.3557</ele><time>2025-09-12T08:04:15.000Z</time></trkpt>
        <trkpt lat="29.545896" lon="103.334749"><ele>2438.3206</ele><time>2025-09-12T08:04:30.000Z</time></trkpt>
        <trkpt lat="29.545824" lon="103.334673"><ele>2434.6367</ele><time>2025-09-12T08:04:40.000Z</time></trkpt>
        <trkpt lat="29.545766" lon="103.334593"><ele>2431.0703</ele><time>2025-09-12T08:04:51.000Z</time></trkpt>
        <trkpt lat="29.545683" lon="103.334539"><ele>2430.2393</ele><time>2025-09-12T08:05:01.000Z</time></trkpt>
        <trkpt lat="29.545597" lon="103.334482"><ele>2428.8018</ele><time>2025-09-12T08:05:16.000Z</time></trkpt>
        <trkpt lat="29.545516" lon="103.334429"><ele>2429.5896</ele><time>2025-09-12T08:05:30.000Z</time></trkpt>
        <trkpt lat="29.545435" lon="103.33438"><ele>2431.3748</ele><time>2025-09-12T08:05:50.000Z</time></trkpt>
        <trkpt lat="29.54534" lon="103.334341"><ele>2434.1047</ele><time>2025-09-12T08:06:12.000Z</time></trkpt>
        <trkpt lat="29.545263" lon="103.334273"><ele>2433.307</ele><time>2025-09-12T08:06:25.000Z</time></trkpt>
        <trkpt lat="29.545195" lon="103.334198"><ele>2435.0947</ele><time>2025-09-12T08:06:37.000Z</time></trkpt>
        <trkpt lat="29.545127" lon="103.334128"><ele>2436.5312</ele><time>2025-09-12T08:06:51.000Z</time></trkpt>
        <trkpt lat="29.545038" lon="103.334091"><ele>2436.0918</ele><time>2025-09-12T08:07:07.000Z</time></trkpt>
        <trkpt lat="29.544936" lon="103.334092"><ele>2436.001</ele><time>2025-09-12T08:07:23.000Z</time></trkpt>
        <trkpt lat="29.544843" lon="103.334082"><ele>2434.3567</ele><time>2025-09-12T08:07:34.000Z</time></trkpt>
        <trkpt lat="29.544773" lon="103.33415"><ele>2434.6885</ele><time>2025-09-12T08:07:49.000Z</time></trkpt>
        <trkpt lat="29.544696" lon="103.334226"><ele>2434.2595</ele><time>2025-09-12T08:07:59.000Z</time></trkpt>
        <trkpt lat="29.544612" lon="103.334277"><ele>2433.8547</ele><time>2025-09-12T08:08:13.000Z</time></trkpt>
        <trkpt lat="29.544528" lon="103.334238"><ele>2430.141</ele><time>2025-09-12T08:08:22.000Z</time></trkpt>
        <trkpt lat="29.544436" lon="103.334206"><ele>2429.4617</ele><time>2025-09-12T08:08:30.000Z</time></trkpt>
        <trkpt lat="29.544345" lon="103.334202"><ele>2428.8633</ele><time>2025-09-12T08:08:41.000Z</time></trkpt>
        <trkpt lat="29.544253" lon="103.334185"><ele>2428.819</ele><time>2025-09-12T08:08:50.000Z</time></trkpt>
        <trkpt lat="29.54417" lon="103.334129"><ele>2429.3877</ele><time>2025-09-12T08:09:02.000Z</time></trkpt>
        <trkpt lat="29.544066" lon="103.33412"><ele>2429.4126</ele><time>2025-09-12T08:09:14.000Z</time></trkpt>
        <trkpt lat="29.543991" lon="103.33406"><ele>2430.3386</ele><time>2025-09-12T08:09:27.000Z</time></trkpt>
        <trkpt lat="29.54392" lon="103.333992"><ele>2432.46</ele><time>2025-09-12T08:09:38.000Z</time></trkpt>
        <trkpt lat="29.543851" lon="103.333906"><ele>2432.2412</ele><time>2025-09-12T08:09:54.000Z</time></trkpt>
        <trkpt lat="29.543759" lon="103.333924"><ele>2428.736</ele><time>2025-09-12T08:10:13.000Z</time></trkpt>
        <trkpt lat="29.543668" lon="103.333936"><ele>2427.5234</ele><time>2025-09-12T08:10:27.000Z</time></trkpt>
        <trkpt lat="29.54358" lon="103.333869"><ele>2425.974</ele><time>2025-09-12T08:10:34.000Z</time></trkpt>
        <trkpt lat="29.543511" lon="103.333791"><ele>2425.5667</ele><time>2025-09-12T08:10:46.000Z</time></trkpt>
        <trkpt lat="29.543462" lon="103.3337"><ele>2425.0083</ele><time>2025-09-12T08:11:06.000Z</time></trkpt>
        <trkpt lat="29.543399" lon="103.333613"><ele>2424.2788</ele><time>2025-09-12T08:11:21.000Z</time></trkpt>
        <trkpt lat="29.54337" lon="103.333515"><ele>2423.659</ele><time>2025-09-12T08:11:32.000Z</time></trkpt>
        <trkpt lat="29.543336" lon="103.333408"><ele>2423.4812</ele><time>2025-09-12T08:11:41.000Z</time></trkpt>
        <trkpt lat="29.543285" lon="103.333311"><ele>2423.6526</ele><time>2025-09-12T08:11:52.000Z</time></trkpt>
        <trkpt lat="29.54326" lon="103.333203"><ele>2421.8308</ele><time>2025-09-12T08:12:05.000Z</time></trkpt>
        <trkpt lat="29.543206" lon="103.333116"><ele>2424.9917</ele><time>2025-09-12T08:12:15.000Z</time></trkpt>
        <trkpt lat="29.543143" lon="103.333043"><ele>2426.7683</ele><time>2025-09-12T08:12:34.000Z</time></trkpt>
        <trkpt lat="29.543064" lon="103.332984"><ele>2424.996</ele><time>2025-09-12T08:12:46.000Z</time></trkpt>
        <trkpt lat="29.542964" lon="103.332976"><ele>2429.1873</ele><time>2025-09-12T08:12:57.000Z</time></trkpt>
        <trkpt lat="29.542887" lon="103.332918"><ele>2426.481</ele><time>2025-09-12T08:13:09.000Z</time></trkpt>
        <trkpt lat="29.54282" lon="103.332845"><ele>2425.9995</ele><time>2025-09-12T08:13:20.000Z</time></trkpt>
        <trkpt lat="29.542765" lon="103.332752"><ele>2427.9924</ele><time>2025-09-12T08:13:29.000Z</time></trkpt>
        <trkpt lat="29.542712" lon="103.332664"><ele>2427.9805</ele><time>2025-09-12T08:13:41.000Z</time></trkpt>
        <trkpt lat="29.542625" lon="103.332635"><ele>2427.7175</ele><time>2025-09-12T08:13:52.000Z</time></trkpt>
        <trkpt lat="29.542546" lon="103.332575"><ele>2428.0593</ele><time>2025-09-12T08:14:02.000Z</time></trkpt>
        <trkpt lat="29.542513" lon="103.332472"><ele>2427.406</ele><time>2025-09-12T08:14:13.000Z</time></trkpt>
        <trkpt lat="29.542466" lon="103.332372"><ele>2426.4985</ele><time>2025-09-12T08:14:30.000Z</time></trkpt>
        <trkpt lat="29.542422" lon="103.33228"><ele>2427.6697</ele><time>2025-09-12T08:14:39.000Z</time></trkpt>
        <trkpt lat="29.542378" lon="103.332183"><ele>2426.4092</ele><time>2025-09-12T08:14:51.000Z</time></trkpt>
        <trkpt lat="29.542327" lon="103.332095"><ele>2429.5173</ele><time>2025-09-12T08:14:59.000Z</time></trkpt>
        <trkpt lat="29.542257" lon="103.33203"><ele>2429.8474</ele><time>2025-09-12T08:15:08.000Z</time></trkpt>
        <trkpt lat="29.542212" lon="103.331934"><ele>2429.2915</ele><time>2025-09-12T08:15:48.000Z</time></trkpt>
        <trkpt lat="29.542127" lon="103.331976"><ele>2427.873</ele><time>2025-09-12T08:16:03.000Z</time></trkpt>
        <trkpt lat="29.542032" lon="103.331963"><ele>2425.83</ele><time>2025-09-12T08:16:17.000Z</time></trkpt>
        <trkpt lat="29.541942" lon="103.331984"><ele>2426.755</ele><time>2025-09-12T08:16:27.000Z</time></trkpt>
        <trkpt lat="29.541842" lon="103.331996"><ele>2426.837</ele><time>2025-09-12T08:16:37.000Z</time></trkpt>
        <trkpt lat="29.541743" lon="103.331994"><ele>2429.5986</ele><time>2025-09-12T08:16:46.000Z</time></trkpt>
        <trkpt lat="29.541737" lon="103.331887"><ele>2426.608</ele><time>2025-09-12T08:16:58.000Z</time></trkpt>
        <trkpt lat="29.541775" lon="103.331787"><ele>2424.6106</ele><time>2025-09-12T08:17:07.000Z</time></trkpt>
        <trkpt lat="29.541784" lon="103.331681"><ele>2423.9817</ele><time>2025-09-12T08:17:16.000Z</time></trkpt>
        <trkpt lat="29.541786" lon="103.331577"><ele>2422.5977</ele><time>2025-09-12T08:17:27.000Z</time></trkpt>
        <trkpt lat="29.541786" lon="103.331468"><ele>2422.358</ele><time>2025-09-12T08:17:37.000Z</time></trkpt>
        <trkpt lat="29.541857" lon="103.331542"><ele>2423.9011</ele><time>2025-09-12T08:17:54.000Z</time></trkpt>
        <trkpt lat="29.541947" lon="103.331499"><ele>2422.9548</ele><time>2025-09-12T08:18:06.000Z</time></trkpt>
        <trkpt lat="29.541967" lon="103.331398"><ele>2423.4114</ele><time>2025-09-12T08:18:19.000Z</time></trkpt>
        <trkpt lat="29.541984" lon="103.331293"><ele>2424.0354</ele><time>2025-09-12T08:18:28.000Z</time></trkpt>
        <trkpt lat="29.541998" lon="103.331112"><ele>2424.7515</ele><time>2025-09-12T08:18:48.000Z</time></trkpt>
        <trkpt lat="29.542067" lon="103.331311"><ele>2425.4805</ele><time>2025-09-12T08:19:28.000Z</time></trkpt>
        <trkpt lat="29.542003" lon="103.331106"><ele>2425.1765</ele><time>2025-09-12T08:19:58.000Z</time></trkpt>
        <trkpt lat="29.541849" lon="103.331163"><ele>2425.7944</ele><time>2025-09-12T08:21:10.000Z</time></trkpt>
        <trkpt lat="29.542008" lon="103.331548"><ele>2426.125</ele><time>2025-09-12T08:21:12.000Z</time></trkpt>
        <trkpt lat="29.541916" lon="103.331571"><ele>2422.4636</ele><time>2025-09-12T08:21:31.000Z</time></trkpt>
        <trkpt lat="29.541842" lon="103.331635"><ele>2420.944</ele><time>2025-09-12T08:21:39.000Z</time></trkpt>
        <trkpt lat="29.541745" lon="103.331649"><ele>2420.1956</ele><time>2025-09-12T08:21:48.000Z</time></trkpt>
        <trkpt lat="29.541651" lon="103.331653"><ele>2421.5876</ele><time>2025-09-12T08:21:57.000Z</time></trkpt>
        <trkpt lat="29.541561" lon="103.331696"><ele>2421.762</ele><time>2025-09-12T08:22:06.000Z</time></trkpt>
        <trkpt lat="29.541466" lon="103.331704"><ele>2422.6167</ele><time>2025-09-12T08:22:15.000Z</time></trkpt>
        <trkpt lat="29.541372" lon="103.331728"><ele>2425.3774</ele><time>2025-09-12T08:22:25.000Z</time></trkpt>
        <trkpt lat="29.541278" lon="103.331762"><ele>2427.1743</ele><time>2025-09-12T08:22:35.000Z</time></trkpt>
        <trkpt lat="29.541187" lon="103.331784"><ele>2425.4075</ele><time>2025-09-12T08:22:47.000Z</time></trkpt>
        <trkpt lat="29.541099" lon="103.331809"><ele>2424.903</ele><time>2025-09-12T08:23:02.000Z</time></trkpt>
        <trkpt lat="29.541008" lon="103.331794"><ele>2427.1125</ele><time>2025-09-12T08:23:45.000Z</time></trkpt>
        <trkpt lat="29.540913" lon="103.331773"><ele>2426.816</ele><time>2025-09-12T08:24:10.000Z</time></trkpt>
        <trkpt lat="29.540819" lon="103.331751"><ele>2427.766</ele><time>2025-09-12T08:24:20.000Z</time></trkpt>
        <trkpt lat="29.540728" lon="103.331733"><ele>2428.8567</ele><time>2025-09-12T08:24:34.000Z</time></trkpt>
        <trkpt lat="29.540639" lon="103.331753"><ele>2429.9666</ele><time>2025-09-12T08:24:47.000Z</time></trkpt>
        <trkpt lat="29.540562" lon="103.331812"><ele>2431.6323</ele><time>2025-09-12T08:25:01.000Z</time></trkpt>
        <trkpt lat="29.540488" lon="103.331872"><ele>2432.6074</ele><time>2025-09-12T08:25:16.000Z</time></trkpt>
        <trkpt lat="29.540403" lon="103.331918"><ele>2432.7585</ele><time>2025-09-12T08:25:27.000Z</time></trkpt>
        <trkpt lat="29.540317" lon="103.331959"><ele>2434.1545</ele><time>2025-09-12T08:25:36.000Z</time></trkpt>
        <trkpt lat="29.540222" lon="103.332011"><ele>2435.77</ele><time>2025-09-12T08:25:48.000Z</time></trkpt>
        <trkpt lat="29.540164" lon="103.332091"><ele>2433.961</ele><time>2025-09-12T08:26:01.000Z</time></trkpt>
        <trkpt lat="29.540076" lon="103.332133"><ele>2434.6301</ele><time>2025-09-12T08:26:16.000Z</time></trkpt>
        <trkpt lat="29.540012" lon="103.332215"><ele>2435.772</ele><time>2025-09-12T08:26:28.000Z</time></trkpt>
        <trkpt lat="29.539927" lon="103.332259"><ele>2435.051</ele><time>2025-09-12T08:26:38.000Z</time></trkpt>
        <trkpt lat="29.539834" lon="103.332281"><ele>2436.0125</ele><time>2025-09-12T08:26:47.000Z</time></trkpt>
        <trkpt lat="29.539755" lon="103.332333"><ele>2436.8303</ele><time>2025-09-12T08:26:58.000Z</time></trkpt>
        <trkpt lat="29.539687" lon="103.332404"><ele>2439.6064</ele><time>2025-09-12T08:27:12.000Z</time></trkpt>
        <trkpt lat="29.539609" lon="103.332466"><ele>2443.6052</ele><time>2025-09-12T08:27:30.000Z</time></trkpt>
        <trkpt lat="29.539534" lon="103.332536"><ele>2444.9338</ele><time>2025-09-12T08:27:51.000Z</time></trkpt>
        <trkpt lat="29.539449" lon="103.332576"><ele>2446.3628</ele><time>2025-09-12T08:28:16.000Z</time></trkpt>
        <trkpt lat="29.53939" lon="103.332662"><ele>2448.2476</ele><time>2025-09-12T08:28:36.000Z</time></trkpt>
        <trkpt lat="29.539319" lon="103.332738"><ele>2448.7532</ele><time>2025-09-12T08:28:52.000Z</time></trkpt>
        <trkpt lat="29.539251" lon="103.332812"><ele>2449.3123</ele><time>2025-09-12T08:29:10.000Z</time></trkpt>
        <trkpt lat="29.539162" lon="103.33285"><ele>2448.9187</ele><time>2025-09-12T08:29:26.000Z</time></trkpt>
        <trkpt lat="29.53908" lon="103.332906"><ele>2449.3694</ele><time>2025-09-12T08:29:38.000Z</time></trkpt>
        <trkpt lat="29.539006" lon="103.332976"><ele>2452.0947</ele><time>2025-09-12T08:29:51.000Z</time></trkpt>
        <trkpt lat="29.538932" lon="103.333044"><ele>2452.7224</ele><time>2025-09-12T08:30:04.000Z</time></trkpt>
        <trkpt lat="29.538838" lon="103.333085"><ele>2453.262</ele><time>2025-09-12T08:30:15.000Z</time></trkpt>
        <trkpt lat="29.53875" lon="103.333131"><ele>2454.075</ele><time>2025-09-12T08:30:26.000Z</time></trkpt>
        <trkpt lat="29.538663" lon="103.333173"><ele>2453.9888</ele><time>2025-09-12T08:30:39.000Z</time></trkpt>
        <trkpt lat="29.538575" lon="103.333205"><ele>2457.3015</ele><time>2025-09-12T08:30:51.000Z</time></trkpt>
        <trkpt lat="29.538483" lon="103.333214"><ele>2456.415</ele><time>2025-09-12T08:31:04.000Z</time></trkpt>
        <trkpt lat="29.538395" lon="103.333235"><ele>2458.7715</ele><time>2025-09-12T08:31:15.000Z</time></trkpt>
        <trkpt lat="29.538303" lon="103.333261"><ele>2461.1772</ele><time>2025-09-12T08:31:28.000Z</time></trkpt>
        <trkpt lat="29.538227" lon="103.333327"><ele>2460.98</ele><time>2025-09-12T08:31:41.000Z</time></trkpt>
        <trkpt lat="29.538147" lon="103.33338"><ele>2461.9194</ele><time>2025-09-12T08:31:52.000Z</time></trkpt>
        <trkpt lat="29.538064" lon="103.333427"><ele>2462.4592</ele><time>2025-09-12T08:32:00.000Z</time></trkpt>
        <trkpt lat="29.537985" lon="103.333488"><ele>2463.4612</ele><time>2025-09-12T08:32:10.000Z</time></trkpt>
        <trkpt lat="29.537897" lon="103.333522"><ele>2464.5598</ele><time>2025-09-12T08:32:21.000Z</time></trkpt>
        <trkpt lat="29.537811" lon="103.333564"><ele>2465.6687</ele><time>2025-09-12T08:32:31.000Z</time></trkpt>
        <trkpt lat="29.537741" lon="103.333645"><ele>2466.013</ele><time>2025-09-12T08:32:44.000Z</time></trkpt>
        <trkpt lat="29.537671" lon="103.333713"><ele>2467.1182</ele><time>2025-09-12T08:33:00.000Z</time></trkpt>
        <trkpt lat="29.537597" lon="103.333786"><ele>2469.305</ele><time>2025-09-12T08:33:14.000Z</time></trkpt>
        <trkpt lat="29.537508" lon="103.333817"><ele>2471.1282</ele><time>2025-09-12T08:34:12.000Z</time></trkpt>
        <trkpt lat="29.537417" lon="103.33377"><ele>2472.0317</ele><time>2025-09-12T08:34:23.000Z</time></trkpt>
        <trkpt lat="29.537326" lon="103.333788"><ele>2473.1897</ele><time>2025-09-12T08:34:34.000Z</time></trkpt>
        <trkpt lat="29.537277" lon="103.333875"><ele>2473.9531</ele><time>2025-09-12T08:34:54.000Z</time></trkpt>
        <trkpt lat="29.537246" lon="103.333973"><ele>2476.1</ele><time>2025-09-12T08:35:13.000Z</time></trkpt>
        <trkpt lat="29.537214" lon="103.334076"><ele>2477.9375</ele><time>2025-09-12T08:35:34.000Z</time></trkpt>
        <trkpt lat="29.537151" lon="103.334151"><ele>2478.7864</ele><time>2025-09-12T08:35:47.000Z</time></trkpt>
        <trkpt lat="29.537066" lon="103.334189"><ele>2479.4045</ele><time>2025-09-12T08:36:04.000Z</time></trkpt>
        <trkpt lat="29.536984" lon="103.334235"><ele>2482.1729</ele><time>2025-09-12T08:36:25.000Z</time></trkpt>
        <trkpt lat="29.536941" lon="103.334141"><ele>2480.6377</ele><time>2025-09-12T08:36:34.000Z</time></trkpt>
        <trkpt lat="29.537046" lon="103.334086"><ele>2475.6492</ele><time>2025-09-12T08:40:24.000Z</time></trkpt>
        <trkpt lat="29.536966" lon="103.33414"><ele>2482.024</ele><time>2025-09-12T08:40:33.000Z</time></trkpt>
        <trkpt lat="29.536877" lon="103.334182"><ele>2487.191</ele><time>2025-09-12T08:42:26.000Z</time></trkpt>
        <trkpt lat="29.536799" lon="103.334246"><ele>2488.7158</ele><time>2025-09-12T08:42:45.000Z</time></trkpt>
        <trkpt lat="29.536712" lon="103.33428"><ele>2489.6384</ele><time>2025-09-12T08:43:02.000Z</time></trkpt>
        <trkpt lat="29.536619" lon="103.334301"><ele>2490.7322</ele><time>2025-09-12T08:43:17.000Z</time></trkpt>
        <trkpt lat="29.536521" lon="103.334296"><ele>2490.8528</ele><time>2025-09-12T08:43:34.000Z</time></trkpt>
        <trkpt lat="29.536429" lon="103.334317"><ele>2491.9502</ele><time>2025-09-12T08:43:47.000Z</time></trkpt>
        <trkpt lat="29.536338" lon="103.334337"><ele>2493.3057</ele><time>2025-09-12T08:44:04.000Z</time></trkpt>
        <trkpt lat="29.536248" lon="103.3343"><ele>2496.243</ele><time>2025-09-12T08:44:23.000Z</time></trkpt>
        <trkpt lat="29.536153" lon="103.334268"><ele>2496.9116</ele><time>2025-09-12T08:44:35.000Z</time></trkpt>
        <trkpt lat="29.536071" lon="103.334222"><ele>2497.3884</ele><time>2025-09-12T08:44:52.000Z</time></trkpt>
        <trkpt lat="29.535997" lon="103.334153"><ele>2500.3499</ele><time>2025-09-12T08:45:23.000Z</time></trkpt>
        <trkpt lat="29.535911" lon="103.334114"><ele>2503.388</ele><time>2025-09-12T08:45:46.000Z</time></trkpt>
        <trkpt lat="29.535829" lon="103.334053"><ele>2505.9102</ele><time>2025-09-12T08:46:12.000Z</time></trkpt>
        <trkpt lat="29.535746" lon="103.334003"><ele>2506.5803</ele><time>2025-09-12T08:46:25.000Z</time></trkpt>
        <trkpt lat="29.535649" lon="103.333969"><ele>2509.018</ele><time>2025-09-12T08:46:38.000Z</time></trkpt>
        <trkpt lat="29.535598" lon="103.333884"><ele>2512.1296</ele><time>2025-09-12T08:47:01.000Z</time></trkpt>
        <trkpt lat="29.535549" lon="103.333794"><ele>2515.356</ele><time>2025-09-12T08:47:27.000Z</time></trkpt>
        <trkpt lat="29.535483" lon="103.333717"><ele>2515.2783</ele><time>2025-09-12T08:47:41.000Z</time></trkpt>
        <trkpt lat="29.535419" lon="103.333631"><ele>2516.047</ele><time>2025-09-12T08:47:55.000Z</time></trkpt>
        <trkpt lat="29.535377" lon="103.333536"><ele>2516.9697</ele><time>2025-09-12T08:48:05.000Z</time></trkpt>
        <trkpt lat="29.535327" lon="103.333446"><ele>2521.4363</ele><time>2025-09-12T08:48:28.000Z</time></trkpt>
        <trkpt lat="29.535276" lon="103.333361"><ele>2521.4167</ele><time>2025-09-12T08:48:46.000Z</time></trkpt>
        <trkpt lat="29.535237" lon="103.333267"><ele>2524.2234</ele><time>2025-09-12T08:49:05.000Z</time></trkpt>
        <trkpt lat="29.535209" lon="103.333166"><ele>2527.4146</ele><time>2025-09-12T08:49:41.000Z</time></trkpt>
        <trkpt lat="29.53517" lon="103.33307"><ele>2530.5286</ele><time>2025-09-12T08:50:23.000Z</time></trkpt>
        <trkpt lat="29.535124" lon="103.332977"><ele>2534.3433</ele><time>2025-09-12T08:50:47.000Z</time></trkpt>
        <trkpt lat="29.535072" lon="103.33289"><ele>2533.4238</ele><time>2025-09-12T08:51:03.000Z</time></trkpt>
        <trkpt lat="29.53499" lon="103.332835"><ele>2533.2314</ele><time>2025-09-12T08:51:15.000Z</time></trkpt>
        <trkpt lat="29.534901" lon="103.332821"><ele>2538.2388</ele><time>2025-09-12T08:51:46.000Z</time></trkpt>
        <trkpt lat="29.534826" lon="103.332879"><ele>2539.4773</ele><time>2025-09-12T08:52:31.000Z</time></trkpt>
        <trkpt lat="29.534788" lon="103.332984"><ele>2534.0007</ele><time>2025-09-12T08:53:23.000Z</time></trkpt>
        <trkpt lat="29.534879" lon="103.332987"><ele>2537.8213</ele><time>2025-09-12T08:55:56.000Z</time></trkpt>
        <trkpt lat="29.534957" lon="103.333051"><ele>2537.8008</ele><time>2025-09-12T08:56:13.000Z</time></trkpt>
        <trkpt lat="29.535051" lon="103.332916"><ele>2532.1047</ele><time>2025-09-12T08:56:48.000Z</time></trkpt>
        <trkpt lat="29.535011" lon="103.332821"><ele>2531.3115</ele><time>2025-09-12T08:58:04.000Z</time></trkpt>
        <trkpt lat="29.53497" lon="103.332923"><ele>2533.6375</ele><time>2025-09-12T09:00:02.000Z</time></trkpt>
      </trkseg>
      <trkseg>
        <trkpt lat="29.534949" lon="103.332963"><ele>2534.7808</ele><time>2025-09-12T09:03:14.000Z</time></trkpt>
        <trkpt lat="29.534853" lon="103.332938"><ele>2536.7788</ele><time>2025-09-12T09:03:23.000Z</time></trkpt>
        <trkpt lat="29.534761" lon="103.332938"><ele>2535.3196</ele><time>2025-09-12T09:03:42.000Z</time></trkpt>
        <trkpt lat="29.534673" lon="103.332972"><ele>2539.695</ele><time>2025-09-12T09:04:06.000Z</time></trkpt>
        <trkpt lat="29.534584" lon="103.332992"><ele>2544.906</ele><time>2025-09-12T09:04:28.000Z</time></trkpt>
        <trkpt lat="29.534502" lon="103.33304"><ele>2549.0864</ele><time>2025-09-12T09:04:47.000Z</time></trkpt>
        <trkpt lat="29.534423" lon="103.333096"><ele>2551.9094</ele><time>2025-09-12T09:05:06.000Z</time></trkpt>
        <trkpt lat="29.534335" lon="103.33312"><ele>2552.8923</ele><time>2025-09-12T09:05:35.000Z</time></trkpt>
        <trkpt lat="29.534262" lon="103.333057"><ele>2555.6975</ele><time>2025-09-12T09:06:15.000Z</time></trkpt>
        <trkpt lat="29.534185" lon="103.333125"><ele>2558.845</ele><time>2025-09-12T09:06:41.000Z</time></trkpt>
        <trkpt lat="29.534099" lon="103.333159"><ele>2563.6028</ele><time>2025-09-12T09:07:12.000Z</time></trkpt>
        <trkpt lat="29.534006" lon="103.333164"><ele>2565.8186</ele><time>2025-09-12T09:08:01.000Z</time></trkpt>
        <trkpt lat="29.533913" lon="103.333181"><ele>2569.5762</ele><time>2025-09-12T09:08:38.000Z</time></trkpt>
        <trkpt lat="29.533836" lon="103.333104"><ele>2569.7998</ele><time>2025-09-12T09:09:17.000Z</time></trkpt>
        <trkpt lat="29.533756" lon="103.33305"><ele>2579.6367</ele><time>2025-09-12T09:10:25.000Z</time></trkpt>
        <trkpt lat="29.533701" lon="103.332967"><ele>2584.4978</ele><time>2025-09-12T09:10:56.000Z</time></trkpt>
        <trkpt lat="29.533619" lon="103.332916"><ele>2585.7278</ele><time>2025-09-12T09:11:19.000Z</time></trkpt>
        <trkpt lat="29.533546" lon="103.332854"><ele>2589.5984</ele><time>2025-09-12T09:11:43.000Z</time></trkpt>
        <trkpt lat="29.533473" lon="103.332791"><ele>2593.7158</ele><time>2025-09-12T09:12:48.000Z</time></trkpt>
        <trkpt lat="29.533394" lon="103.33273"><ele>2596.9326</ele><time>2025-09-12T09:13:15.000Z</time></trkpt>
        <trkpt lat="29.533306" lon="103.332676"><ele>2603.5066</ele><time>2025-09-12T09:14:07.000Z</time></trkpt>
        <trkpt lat="29.533233" lon="103.332612"><ele>2606.1902</ele><time>2025-09-12T09:14:33.000Z</time></trkpt>
        <trkpt lat="29.533163" lon="103.332543"><ele>2609.3418</ele><time>2025-09-12T09:14:59.000Z</time></trkpt>
        <trkpt lat="29.533087" lon="103.332481"><ele>2610.62</ele><time>2025-09-12T09:15:22.000Z</time></trkpt>
        <trkpt lat="29.533031" lon="103.332395"><ele>2613.0627</ele><time>2025-09-12T09:15:47.000Z</time></trkpt>
        <trkpt lat="29.532955" lon="103.332335"><ele>2616.4277</ele><time>2025-09-12T09:16:06.000Z</time></trkpt>
        <trkpt lat="29.532889" lon="103.332261"><ele>2619.7998</ele><time>2025-09-12T09:16:29.000Z</time></trkpt>
        <trkpt lat="29.532819" lon="103.332195"><ele>2620.548</ele><time>2025-09-12T09:16:53.000Z</time></trkpt>
        <trkpt lat="29.532763" lon="103.332104"><ele>2623.8926</ele><time>2025-09-12T09:17:19.000Z</time></trkpt>
        <trkpt lat="29.532699" lon="103.332029"><ele>2626.6975</ele><time>2025-09-12T09:19:40.000Z</time></trkpt>
        <trkpt lat="29.532628" lon="103.331958"><ele>2626.765</ele><time>2025-09-12T09:20:14.000Z</time></trkpt>
        <trkpt lat="29.532606" lon="103.331858"><ele>2639.2402</ele><time>2025-09-12T09:20:48.000Z</time></trkpt>
        <trkpt lat="29.532566" lon="103.33176"><ele>2645.15</ele><time>2025-09-12T09:21:44.000Z</time></trkpt>
        <trkpt lat="29.532516" lon="103.331667"><ele>2645.51</ele><time>2025-09-12T09:22:29.000Z</time></trkpt>
        <trkpt lat="29.532464" lon="103.331578"><ele>2651.8735</ele><time>2025-09-12T09:23:08.000Z</time></trkpt>
        <trkpt lat="29.532464" lon="103.331472"><ele>2654.6223</ele><time>2025-09-12T09:23:47.000Z</time></trkpt>
        <trkpt lat="29.532407" lon="103.331385"><ele>2655.3962</ele><time>2025-09-12T09:24:40.000Z</time></trkpt>
        <trkpt lat="29.532381" lon="103.331286"><ele>2658.9866</ele><time>2025-09-12T09:25:13.000Z</time></trkpt>
        <trkpt lat="29.532364" lon="103.331184"><ele>2659.4006</ele><time>2025-09-12T09:25:42.000Z</time></trkpt>
        <trkpt lat="29.532275" lon="103.331224"><ele>2662.6045</ele><time>2025-09-12T09:26:06.000Z</time></trkpt>
        <trkpt lat="29.532206" lon="103.331306"><ele>2666.2007</ele><time>2025-09-12T09:26:42.000Z</time></trkpt>
        <trkpt lat="29.53215" lon="103.331215"><ele>2676.0383</ele><time>2025-09-12T09:28:28.000Z</time></trkpt>
        <trkpt lat="29.532185" lon="103.331119"><ele>2678.723</ele><time>2025-09-12T09:28:50.000Z</time></trkpt>
        <trkpt lat="29.5322" lon="103.331016"><ele>2680.7134</ele><time>2025-09-12T09:29:16.000Z</time></trkpt>
        <trkpt lat="29.532188" lon="103.330913"><ele>2682.8</ele><time>2025-09-12T09:29:35.000Z</time></trkpt>
        <trkpt lat="29.532178" lon="103.330807"><ele>2683.4036</ele><time>2025-09-12T09:29:48.000Z</time></trkpt>
        <trkpt lat="29.532186" lon="103.330701"><ele>2684.0212</ele><time>2025-09-12T09:30:05.000Z</time></trkpt>
        <trkpt lat="29.532196" lon="103.330598"><ele>2687.242</ele><time>2025-09-12T09:30:27.000Z</time></trkpt>
        <trkpt lat="29.532206" lon="103.330491"><ele>2691.66</ele><time>2025-09-12T09:31:01.000Z</time></trkpt>
        <trkpt lat="29.532129" lon="103.330435"><ele>2696.0527</ele><time>2025-09-12T09:32:26.000Z</time></trkpt>
        <trkpt lat="29.532122" lon="103.33033"><ele>2704.2668</ele><time>2025-09-12T09:33:16.000Z</time></trkpt>
        <trkpt lat="29.532226" lon="103.330294"><ele>2698.9824</ele><time>2025-09-12T09:34:46.000Z</time></trkpt>
        <trkpt lat="29.532152" lon="103.330235"><ele>2700.7346</ele><time>2025-09-12T09:35:13.000Z</time></trkpt>
        <trkpt lat="29.532059" lon="103.330229"><ele>2708.4854</ele><time>2025-09-12T09:35:49.000Z</time></trkpt>
        <trkpt lat="29.531969" lon="103.330218"><ele>2714.3137</ele><time>2025-09-12T09:36:26.000Z</time></trkpt>
        <trkpt lat="29.531878" lon="103.330207"><ele>2718.645</ele><time>2025-09-12T09:37:19.000Z</time></trkpt>
        <trkpt lat="29.531812" lon="103.330072"><ele>2719.3862</ele><time>2025-09-12T09:39:46.000Z</time></trkpt>
        <trkpt lat="29.531818" lon="103.33019"><ele>2719.031</ele><time>2025-09-12T09:39:48.000Z</time></trkpt>
        <trkpt lat="29.531758" lon="103.330108"><ele>2723.2717</ele><time>2025-09-12T09:40:21.000Z</time></trkpt>
        <trkpt lat="29.531686" lon="103.330038"><ele>2726.944</ele><time>2025-09-12T09:40:44.000Z</time></trkpt>
        <trkpt lat="29.531596" lon="103.330014"><ele>2728.0103</ele><time>2025-09-12T09:41:05.000Z</time></trkpt>
        <trkpt lat="29.531512" lon="103.329975"><ele>2733.2263</ele><time>2025-09-12T09:41:44.000Z</time></trkpt>
        <trkpt lat="29.531444" lon="103.329907"><ele>2742.07</ele><time>2025-09-12T09:42:59.000Z</time></trkpt>
        <trkpt lat="29.531373" lon="103.32984"><ele>2748.593</ele><time>2025-09-12T09:43:38.000Z</time></trkpt>
        <trkpt lat="29.531304" lon="103.329774"><ele>2755.2444</ele><time>2025-09-12T09:44:48.000Z</time></trkpt>
        <trkpt lat="29.531256" lon="103.329682"><ele>2762.805</ele><time>2025-09-12T09:45:50.000Z</time></trkpt>
        <trkpt lat="29.531192" lon="103.329606"><ele>2765.3325</ele><time>2025-09-12T09:46:34.000Z</time></trkpt>
        <trkpt lat="29.53114" lon="103.329517"><ele>2768.1895</ele><time>2025-09-12T09:47:16.000Z</time></trkpt>
        <trkpt lat="29.531114" lon="103.329417"><ele>2774.7737</ele><time>2025-09-12T09:47:46.000Z</time></trkpt>
        <trkpt lat="29.531105" lon="103.329312"><ele>2777.4436</ele><time>2025-09-12T09:48:07.000Z</time></trkpt>
        <trkpt lat="29.5311" lon="103.329201"><ele>2777.1333</ele><time>2025-09-12T09:48:23.000Z</time></trkpt>
        <trkpt lat="29.531088" lon="103.329098"><ele>2778.2812</ele><time>2025-09-12T09:48:38.000Z</time></trkpt>
        <trkpt lat="29.531087" lon="103.328994"><ele>2783.3882</ele><time>2025-09-12T09:48:59.000Z</time></trkpt>
        <trkpt lat="29.531074" lon="103.328882"><ele>2784.149</ele><time>2025-09-12T09:49:19.000Z</time></trkpt>
        <trkpt lat="29.531106" lon="103.328782"><ele>2789.9314</ele><time>2025-09-12T09:49:42.000Z</time></trkpt>
        <trkpt lat="29.531122" lon="103.328674"><ele>2793.3098</ele><time>2025-09-12T09:50:23.000Z</time></trkpt>
        <trkpt lat="29.531163" lon="103.32858"><ele>2795.6145</ele><time>2025-09-12T09:50:49.000Z</time></trkpt>
        <trkpt lat="29.531183" lon="103.328477"><ele>2794.8508</ele><time>2025-09-12T09:51:22.000Z</time></trkpt>
        <trkpt lat="29.531231" lon="103.328385"><ele>2798.666</ele><time>2025-09-12T09:51:38.000Z</time></trkpt>
        <trkpt lat="29.531252" lon="103.32828"><ele>2798.911</ele><time>2025-09-12T09:51:50.000Z</time></trkpt>
        <trkpt lat="29.531252" lon="103.328172"><ele>2798.294</ele><time>2025-09-12T09:52:02.000Z</time></trkpt>
        <trkpt lat="29.531263" lon="103.328069"><ele>2799.2017</ele><time>2025-09-12T09:52:16.000Z</time></trkpt>
        <trkpt lat="29.531274" lon="103.327965"><ele>2801.4275</ele><time>2025-09-12T09:52:36.000Z</time></trkpt>
        <trkpt lat="29.531238" lon="103.327869"><ele>2801.2456</ele><time>2025-09-12T09:52:52.000Z</time></trkpt>
        <trkpt lat="29.531227" lon="103.327767"><ele>2804.095</ele><time>2025-09-12T09:53:18.000Z</time></trkpt>
        <trkpt lat="29.531229" lon="103.327663"><ele>2806.0635</ele><time>2025-09-12T09:53:38.000Z</time></trkpt>
        <trkpt lat="29.531217" lon="103.327558"><ele>2805.1482</ele><time>2025-09-12T09:54:02.000Z</time></trkpt>
        <trkpt lat="29.531189" lon="103.327454"><ele>2807.5513</ele><time>2025-09-12T09:54:36.000Z</time></trkpt>
        <trkpt lat="29.531201" lon="103.327347"><ele>2812.6965</ele><time>2025-09-12T09:55:06.000Z</time></trkpt>
        <trkpt lat="29.531199" lon="103.327244"><ele>2815.9114</ele><time>2025-09-12T09:57:37.000Z</time></trkpt>
        <trkpt lat="29.531169" lon="103.32714"><ele>2817.0913</ele><time>2025-09-12T09:58:00.000Z</time></trkpt>
        <trkpt lat="29.531091" lon="103.327086"><ele>2819.9395</ele><time>2025-09-12T09:58:20.000Z</time></trkpt>
        <trkpt lat="29.53101" lon="103.327041"><ele>2819.8135</ele><time>2025-09-12T09:58:45.000Z</time></trkpt>
        <trkpt lat="29.530931" lon="103.326986"><ele>2821.8206</ele><time>2025-09-12T09:59:08.000Z</time></trkpt>
        <trkpt lat="29.530844" lon="103.326959"><ele>2822.8066</ele><time>2025-09-12T09:59:27.000Z</time></trkpt>
        <trkpt lat="29.530816" lon="103.326857"><ele>2831.451</ele><time>2025-09-12T10:00:28.000Z</time></trkpt>
        <trkpt lat="29.530743" lon="103.326791"><ele>2831.3625</ele><time>2025-09-12T10:01:21.000Z</time></trkpt>
        <trkpt lat="29.530663" lon="103.326847"><ele>2835.0796</ele><time>2025-09-12T10:01:48.000Z</time></trkpt>
        <trkpt lat="29.530575" lon="103.326887"><ele>2839.281</ele><time>2025-09-12T10:02:13.000Z</time></trkpt>
        <trkpt lat="29.530482" lon="103.326907"><ele>2839.5696</ele><time>2025-09-12T10:03:08.000Z</time></trkpt>
        <trkpt lat="29.530397" lon="103.326953"><ele>2842.5413</ele><time>2025-09-12T10:03:30.000Z</time></trkpt>
        <trkpt lat="29.530311" lon="103.32699"><ele>2846.588</ele><time>2025-09-12T10:03:58.000Z</time></trkpt>
        <trkpt lat="29.530224" lon="103.327031"><ele>2849.2236</ele><time>2025-09-12T10:04:20.000Z</time></trkpt>
        <trkpt lat="29.530142" lon="103.327077"><ele>2852.6743</ele><time>2025-09-12T10:04:41.000Z</time></trkpt>
        <trkpt lat="29.530063" lon="103.327139"><ele>2854.0918</ele><time>2025-09-12T10:04:58.000Z</time></trkpt>
        <trkpt lat="29.529991" lon="103.327217"><ele>2855.5862</ele><time>2025-09-12T10:05:18.000Z</time></trkpt>
        <trkpt lat="29.529916" lon="103.327283"><ele>2855.8198</ele><time>2025-09-12T10:05:36.000Z</time></trkpt>
        <trkpt lat="29.529924" lon="103.327392"><ele>2858.4363</ele><time>2025-09-12T10:07:23.000Z</time></trkpt>
        <trkpt lat="29.529843" lon="103.327438"><ele>2858.1443</ele><time>2025-09-12T10:07:32.000Z</time></trkpt>
        <trkpt lat="29.529788" lon="103.327528"><ele>2859.392</ele><time>2025-09-12T10:07:46.000Z</time></trkpt>
        <trkpt lat="29.529744" lon="103.327624"><ele>2860.387</ele><time>2025-09-12T10:08:02.000Z</time></trkpt>
        <trkpt lat="29.529685" lon="103.327715"><ele>2861.0115</ele><time>2025-09-12T10:08:16.000Z</time></trkpt>
        <trkpt lat="29.529601" lon="103.327782"><ele>2857.799</ele><time>2025-09-12T10:08:31.000Z</time></trkpt>
        <trkpt lat="29.529514" lon="103.327835"><ele>2854.4158</ele><time>2025-09-12T10:08:49.000Z</time></trkpt>
        <trkpt lat="29.529423" lon="103.327809"><ele>2858.565</ele><time>2025-09-12T10:09:26.000Z</time></trkpt>
        <trkpt lat="29.529329" lon="103.327787"><ele>2858.693</ele><time>2025-09-12T10:09:41.000Z</time></trkpt>
        <trkpt lat="29.529241" lon="103.327818"><ele>2864.582</ele><time>2025-09-12T10:10:15.000Z</time></trkpt>
        <trkpt lat="29.529218" lon="103.327923"><ele>2863.9238</ele><time>2025-09-12T10:10:32.000Z</time></trkpt>
        <trkpt lat="29.529215" lon="103.328031"><ele>2862.5657</ele><time>2025-09-12T10:10:57.000Z</time></trkpt>
        <trkpt lat="29.529164" lon="103.328123"><ele>2865.4226</ele><time>2025-09-12T10:11:19.000Z</time></trkpt>
        <trkpt lat="29.529151" lon="103.32823"><ele>2866.532</ele><time>2025-09-12T10:11:40.000Z</time></trkpt>
        <trkpt lat="29.529119" lon="103.32833"><ele>2871.2383</ele><time>2025-09-12T10:12:13.000Z</time></trkpt>
        <trkpt lat="29.529099" lon="103.328436"><ele>2875.5793</ele><time>2025-09-12T10:12:54.000Z</time></trkpt>
        <trkpt lat="29.529045" lon="103.32852"><ele>2880.4453</ele><time>2025-09-12T10:13:24.000Z</time></trkpt>
        <trkpt lat="29.529003" lon="103.328622"><ele>2880.3494</ele><time>2025-09-12T10:13:47.000Z</time></trkpt>
        <trkpt lat="29.52897" lon="103.328721"><ele>2882.0984</ele><time>2025-09-12T10:14:10.000Z</time></trkpt>
        <trkpt lat="29.52892" lon="103.328809"><ele>2886.0806</ele><time>2025-09-12T10:14:27.000Z</time></trkpt>
        <trkpt lat="29.528901" lon="103.328912"><ele>2886.3757</ele><time>2025-09-12T10:14:42.000Z</time></trkpt>
        <trkpt lat="29.52884" lon="103.32899"><ele>2888.9026</ele><time>2025-09-12T10:15:03.000Z</time></trkpt>
        <trkpt lat="29.528802" lon="103.329084"><ele>2891.1643</ele><time>2025-09-12T10:15:25.000Z</time></trkpt>
        <trkpt lat="29.528743" lon="103.329183"><ele>2891.1775</ele><time>2025-09-12T10:15:44.000Z</time></trkpt>
        <trkpt lat="29.528685" lon="103.329264"><ele>2892.4133</ele><time>2025-09-12T10:16:05.000Z</time></trkpt>
        <trkpt lat="29.528633" lon="103.329349"><ele>2896.3044</ele><time>2025-09-12T10:16:21.000Z</time></trkpt>
        <trkpt lat="29.528613" lon="103.329454"><ele>2897.2153</ele><time>2025-09-12T10:16:39.000Z</time></trkpt>
        <trkpt lat="29.528581" lon="103.329552"><ele>2900.0776</ele><time>2025-09-12T10:16:56.000Z</time></trkpt>
        <trkpt lat="29.528547" lon="103.329662"><ele>2902.9958</ele><time>2025-09-12T10:17:14.000Z</time></trkpt>
        <trkpt lat="29.528536" lon="103.329772"><ele>2905.5984</ele><time>2025-09-12T10:17:32.000Z</time></trkpt>
        <trkpt lat="29.528524" lon="103.329876"><ele>2906.78</ele><time>2025-09-12T10:17:49.000Z</time></trkpt>
        <trkpt lat="29.528503" lon="103.329977"><ele>2906.1936</ele><time>2025-09-12T10:18:07.000Z</time></trkpt>
        <trkpt lat="29.528479" lon="103.330093"><ele>2900.8608</ele><time>2025-09-12T10:22:14.000Z</time></trkpt>
        <trkpt lat="29.528393" lon="103.330056"><ele>2904.4023</ele><time>2025-09-12T10:22:55.000Z</time></trkpt>
        <trkpt lat="29.52833" lon="103.33013"><ele>2897.2214</ele><time>2025-09-12T10:23:09.000Z</time></trkpt>
        <trkpt lat="29.528248" lon="103.330178"><ele>2902.003</ele><time>2025-09-12T10:23:21.000Z</time></trkpt>
        <trkpt lat="29.528221" lon="103.330279"><ele>2903.4524</ele><time>2025-09-12T10:23:32.000Z</time></trkpt>
        <trkpt lat="29.528232" lon="103.330386"><ele>2902.4783</ele><time>2025-09-12T10:23:45.000Z</time></trkpt>
        <trkpt lat="29.52825" lon="103.33049"><ele>2905.068</ele><time>2025-09-12T10:24:06.000Z</time></trkpt>
        <trkpt lat="29.52822" lon="103.330597"><ele>2909.441</ele><time>2025-09-12T10:24:54.000Z</time></trkpt>
        <trkpt lat="29.528156" lon="103.33067"><ele>2908.9702</ele><time>2025-09-12T10:25:21.000Z</time></trkpt>
        <trkpt lat="29.528082" lon="103.330736"><ele>2911.137</ele><time>2025-09-12T10:25:48.000Z</time></trkpt>
        <trkpt lat="29.528054" lon="103.330838"><ele>2913.2822</ele><time>2025-09-12T10:26:03.000Z</time></trkpt>
        <trkpt lat="29.528013" lon="103.330939"><ele>2917.675</ele><time>2025-09-12T10:26:20.000Z</time></trkpt>
        <trkpt lat="29.527978" lon="103.331034"><ele>2920.8398</ele><time>2025-09-12T10:26:50.000Z</time></trkpt>
        <trkpt lat="29.527939" lon="103.33113"><ele>2923.4868</ele><time>2025-09-12T10:27:16.000Z</time></trkpt>
        <trkpt lat="29.527872" lon="103.331218"><ele>2924.2231</ele><time>2025-09-12T10:27:38.000Z</time></trkpt>
        <trkpt lat="29.527804" lon="103.331295"><ele>2926.2966</ele><time>2025-09-12T10:28:02.000Z</time></trkpt>
        <trkpt lat="29.527732" lon="103.331363"><ele>2926.6274</ele><time>2025-09-12T10:28:25.000Z</time></trkpt>
        <trkpt lat="29.527706" lon="103.331464"><ele>2928.2932</ele><time>2025-09-12T10:28:51.000Z</time></trkpt>
        <trkpt lat="29.527655" lon="103.33155"><ele>2930.1274</ele><time>2025-09-12T10:29:09.000Z</time></trkpt>
        <trkpt lat="29.527632" lon="103.331661"><ele>2929.5784</ele><time>2025-09-12T10:29:43.000Z</time></trkpt>
        <trkpt lat="29.527622" lon="103.331768"><ele>2932.5261</ele><time>2025-09-12T10:29:58.000Z</time></trkpt>
        <trkpt lat="29.527642" lon="103.331871"><ele>2935.5908</ele><time>2025-09-12T10:30:17.000Z</time></trkpt>
        <trkpt lat="29.527651" lon="103.331976"><ele>2935.9648</ele><time>2025-09-12T10:30:42.000Z</time></trkpt>
        <trkpt lat="29.527561" lon="103.332009"><ele>2937.4314</ele><time>2025-09-12T10:31:04.000Z</time></trkpt>
        <trkpt lat="29.52748" lon="103.332056"><ele>2941.8274</ele><time>2025-09-12T10:31:31.000Z</time></trkpt>
        <trkpt lat="29.527474" lon="103.33216"><ele>2942.0762</ele><time>2025-09-12T10:31:41.000Z</time></trkpt>
        <trkpt lat="29.527478" lon="103.332264"><ele>2942.7876</ele><time>2025-09-12T10:32:06.000Z</time></trkpt>
        <trkpt lat="29.527462" lon="103.332369"><ele>2948.04</ele><time>2025-09-12T10:34:28.000Z</time></trkpt>
        <trkpt lat="29.527384" lon="103.332432"><ele>2948.4758</ele><time>2025-09-12T10:34:49.000Z</time></trkpt>
        <trkpt lat="29.527289" lon="103.332454"><ele>2957.7075</ele><time>2025-09-12T10:35:24.000Z</time></trkpt>
        <trkpt lat="29.52724" lon="103.332358"><ele>2957.715</ele><time>2025-09-12T10:35:40.000Z</time></trkpt>
        <trkpt lat="29.527201" lon="103.332261"><ele>2954.914</ele><time>2025-09-12T10:35:56.000Z</time></trkpt>
        <trkpt lat="29.527107" lon="103.332223"><ele>2958.101</ele><time>2025-09-12T10:36:12.000Z</time></trkpt>
        <trkpt lat="29.527016" lon="103.332238"><ele>2959.2346</ele><time>2025-09-12T10:36:34.000Z</time></trkpt>
        <trkpt lat="29.526982" lon="103.332335"><ele>2954.7874</ele><time>2025-09-12T10:36:49.000Z</time></trkpt>
        <trkpt lat="29.526954" lon="103.332434"><ele>2955.6038</ele><time>2025-09-12T10:37:12.000Z</time></trkpt>
        <trkpt lat="29.526981" lon="103.332533"><ele>2958.3474</ele><time>2025-09-12T10:37:23.000Z</time></trkpt>
        <trkpt lat="29.527" lon="103.332637"><ele>2957.5957</ele><time>2025-09-12T10:37:46.000Z</time></trkpt>
        <trkpt lat="29.527012" lon="103.332746"><ele>2956.9543</ele><time>2025-09-12T10:38:02.000Z</time></trkpt>
        <trkpt lat="29.526971" lon="103.332842"><ele>2959.555</ele><time>2025-09-12T10:38:26.000Z</time></trkpt>
        <trkpt lat="29.526973" lon="103.332951"><ele>2961.376</ele><time>2025-09-12T10:38:43.000Z</time></trkpt>
        <trkpt lat="29.526992" lon="103.333057"><ele>2963.932</ele><time>2025-09-12T10:39:00.000Z</time></trkpt>
        <trkpt lat="29.527051" lon="103.333145"><ele>2964.033</ele><time>2025-09-12T10:39:22.000Z</time></trkpt>
        <trkpt lat="29.527069" lon="103.333251"><ele>2965.3442</ele><time>2025-09-12T10:39:37.000Z</time></trkpt>
        <trkpt lat="29.526996" lon="103.33332"><ele>2966.9016</ele><time>2025-09-12T10:40:21.000Z</time></trkpt>
        <trkpt lat="29.526903" lon="103.33336"><ele>2970.0422</ele><time>2025-09-12T10:40:42.000Z</time></trkpt>
        <trkpt lat="29.52682" lon="103.33341"><ele>2974.945</ele><time>2025-09-12T10:41:11.000Z</time></trkpt>
        <trkpt lat="29.526711" lon="103.33344"><ele>2978.7502</ele><time>2025-09-12T10:41:40.000Z</time></trkpt>
        <trkpt lat="29.526625" lon="103.333487"><ele>2988.1614</ele><time>2025-09-12T10:42:33.000Z</time></trkpt>
        <trkpt lat="29.526539" lon="103.333531"><ele>2990.2456</ele><time>2025-09-12T10:42:52.000Z</time></trkpt>
        <trkpt lat="29.526461" lon="103.333583"><ele>2991.018</ele><time>2025-09-12T10:43:14.000Z</time></trkpt>
        <trkpt lat="29.526364" lon="103.333602"><ele>2989.458</ele><time>2025-09-12T10:43:29.000Z</time></trkpt>
        <trkpt lat="29.526278" lon="103.333639"><ele>2987.7668</ele><time>2025-09-12T10:43:41.000Z</time></trkpt>
        <trkpt lat="29.526216" lon="103.333717"><ele>2988.6335</ele><time>2025-09-12T10:44:17.000Z</time></trkpt>
        <trkpt lat="29.526131" lon="103.333767"><ele>2991.9795</ele><time>2025-09-12T10:44:55.000Z</time></trkpt>
        <trkpt lat="29.526062" lon="103.333841"><ele>2995.3418</ele><time>2025-09-12T10:45:25.000Z</time></trkpt>
        <trkpt lat="29.525984" lon="103.333897"><ele>2997.6646</ele><time>2025-09-12T10:45:45.000Z</time></trkpt>
        <trkpt lat="29.5259" lon="103.333944"><ele>2999.1616</ele><time>2025-09-12T10:46:17.000Z</time></trkpt>
        <trkpt lat="29.525814" lon="103.333982"><ele>3001.2346</ele><time>2025-09-12T10:46:40.000Z</time></trkpt>
        <trkpt lat="29.525726" lon="103.334018"><ele>3004.5796</ele><time>2025-09-12T10:47:08.000Z</time></trkpt>
        <trkpt lat="29.525679" lon="103.334106"><ele>3004.0806</ele><time>2025-09-12T10:47:30.000Z</time></trkpt>
        <trkpt lat="29.525621" lon="103.33413"><ele>3001.7673</ele><time>2025-09-12T10:50:02.000Z</time></trkpt>
        <trkpt lat="29.525537" lon="103.334168"><ele>2999.991</ele><time>2025-09-12T10:50:20.000Z</time></trkpt>
        <trkpt lat="29.525495" lon="103.334265"><ele>3001.0366</ele><time>2025-09-12T10:50:37.000Z</time></trkpt>
        <trkpt lat="29.525439" lon="103.334354"><ele>3002.8262</ele><time>2025-09-12T10:50:56.000Z</time></trkpt>
        <trkpt lat="29.525364" lon="103.334415"><ele>3002.675</ele><time>2025-09-12T10:51:12.000Z</time></trkpt>
        <trkpt lat="29.525318" lon="103.334505"><ele>3008.9045</ele><time>2025-09-12T10:51:34.000Z</time></trkpt>
        <trkpt lat="29.525249" lon="103.334572"><ele>3013.2822</ele><time>2025-09-12T10:51:59.000Z</time></trkpt>
        <trkpt lat="29.525185" lon="103.334649"><ele>3018.4512</ele><time>2025-09-12T10:52:23.000Z</time></trkpt>
        <trkpt lat="29.525105" lon="103.334716"><ele>3019.6392</ele><time>2025-09-12T10:52:43.000Z</time></trkpt>
        <trkpt lat="29.525022" lon="103.334761"><ele>3021.8464</ele><time>2025-09-12T10:53:13.000Z</time></trkpt>
        <trkpt lat="29.524927" lon="103.334777"><ele>3023.4055</ele><time>2025-09-12T10:56:44.000Z</time></trkpt>
      </trkseg>
      <trkseg>
        <trkpt lat="29.523819" lon="103.334964"><ele>3037.6084</ele><time>2025-09-12T11:03:29.000Z</time></trkpt>
        <trkpt lat="29.523784" lon="103.334933"><ele>3035.6995</ele><time>2025-09-12T11:05:59.000Z</time></trkpt>
        <trkpt lat="29.52388" lon="103.334969"><ele>3037.3057</ele><time>2025-09-12T11:06:46.000Z</time></trkpt>
        <trkpt lat="29.523909" lon="103.335074"><ele>3034.0586</ele><time>2025-09-12T11:06:59.000Z</time></trkpt>
        <trkpt lat="29.523999" lon="103.335092"><ele>3031.8816</ele><time>2025-09-12T11:07:24.000Z</time></trkpt>
        <trkpt lat="29.52409" lon="103.33506"><ele>3031.8765</ele><time>2025-09-12T11:07:34.000Z</time></trkpt>
        <trkpt lat="29.52402" lon="103.334994"><ele>3032.512</ele><time>2025-09-12T11:07:57.000Z</time></trkpt>
        <trkpt lat="29.524059" lon="103.334811"><ele>3031.4958</ele><time>2025-09-12T11:08:16.000Z</time></trkpt>
        <trkpt lat="29.523961" lon="103.334901"><ele>3031.7598</ele><time>2025-09-12T11:08:31.000Z</time></trkpt>
        <trkpt lat="29.523991" lon="103.334795"><ele>3031.5527</ele><time>2025-09-12T11:09:41.000Z</time></trkpt>
        <trkpt lat="29.524097" lon="103.334773"><ele>3031.0088</ele><time>2025-09-12T11:09:44.000Z</time></trkpt>
      </trkseg>
  </trk>
</gpx>